GFSGBSN_500_spd_003.txt.gz
Wind_Speed
16 16 15 15 16 17 19 20 20 20 20 21 21 23 21 20 19 20 19 18 19 18 16 19 23 24 21 19 19 11 10 8 11 9 18 26 24 22 17 17 19 13 9 12 11 12 11
17 17 18 18 18 20 21 21 21 22 21 21 22 22 21 22 21 20 19 18 19 18 20 19 18 24 25 26 20 20 13 10 12 13 19 27 28 23 20 19 19 13 9 11 10 13 13
18 19 20 21 21 21 20 21 22 22 23 24 22 22 21 22 23 23 21 16 17 18 20 20 21 17 24 30 26 26 20 14 14 15 17 28 31 28 20 22 20 17 13 11 12 15 16
19 19 18 19 20 21 21 22 24 25 26 24 22 22 23 22 23 25 25 20 16 17 19 20 22 21 21 24 28 31 26 21 19 20 20 27 29 31 25 20 22 18 17 15 15 19 17
20 21 22 22 22 24 24 25 24 24 25 25 25 26 28 27 27 27 27 23 23 23 22 21 21 22 24 21 28 33 32 29 26 26 25 23 23 25 24 23 23 21 19 18 21 21 17
25 25 25 25 25 24 25 26 27 26 26 26 27 28 28 29 29 29 30 28 27 26 26 24 23 22 25 25 24 33 37 35 32 32 30 26 22 23 22 20 15 20 17 19 21 17 19
28 30 30 29 30 30 29 27 27 28 28 29 28 28 29 30 31 32 32 31 29 27 28 28 29 24 27 29 25 29 38 40 39 39 35 30 23 18 15 17 18 20 20 21 19 20 19
34 34 35 35 35 34 32 30 30 30 30 30 29 30 31 32 30 31 32 33 32 29 24 27 28 29 27 30 23 29 37 43 45 43 39 36 26 25 28 27 23 24 27 24 24 23 19
36 37 38 38 37 35 34 33 33 33 34 32 32 33 34 35 33 32 32 32 34 34 32 24 28 29 31 29 25 30 32 41 46 47 45 42 32 33 35 31 26 25 25 31 25 25 22
35 37 37 37 37 37 37 37 37 37 37 38 38 37 36 37 36 37 34 32 32 34 33 26 28 27 28 30 26 28 35 37 46 49 49 49 39 40 38 36 30 20 25 32 32 31 24
38 39 41 40 41 41 44 43 42 41 43 42 42 40 40 40 40 39 37 35 34 32 33 28 28 28 26 28 28 28 33 36 45 50 54 53 46 44 44 38 34 26 23 34 31 31 31
44 45 45 47 48 49 49 49 49 48 47 46 45 45 42 42 43 42 40 38 38 34 33 31 31 31 32 33 32 30 29 37 40 48 54 56 52 53 47 46 42 36 31 31 36 37 41
48 50 51 52 51 53 54 54 54 54 54 52 51 50 46 44 45 45 44 43 43 41 36 34 30 32 32 32 33 31 30 34 40 49 56 58 57 58 55 55 54 47 43 41 39 41 43
55 56 56 56 58 58 58 57 56 54 54 54 54 53 52 49 47 50 49 48 48 44 40 38 34 36 38 34 35 34 31 31 39 45 54 58 60 57 64 60 57 54 49 48 44 41 36
62 62 65 65 65 63 62 58 57 56 55 53 55 55 55 52 50 49 51 52 47 46 46 42 35 37 39 37 33 33 30 31 36 41 53 59 61 59 64 65 58 60 58 46 45 46 40
67 68 70 70 70 67 63 62 60 60 59 59 56 59 58 54 51 51 54 52 50 48 47 44 41 39 40 40 34 33 34 30 33 39 48 53 57 59 66 70 66 61 57 55 52 54 56
72 72 73 72 72 70 70 68 69 68 67 69 65 62 60 56 54 56 57 54 51 49 50 50 46 42 41 41 37 32 33 32 30 37 45 48 54 56 68 76 72 70 67 64 59 56 54
77 78 79 79 80 79 78 80 79 77 73 70 69 66 61 58 55 56 54 52 53 50 52 53 51 45 41 40 40 37 33 32 32 35 40 43 44 54 62 70 76 72 69 64 64 60 58
90 90 89 89 86 81 78 78 76 73 70 69 67 68 67 65 61 59 59 56 55 53 52 54 52 49 44 43 45 39 35 33 33 34 38 42 47 47 53 61 70 73 73 69 69 65 66
97 96 94 89 82 81 78 74 70 68 68 67 66 64 68 69 67 66 63 59 57 56 56 56 55 52 45 45 45 41 41 37 33 32 35 43 45 50 53 60 61 65 70 72 73 74 67
95 91 86 79 77 74 72 67 64 63 63 63 66 65 63 60 60 59 60 61 58 58 58 58 58 53 46 46 47 47 45 39 39 33 33 41 44 42 48 50 55 60 59 65 67 66 67
79 70 65 64 64 61 63 61 57 57 58 58 61 58 57 52 54 56 56 59 60 63 62 61 60 52 49 50 49 49 46 45 41 39 35 41 43 35 44 39 45 54 59 59 58 60 60
65 62 60 58 58 56 54 54 55 53 51 53 58 59 56 51 50 53 57 60 60 64 63 61 57 53 50 52 51 50 50 45 47 45 44 42 39 37 38 35 37 45 54 54 55 59 57
60 57 54 50 46 44 42 43 46 50 48 45 43 45 49 49 48 49 52 55 58 60 59 56 55 52 50 51 51 51 51 46 46 51 49 48 45 34 33 35 39 48 51 52 54 57 59
53 50 45 42 38 35 33 33 35 36 39 44 44 44 43 41 40 41 47 50 53 55 57 51 52 51 51 50 52 51 49 46 46 52 55 51 50 52 37 35 37 47 45 51 52 51 55
50 46 40 38 32 31 28 27 26 29 30 29 37 41 42 41 36 34 37 44 45 48 53 48 46 49 49 50 51 51 49 49 48 47 60 58 57 54 46 37 38 37 35 39 42 45 42
42 38 36 33 31 28 25 23 24 23 25 26 27 30 37 38 31 32 31 34 36 45 48 46 45 49 48 48 50 47 47 48 47 48 49 58 62 61 49 40 43 35 26 33 40 39 38
36 34 33 27 24 23 23 23 25 26 23 22 20 22 25 33 27 29 30 32 30 34 43 37 42 46 45 45 49 45 43 48 47 45 42 39 49 54 51 41 38 43 30 30 35 34 35
32 28 27 24 21 20 19 19 16 15 16 15 15 17 18 20 25 28 27 31 31 33 34 35 39 45 43 42 46 41 40 45 47 41 38 37 39 36 50 51 40 42 34 30 30 31 39

GFSGBSN_500_spd_006.txt.gz
Wind_Speed
14 15 15 14 14 15 17 17 17 16 17 18 18 18 18 18 17 16 16 16 16 17 17 14 13 15 21 21 19 13 11 11 12 15 20 26 23 24 20 22 21 16 12 13 12 12 13
14 15 16 17 17 17 17 17 16 17 18 18 19 19 18 18 17 17 17 16 16 16 16 17 15 14 16 24 21 20 16 13 12 14 21 25 26 24 25 25 23 18 15 15 14 13 13
13 13 14 14 15 16 17 17 16 16 18 19 20 19 18 17 18 19 19 19 17 15 15 17 18 16 18 15 24 25 23 17 16 18 17 25 32 29 22 24 25 19 14 16 17 17 15
17 17 17 17 18 18 18 19 20 20 20 19 19 19 19 19 20 22 23 22 19 17 18 19 18 20 21 17 15 26 27 24 21 20 21 24 33 34 29 25 22 19 15 12 19 20 17
20 21 21 22 22 21 21 21 22 22 23 23 21 20 20 21 22 21 22 22 22 21 22 22 20 19 22 21 19 19 28 29 27 25 25 23 27 29 31 26 25 22 15 15 19 22 20
22 23 25 26 26 27 27 26 24 24 24 24 23 25 26 22 24 23 24 24 24 24 24 24 22 22 20 21 21 19 22 31 33 31 30 26 25 24 26 29 25 22 20 18 19 20 20
26 28 30 30 31 31 33 33 32 29 27 26 25 26 27 24 25 26 26 25 25 26 25 25 24 22 23 22 19 22 23 26 34 36 35 31 26 23 21 23 22 20 20 18 23 22 21
29 30 31 32 33 31 31 30 30 31 32 32 28 28 30 28 27 28 28 29 27 27 23 27 27 22 24 23 22 23 23 26 30 36 39 39 30 27 29 25 24 25 25 22 21 27 26
30 31 32 33 34 33 33 32 31 32 33 34 34 33 34 34 33 32 31 31 31 31 29 26 29 30 27 27 24 24 23 23 26 35 42 41 34 34 35 32 32 30 28 25 24 29 29
35 36 37 34 34 34 36 38 40 39 39 39 40 36 37 40 38 38 36 34 34 33 34 28 28 31 27 27 27 25 22 23 26 29 38 45 44 42 37 35 33 35 30 27 28 32 30
39 39 38 38 37 37 37 39 41 41 42 44 45 45 42 40 41 41 39 39 37 35 37 34 31 28 28 27 26 25 23 22 23 28 36 43 46 43 44 37 36 33 30 37 30 32 29
45 43 42 41 43 45 46 47 44 44 45 46 48 48 47 48 49 45 44 41 40 39 40 35 33 31 29 29 29 28 27 24 24 27 33 38 46 49 46 44 40 36 35 37 37 33 37
49 51 51 51 52 53 54 53 51 49 48 48 49 51 53 52 52 50 48 47 44 45 41 39 36 34 35 34 34 32 31 29 27 26 28 37 44 48 52 52 49 45 42 36 38 39 35
61 63 64 61 61 62 61 59 57 55 54 54 51 53 54 54 52 53 53 50 50 48 43 45 42 41 38 38 38 38 34 33 29 28 32 34 43 44 54 57 53 49 49 41 38 35 33
67 68 70 71 71 71 66 65 64 61 59 57 55 55 56 54 53 53 55 56 51 50 50 49 47 44 45 45 41 38 39 36 34 30 30 34 38 44 53 58 58 56 59 44 34 33 33
72 74 74 75 76 75 73 72 71 70 65 61 57 57 60 60 58 58 61 55 54 52 52 50 50 49 47 48 48 41 39 38 36 30 28 33 36 41 50 57 59 64 54 54 48 44 40
84 84 81 80 80 79 79 78 77 75 72 69 67 67 66 68 67 66 65 62 59 61 54 53 51 52 52 47 49 46 40 41 38 37 30 30 34 34 46 55 59 62 64 62 49 47 43
87 89 90 89 89 89 89 89 86 83 80 77 74 71 71 73 73 74 73 69 68 64 62 57 56 55 55 52 48 45 45 41 41 37 35 29 32 35 40 48 53 50 56 57 59 60 49
94 96 97 97 95 94 94 91 90 85 77 71 70 73 75 74 72 71 70 71 70 67 64 59 58 58 54 55 49 48 47 43 40 36 36 30 33 30 37 38 49 55 56 52 57 50 52
97 97 95 93 92 88 85 82 77 69 63 61 62 66 72 74 72 70 69 71 71 68 66 60 58 59 57 56 52 48 48 42 40 39 40 38 32 36 34 34 36 52 63 62 53 62 60
90 90 90 88 86 80 74 67 62 60 58 59 60 63 65 64 66 67 67 69 69 71 73 64 63 60 59 57 52 48 48 47 42 42 40 40 38 31 34 36 30 38 42 57 69 67 60
84 84 83 74 67 63 57 55 55 55 53 55 56 57 56 54 55 61 61 63 68 70 71 65 62 61 61 60 53 49 51 49 46 44 45 42 38 36 32 31 33 36 40 44 47 71 68
77 70 61 57 54 51 51 48 44 43 43 43 45 50 52 51 50 52 55 59 64 70 68 63 68 67 67 64 62 56 54 51 54 53 49 46 40 41 30 23 30 37 39 40 47 50 58
60 53 50 49 49 49 43 39 37 34 33 34 33 34 39 44 44 49 48 54 59 61 64 61 64 65 64 61 56 52 53 51 53 51 47 46 44 41 31 34 33 32 30 35 39 46 51
49 47 44 46 42 38 35 31 28 27 26 25 27 26 28 30 35 36 44 46 51 53 53 54 55 58 60 57 55 51 51 51 52 52 51 50 47 39 40 34 28 26 26 29 34 40 42
46 42 41 40 34 32 31 27 25 24 23 21 22 23 24 25 27 29 28 29 35 42 46 48 51 54 53 51 52 53 50 50 49 52 52 54 52 52 39 41 40 35 28 34 36 47 48
37 36 36 30 29 27 22 19 20 20 21 22 18 19 20 20 21 22 23 26 25 29 32 34 45 45 51 49 50 51 47 38 42 52 56 56 53 52 45 43 39 47 39 36 29 37 36
31 26 24 24 24 22 18 17 18 19 20 22 18 16 18 17 20 19 23 22 22 21 23 25 29 41 45 48 49 39 30 35 38 37 53 53 51 47 47 45 37 43 36 36 27 30 33
17 19 20 20 20 17 15 16 16 16 13 12 13 12 13 13 18 19 21 25 24 22 19 21 23 38 41 50 45 45 43 36 45 37 42 42 44 42 50 49 54 49 36 31 30 31 30

GFSGBSN_500_spd_009.txt.gz
Wind_Speed
10 11 13 14 15 15 16 15 15 14 13 14 15 15 15 14 14 13 14 14 14 14 13 13 12 12 12 15 18 15 12 12 11 17 23 23 26 24 24 23 16 13 11 8 9 8 7
12 11 12 13 13 14 15 16 17 17 14 15 16 17 17 15 14 12 13 14 16 16 13 13 12 13 14 12 15 19 17 15 14 16 22 23 25 24 28 27 17 12 11 11 10 8 13
17 16 16 16 17 17 17 17 18 18 19 20 19 18 17 16 16 15 14 16 16 17 17 13 14 13 12 13 13 16 21 19 19 17 20 25 29 30 28 26 25 22 15 10 12 11 15
18 19 19 20 20 20 20 20 20 20 21 22 22 22 19 18 18 17 15 16 17 16 17 18 18 18 18 11 13 15 16 23 22 22 21 28 33 31 30 26 25 21 16 11 12 16 17
18 19 20 22 23 23 22 22 23 23 23 23 23 23 21 22 22 21 17 17 16 17 18 19 21 21 20 19 13 14 16 18 26 26 25 26 29 32 30 27 27 24 17 12 20 20 18
20 21 23 24 26 26 26 25 24 25 24 24 25 26 24 23 23 23 22 20 20 17 18 20 21 22 20 20 17 14 15 17 20 30 30 28 31 34 35 33 28 21 18 16 17 23 23
22 23 23 24 25 26 27 27 27 26 24 23 23 26 28 27 28 26 25 25 23 22 21 22 20 22 21 21 18 19 16 16 18 25 32 30 32 29 29 31 26 19 17 18 18 23 26
20 22 24 25 26 27 27 27 28 28 28 28 26 28 30 29 30 30 30 30 29 28 22 24 24 19 23 22 19 20 20 18 17 18 30 36 33 29 32 33 32 25 23 20 16 30 21
27 28 28 28 29 30 30 29 29 30 32 35 34 33 33 33 31 32 33 33 33 33 31 28 27 24 25 24 24 25 22 21 19 20 23 32 31 32 34 36 37 30 27 23 21 27 18
36 37 35 34 32 30 33 35 33 33 33 33 34 32 33 38 36 36 34 35 35 36 34 31 32 30 27 24 25 26 25 24 23 20 22 26 33 38 38 38 35 33 29 26 24 33 25
38 39 39 38 35 35 36 35 37 38 39 42 43 41 39 38 39 39 39 40 40 39 38 38 32 28 30 27 25 27 25 25 22 19 24 22 29 37 42 38 39 35 28 28 27 30 25
44 45 46 47 47 48 49 49 49 48 47 45 45 45 44 44 44 43 42 43 44 44 46 43 37 31 29 29 27 26 28 27 25 25 25 23 26 33 39 42 43 34 31 31 30 31 34
52 53 55 58 58 57 57 54 56 56 56 55 53 49 47 47 48 47 48 47 48 48 45 46 42 37 33 35 34 32 30 32 30 29 29 24 26 27 37 45 45 44 37 35 36 38 39
56 58 59 62 62 64 66 66 67 66 63 60 55 54 53 53 51 50 49 51 52 52 52 49 46 42 40 35 36 38 35 35 34 33 32 32 32 30 30 39 45 51 46 43 41 35 35
62 62 65 67 67 68 70 72 70 67 66 65 61 59 56 57 56 55 54 55 51 48 51 52 49 46 46 40 40 43 44 39 38 35 36 34 35 30 31 35 46 46 54 43 36 31 34
67 67 72 72 73 75 75 73 71 72 71 69 65 64 61 60 60 61 61 59 55 53 54 52 53 49 47 46 44 46 47 43 41 40 36 35 34 31 31 35 41 51 43 48 49 46 40
74 75 80 82 83 84 85 85 85 85 83 81 79 71 68 65 64 68 68 62 60 58 58 57 56 53 51 40 38 43 49 42 42 41 40 36 37 30 30 37 36 46 56 48 46 47 45
82 85 87 89 90 92 91 92 92 92 92 93 84 79 76 62 62 65 66 67 68 67 64 64 62 61 54 43 45 38 47 37 32 46 43 41 38 40 35 32 33 38 43 54 48 53 49
92 94 95 95 90 89 89 88 89 91 90 85 83 79 64 68 66 63 65 70 73 75 73 69 71 67 60 57 54 52 53 44 42 45 39 39 42 38 37 31 35 39 41 47 55 45 53
95 94 91 89 88 87 87 86 84 84 81 77 73 67 57 61 61 64 68 74 80 79 78 78 76 74 65 63 61 60 56 50 41 50 47 44 36 42 38 36 30 32 38 43 46 57 55
92 91 91 90 88 84 77 70 65 62 57 55 52 54 56 59 58 61 70 72 72 82 84 79 80 76 72 62 65 63 58 51 54 51 46 46 46 39 40 34 25 31 33 38 46 49 53
96 92 86 75 66 59 53 48 49 48 46 46 42 41 44 50 56 55 42 50 62 68 69 84 78 71 65 55 58 57 49 50 50 41 49 47 45 40 39 32 34 32 32 37 38 45 51
85 73 65 57 50 46 44 42 44 44 40 36 33 34 35 34 39 47 53 50 43 55 68 57 62 73 71 48 48 52 46 40 51 42 40 46 39 38 39 33 31 34 38 37 38 40 41
74 64 54 47 43 40 37 37 36 35 32 29 27 25 25 23 27 32 38 51 48 52 53 62 54 53 70 68 73 67 62 61 54 53 51 41 43 38 36 31 35 38 33 31 36 38 39
50 43 38 35 33 31 29 29 28 27 27 25 22 21 20 25 22 25 29 35 40 45 42 49 56 56 62 70 73 67 66 68 66 59 59 56 43 40 35 36 34 33 34 34 36 36 37
37 32 29 26 22 26 23 23 24 23 20 20 16 17 23 21 20 22 23 23 24 41 41 40 41 48 53 59 67 68 65 60 56 52 54 56 53 42 35 40 38 29 37 26 37 42 40
35 27 21 22 18 19 19 20 20 18 18 17 18 14 19 20 17 22 22 23 17 21 26 22 31 32 48 63 54 57 57 53 52 55 56 58 56 54 44 37 37 41 41 33 33 25 29
24 17 15 15 14 16 19 16 15 14 16 15 16 16 16 14 14 20 24 23 23 20 22 19 26 28 37 43 56 56 45 45 42 38 53 56 56 51 41 41 40 38 39 40 35 39 27
21 22 18 13 15 16 14 14 13 19 17 13 13 15 18 18 14 16 23 20 19 21 23 26 27 26 38 26 36 49 34 33 43 38 37 52 55 46 34 36 43 48 43 41 34 38 30

GFSGBSN_500_spd_012.txt.gz
Wind_Speed
11 12 13 14 14 15 16 16 16 16 16 15 14 14 15 15 14 12 12 14 13 13 12 11 9 8 7 8 13 15 13 13 10 13 19 20 22 22 20 22 14 10 11 4 8 12 9
16 16 16 15 15 16 17 18 18 17 17 16 16 17 16 15 14 13 13 14 15 14 13 12 10 8 7 7 7 15 16 15 14 13 20 23 24 24 23 26 18 9 13 12 9 10 15
17 18 18 18 19 19 19 19 19 20 20 20 20 20 19 18 17 14 14 15 15 14 14 12 11 11 10 10 9 10 12 19 18 16 18 24 27 31 28 24 22 19 16 18 17 14 16
17 18 18 18 19 21 22 22 21 20 21 21 21 20 20 20 19 18 17 17 16 15 13 13 14 14 14 11 11 10 10 16 21 21 18 23 30 27 31 24 25 21 18 17 11 16 17
15 17 17 18 20 21 21 22 23 21 20 21 21 20 19 19 21 20 19 19 18 17 16 15 15 15 16 14 10 11 11 12 20 24 23 22 28 29 32 30 30 24 18 18 9 20 18
14 16 19 20 20 21 22 22 21 21 21 21 22 22 20 20 21 22 23 23 21 21 22 20 16 15 14 15 12 11 12 12 14 24 28 26 25 27 32 32 30 22 18 17 16 14 19
17 19 19 20 21 22 22 23 24 25 24 21 22 24 24 24 25 24 24 24 22 24 23 25 23 20 16 17 13 15 13 13 12 17 26 30 30 26 26 29 24 21 16 15 18 23 19
20 21 24 27 28 28 27 26 26 27 27 27 26 28 30 30 29 28 28 28 27 26 23 27 26 20 21 19 15 18 15 12 15 13 19 29 32 26 27 29 31 27 24 22 18 27 21
28 30 32 32 32 32 32 30 28 27 29 29 28 27 30 33 29 31 32 31 32 32 28 24 26 24 26 24 18 20 21 18 17 17 17 20 22 30 31 32 32 34 30 22 19 21 18
35 37 38 38 37 35 36 35 33 32 31 31 32 32 33 37 35 37 36 34 36 36 36 27 31 26 25 26 22 23 21 21 22 17 19 19 22 31 36 34 32 32 32 25 22 29 30
37 39 40 41 43 44 45 43 42 41 41 41 41 41 39 41 42 38 38 39 39 38 39 37 35 33 31 30 29 25 24 26 21 20 24 17 21 27 35 37 33 32 29 28 26 26 28
42 43 45 45 46 47 47 48 50 51 51 51 48 47 46 46 44 46 43 44 43 43 45 39 41 35 35 31 31 32 27 26 26 27 26 20 21 24 28 36 37 33 31 29 31 29 35
47 48 49 51 53 55 56 56 55 54 56 56 54 55 55 54 51 49 50 49 49 48 43 43 42 41 37 38 36 36 30 31 30 28 27 21 22 22 26 35 34 40 36 35 36 37 38
53 54 56 58 59 61 62 62 60 60 58 59 62 62 58 54 51 52 50 51 56 50 49 46 41 45 44 41 40 38 40 37 35 34 30 30 29 27 26 28 36 39 39 45 41 38 33
59 61 63 64 65 65 65 67 66 67 66 65 63 63 60 59 56 54 54 57 58 49 49 51 45 47 46 48 40 45 46 42 38 35 34 34 33 29 29 30 35 35 44 41 37 32 34
66 68 70 71 72 71 71 71 72 75 76 74 71 70 70 68 64 60 59 60 57 53 53 50 53 48 44 38 40 37 45 45 45 41 36 33 32 31 30 32 33 39 31 41 47 46 44
70 73 75 77 79 81 82 83 83 82 83 83 81 78 65 73 67 63 64 61 56 56 58 60 59 58 56 39 37 39 41 40 43 43 42 39 38 34 31 41 35 39 43 45 39 49 49
79 82 84 86 88 90 91 93 93 92 90 89 87 84 73 74 66 64 66 61 59 58 64 66 66 63 62 58 46 44 44 43 38 30 37 41 40 44 39 31 31 37 39 44 52 48 50
89 91 93 94 94 94 95 94 93 92 89 86 82 81 63 67 79 68 60 59 62 64 68 71 73 74 67 62 65 56 46 41 38 41 42 36 45 40 44 38 34 40 38 39 44 50 48
95 97 97 96 97 96 90 84 80 77 72 71 69 66 59 56 60 63 62 59 65 69 74 77 74 77 77 74 66 67 59 51 42 40 39 44 43 48 49 45 33 36 39 39 41 45 58
98 99 100 96 91 86 77 70 65 60 54 50 50 50 50 54 49 48 46 58 69 74 79 77 86 84 82 81 74 73 68 57 53 45 47 52 55 47 46 41 29 36 35 38 41 44 50
97 93 93 87 77 66 56 50 49 50 43 40 38 41 43 42 43 45 51 45 48 67 68 77 81 80 87 85 74 81 76 61 57 49 48 53 59 54 51 40 41 35 33 39 37 41 42
87 80 73 64 50 41 35 33 34 34 34 30 28 32 33 27 30 33 39 59 36 45 52 64 70 74 76 81 88 88 89 82 72 59 52 45 55 58 56 48 35 41 47 35 33 35 36
69 62 52 43 34 28 26 25 23 23 22 23 24 25 25 23 24 20 20 32 45 63 49 47 56 65 63 72 85 82 79 86 79 68 56 55 61 52 52 40 42 54 35 36 37 36 34
53 47 41 34 25 23 19 16 17 19 20 20 21 22 20 19 23 21 26 26 25 27 51 37 49 58 57 61 68 76 71 72 73 65 52 42 51 48 44 48 45 39 35 36 35 33 35
47 38 34 28 22 21 18 14 15 18 18 20 20 18 21 17 14 21 21 23 26 30 29 39 39 43 52 54 54 71 66 60 65 59 56 47 48 47 46 45 51 43 35 43 50 47 43
40 37 34 29 23 17 14 16 19 19 17 17 16 18 21 21 15 22 21 19 20 21 20 35 33 32 43 50 36 53 61 65 60 54 67 61 57 54 50 52 38 35 41 42 47 46 36
37 34 31 27 23 20 19 19 17 15 12 14 15 16 20 19 14 21 18 18 22 14 22 18 21 30 35 50 49 45 63 58 56 49 59 69 61 58 47 43 44 49 45 35 43 37 39
36 34 29 25 22 19 16 16 15 14 17 19 16 16 19 19 13 18 13 16 21 19 25 24 12 21 25 41 53 42 55 56 46 49 44 64 62 59 55 52 32 18 50 46 40 42 34

GFSGBSN_500_spd_015.txt.gz
Wind_Speed
12 13 14 14 14 14 14 13 13 14 14 14 14 14 14 14 14 14 14 13 13 12 12 8 6 6 6 4 7 14 14 14 10 11 14 17 18 24 20 21 17 20 8 10 14 19 17
15 16 16 17 17 17 17 16 16 15 15 15 15 15 16 15 15 15 14 13 13 12 11 9 6 5 6 6 6 8 14 16 14 12 15 18 17 21 24 25 20 20 14 5 3 12 19
17 17 17 17 17 17 18 18 18 18 17 15 15 15 14 14 15 16 15 16 15 14 12 10 8 6 6 7 6 8 8 17 18 15 14 18 21 29 26 27 25 19 22 20 13 15 18
17 16 16 16 16 17 19 20 19 19 19 19 17 16 13 12 11 13 14 16 17 15 14 12 10 9 12 8 7 8 8 11 21 20 18 18 24 24 28 26 29 23 25 25 20 10 15
16 17 18 17 18 20 20 20 21 20 20 19 19 18 15 13 13 12 14 16 17 17 16 15 13 12 14 11 9 8 8 9 13 23 23 21 21 23 25 27 30 28 21 17 16 18 21
16 16 17 18 20 22 22 23 22 22 21 21 22 22 21 18 17 18 18 19 18 17 17 19 15 15 13 13 11 10 8 9 11 16 26 26 23 23 22 26 26 23 20 17 17 9 15
20 20 21 21 21 22 24 24 24 25 24 22 22 23 24 25 23 22 25 24 23 23 20 19 16 16 18 15 13 14 12 10 11 12 16 26 28 22 20 18 17 19 23 18 11 14 26
26 27 27 27 30 31 31 31 32 30 27 26 24 24 25 27 25 26 27 29 29 28 22 23 22 14 22 21 16 14 15 12 12 13 15 18 18 24 24 24 22 24 22 20 20 21 28
33 35 36 37 38 39 38 37 35 34 32 31 30 26 25 30 27 28 27 25 28 30 28 20 27 21 22 16 16 18 19 17 16 15 15 16 11 23 27 28 26 26 27 22 26 16 33
37 38 39 40 40 41 41 41 40 40 40 40 38 35 31 32 34 33 34 31 36 34 36 23 32 29 27 26 16 19 20 21 20 19 19 18 17 22 27 31 29 27 26 24 30 23 32
42 42 42 42 42 43 43 42 42 42 43 44 45 45 42 41 42 42 39 37 38 38 46 35 34 29 29 31 26 24 25 24 21 21 26 14 21 21 23 28 32 22 28 31 33 29 26
48 48 48 48 48 48 48 48 48 48 47 47 47 47 46 47 44 50 46 44 43 44 50 40 42 37 33 28 29 29 30 30 27 28 30 21 23 23 21 25 32 27 32 36 37 29 33
52 53 53 54 55 55 54 55 55 56 55 54 54 54 54 51 52 50 51 49 48 53 48 45 42 42 41 37 35 37 35 33 32 31 28 23 25 24 23 25 29 33 37 40 47 43 43
53 54 55 56 57 58 59 59 60 62 61 59 58 59 58 58 57 58 54 54 58 55 49 45 42 46 48 44 38 41 40 36 35 37 31 31 31 26 23 26 28 30 41 46 50 50 47
55 56 58 59 60 62 63 64 64 64 65 65 63 63 61 62 61 60 60 61 61 54 49 51 52 52 49 48 47 39 41 40 36 35 38 34 32 27 29 24 30 32 36 35 46 44 47
61 63 65 67 68 69 72 73 73 73 73 71 66 63 62 65 64 64 68 67 62 55 55 55 56 55 55 50 43 43 42 42 45 40 37 37 38 35 30 31 34 35 29 32 41 48 52
70 74 76 77 77 80 81 81 81 82 82 81 77 75 65 66 68 68 66 63 61 59 61 64 63 61 60 60 59 54 51 42 40 40 38 38 40 37 38 41 37 35 39 42 36 43 45
80 81 82 83 85 87 88 89 90 90 90 92 89 83 69 66 68 71 68 66 65 64 64 66 69 70 68 66 66 65 62 55 31 30 36 40 38 45 45 42 40 36 39 40 48 41 47
84 86 89 91 93 95 96 97 99 99 97 94 91 86 65 66 72 65 65 64 67 69 71 74 75 76 74 73 74 71 69 59 46 48 42 37 48 44 47 47 47 46 40 41 42 44 48
85 89 91 93 93 94 94 92 89 87 83 81 77 70 57 53 58 61 61 70 73 74 78 82 84 86 86 83 80 77 76 71 60 59 55 49 51 55 53 51 48 49 44 40 41 47 44
89 89 84 82 82 79 74 70 64 58 56 53 48 50 47 42 41 52 59 63 65 71 76 80 88 92 93 91 89 87 83 78 71 67 65 64 61 58 57 49 46 49 47 41 42 43 45
79 71 68 65 62 59 52 45 38 27 25 26 28 29 30 28 27 38 43 45 51 54 64 76 76 81 87 91 93 90 87 85 80 75 70 65 63 56 57 55 47 49 51 43 40 39 42
65 63 58 51 49 47 43 29 23 21 21 21 18 18 20 21 25 28 35 44 47 50 51 50 60 72 69 78 91 94 93 91 88 81 72 67 65 57 67 59 52 51 57 51 42 38 35
58 52 46 46 43 39 32 24 21 18 18 15 15 18 18 15 21 26 28 33 39 53 55 57 41 60 61 70 79 93 94 96 94 84 73 69 62 59 66 62 59 60 53 50 44 41 40
46 42 40 40 38 35 29 24 19 17 16 16 18 19 23 19 17 21 25 25 25 29 34 51 65 37 43 55 65 68 90 92 95 89 75 70 61 61 61 67 66 61 52 48 46 48 44
42 43 44 39 35 32 28 22 18 19 20 19 20 20 20 19 15 16 21 24 27 25 23 33 38 62 36 28 52 60 65 82 91 93 80 68 54 54 48 62 71 63 53 44 50 53 49
46 44 40 36 32 29 27 23 22 18 17 17 18 18 18 20 13 17 18 21 20 20 20 24 21 28 36 27 32 62 52 64 84 93 71 64 52 49 50 59 64 60 51 43 46 53 48
41 38 36 30 28 27 25 23 22 21 18 16 17 17 18 17 11 20 21 17 19 20 17 18 14 36 25 15 30 52 50 56 72 89 72 60 57 48 41 47 54 52 51 52 53 52 56
38 34 29 29 28 26 25 23 21 19 17 14 13 14 15 16 13 21 16 14 12 17 17 11 15 22 21 13 12 38 37 49 62 74 79 69 59 56 46 46 47 45 47 54 58 52 56

GFSGBSN_500_spd_018.txt.gz
Wind_Speed
13 14 14 14 14 15 14 14 13 12 12 13 13 13 13 13 12 12 12 11 10 9 8 6 5 3 2 6 7 12 17 17 14 12 15 18 21 19 16 17 16 11 10 17 8 8 16
16 17 17 17 17 17 17 17 17 17 16 16 15 13 13 14 14 13 12 12 11 11 9 7 4 4 5 3 5 8 11 18 17 13 15 17 14 17 25 21 23 18 12 15 10 9 15
19 19 19 18 18 18 17 18 19 20 19 19 18 16 15 14 13 12 12 11 11 11 9 8 6 6 8 4 6 6 8 13 18 19 15 16 22 28 25 25 26 27 17 14 13 11 26
19 19 19 19 19 18 16 17 19 19 20 20 21 20 18 17 16 14 13 14 13 10 10 8 7 9 10 7 8 9 8 10 16 20 20 19 25 24 29 25 28 27 24 13 14 13 11
17 19 20 20 20 19 20 21 21 21 21 21 20 20 20 19 18 18 16 15 13 13 13 10 9 9 13 9 10 8 11 10 12 19 24 23 22 25 25 29 31 30 24 18 20 18 10
19 20 21 21 22 23 23 22 22 22 22 23 23 23 22 22 20 19 21 19 18 17 15 15 11 12 14 14 12 8 11 10 12 15 22 25 25 23 24 27 25 27 20 17 19 21 19
28 27 26 26 26 27 26 27 29 29 29 28 27 25 24 25 23 24 27 25 24 22 18 18 15 15 17 15 15 13 12 13 14 12 14 20 23 24 20 19 19 25 24 16 21 24 22
34 34 34 34 35 35 35 36 37 36 35 33 33 31 29 29 26 26 28 28 29 27 20 22 22 16 22 17 16 17 16 13 13 13 16 16 12 18 25 22 20 24 25 25 25 24 21
38 40 39 39 39 39 40 41 41 41 41 39 37 35 33 33 33 32 30 29 33 32 29 17 26 22 23 22 14 17 20 17 15 18 16 13 9 18 23 26 24 25 27 25 25 23 23
43 43 44 44 45 45 44 44 45 44 43 41 40 38 37 38 40 39 36 32 35 34 35 21 30 26 28 27 22 20 19 21 21 19 20 18 18 20 21 26 29 26 23 26 31 30 24
45 47 47 48 49 49 49 49 49 49 48 46 45 44 42 39 43 46 45 43 42 39 46 30 33 28 27 28 26 27 30 24 21 22 22 13 23 23 22 18 26 22 27 30 33 30 30
47 48 48 48 50 51 52 54 54 54 54 52 51 49 47 46 43 46 47 46 48 48 53 40 39 35 30 29 30 31 30 31 30 29 25 23 24 24 21 23 25 24 33 37 37 37 45
48 49 49 50 52 52 53 54 55 56 57 56 54 54 53 52 53 48 50 49 50 54 51 45 49 44 42 41 38 38 36 35 32 32 29 28 26 24 25 26 28 28 36 40 46 52 50
50 50 52 52 53 54 56 57 59 59 59 59 56 56 57 59 57 58 56 55 55 55 54 54 52 51 44 42 42 42 42 43 38 38 34 35 31 25 26 25 26 31 35 43 49 52 47
55 58 60 61 61 62 62 66 61 59 62 64 64 62 62 62 62 61 63 64 61 59 60 57 53 52 52 50 48 48 50 46 37 37 37 37 36 29 32 25 30 29 40 35 44 47 52
66 67 66 66 67 68 70 67 67 68 68 67 64 63 63 66 66 67 65 63 65 67 66 65 60 57 57 57 56 53 54 51 45 39 39 41 40 35 34 34 37 35 28 37 41 48 54
72 69 70 75 79 77 77 77 75 73 74 71 72 70 70 69 69 69 68 67 65 63 67 69 69 66 63 63 63 60 55 55 52 44 41 42 45 37 41 46 38 38 39 40 40 38 44
74 78 79 79 79 81 83 84 85 83 82 81 79 76 71 74 68 68 68 68 71 72 71 74 76 75 71 70 69 69 63 58 58 58 62 51 43 48 48 43 43 46 41 41 42 40 38
76 78 81 84 84 85 86 86 86 87 88 87 83 77 72 71 72 69 69 72 75 78 78 78 78 79 79 76 76 76 71 66 66 66 65 60 60 54 54 53 53 54 47 43 43 43 45
81 85 85 82 80 75 70 66 65 67 67 69 68 61 52 52 57 64 65 69 78 83 86 86 84 85 85 85 82 81 80 75 72 70 70 65 65 65 62 54 52 54 52 49 48 50 46
80 76 68 62 57 48 47 47 48 47 45 41 38 35 31 26 36 48 56 61 68 76 83 87 88 88 90 91 89 87 86 82 79 75 72 69 71 72 67 60 50 54 53 53 53 49 52
61 56 51 48 45 45 44 44 43 40 36 31 28 23 18 9 21 35 39 44 49 57 65 71 80 81 90 91 92 91 93 88 85 78 72 72 74 75 73 67 62 55 58 58 55 50 50
55 53 50 46 44 43 40 38 35 32 28 23 23 19 13 8 12 23 32 40 41 40 45 51 56 68 74 79 88 93 97 98 90 84 81 77 78 77 75 69 60 50 64 63 59 56 54
56 55 49 43 41 39 35 33 31 27 23 21 20 19 17 13 11 14 23 30 37 41 48 48 52 54 56 60 71 88 94 102 100 91 83 82 80 77 74 69 63 67 61 62 61 58 56
55 50 43 38 36 33 31 29 27 25 24 24 22 21 20 18 17 18 17 22 28 32 35 36 42 44 50 50 57 71 82 97 102 99 93 82 75 73 76 67 65 63 64 60 63 60 56
49 44 39 36 34 31 29 27 26 23 22 22 21 20 18 16 13 14 14 18 21 24 25 24 28 35 39 43 53 44 63 75 92 100 96 83 72 66 62 74 68 71 65 63 52 62 61
42 43 38 34 33 29 29 28 26 24 22 20 20 19 15 13 12 15 14 14 16 19 21 25 26 25 19 26 43 36 36 44 73 88 98 84 73 62 49 61 72 73 63 59 51 52 53
39 40 39 38 35 31 30 32 29 25 22 19 18 15 17 16 13 16 15 11 15 20 20 18 19 18 18 12 22 25 29 35 46 76 90 80 73 68 66 47 57 69 62 56 57 51 54
39 40 41 40 37 36 32 30 29 26 22 18 16 13 11 9 11 15 14 14 10 12 3 2 8 16 16 23 9 16 23 29 35 58 67 69 66 67 58 38 51 69 48 54 58 57 54

GFSGBSN_500_spd_021.txt.gz
Wind_Speed
15 16 16 17 18 18 19 19 19 18 18 17 16 16 15 16 16 15 14 12 11 9 8 8 9 8 8 9 8 9 18 20 17 15 14 15 14 18 15 19 20 24 22 13 10 7 4
19 19 20 20 20 20 20 21 20 20 21 21 21 19 18 17 17 17 17 15 13 11 8 7 9 9 12 8 6 8 9 18 20 17 16 13 13 18 23 21 25 28 26 16 7 4 9
20 21 22 23 23 23 22 21 20 20 21 22 23 23 21 20 19 18 17 15 14 13 11 9 7 9 13 7 9 10 8 11 18 20 19 15 20 24 21 22 26 23 18 10 6 7 13
18 19 20 22 24 24 24 23 22 22 22 22 22 23 23 21 21 22 20 16 14 14 13 10 9 10 12 8 12 11 10 11 14 20 21 20 22 26 27 25 27 24 21 13 10 16 16
22 22 22 23 24 25 26 25 26 25 24 24 23 24 24 24 22 24 23 19 17 15 14 14 14 14 16 10 10 10 14 13 14 16 23 26 23 23 27 29 30 30 21 18 16 17 15
29 29 29 29 28 28 29 30 30 29 27 25 26 27 28 26 25 27 28 25 22 20 16 15 14 18 20 16 15 12 17 11 14 17 20 23 25 25 23 25 21 21 19 20 16 18 19
32 33 33 34 34 35 35 35 34 34 34 34 33 31 32 32 28 28 30 31 29 26 22 21 18 19 21 22 20 17 19 15 15 16 15 20 22 20 23 20 22 23 22 23 22 26 23
37 38 39 39 39 39 38 39 40 41 42 42 41 40 39 38 37 34 32 32 32 31 26 27 25 20 25 24 20 20 20 16 16 15 19 18 11 15 24 23 23 26 23 24 24 29 27
39 39 40 42 43 44 45 45 45 44 44 44 44 44 42 43 43 41 40 37 36 35 30 24 29 26 28 26 19 21 20 21 19 20 18 15 12 17 21 25 25 27 24 26 23 33 31
44 44 44 44 44 45 46 47 48 49 49 49 49 48 46 43 43 44 44 43 41 39 38 25 33 32 31 28 25 26 20 21 22 21 21 20 19 21 21 24 26 29 22 30 32 37 39
44 45 46 46 47 48 47 48 49 50 51 51 53 53 52 50 49 47 45 44 45 44 46 37 36 34 34 33 29 29 29 29 27 24 25 17 22 23 22 14 23 21 29 31 37 41 41
43 43 46 46 47 50 51 51 52 53 53 52 53 54 56 55 53 51 52 49 47 47 52 44 42 42 35 34 33 33 34 35 34 32 27 25 27 26 23 23 23 19 33 35 42 45 52
46 48 47 49 50 51 54 55 55 56 56 54 54 54 57 57 55 56 54 57 55 54 52 49 51 48 44 39 38 39 39 38 36 36 32 31 28 27 26 26 28 27 39 43 50 54 45
50 54 54 56 56 57 59 55 58 60 58 59 59 57 58 58 58 59 58 59 61 58 56 56 54 51 49 48 49 48 46 44 42 39 36 38 36 31 28 27 29 28 34 45 49 50 46
57 59 59 60 64 65 63 62 64 63 65 67 65 66 65 64 61 62 66 65 64 63 61 58 57 56 53 52 52 53 50 47 45 43 42 41 38 31 35 32 34 31 38 31 46 49 50
64 64 65 68 69 72 73 72 72 72 71 69 69 69 68 68 67 69 69 70 69 69 67 64 61 62 61 57 57 55 54 54 52 52 47 46 45 40 35 40 42 38 28 37 43 48 50
67 69 72 74 76 78 79 80 81 80 78 76 74 72 71 70 70 69 70 71 71 72 74 72 69 67 66 65 63 60 60 61 59 56 55 53 53 44 44 50 43 41 41 42 42 44 41
72 74 76 79 80 81 80 80 79 78 77 80 79 77 76 74 72 72 71 73 76 76 79 81 80 76 73 73 71 69 65 67 64 63 60 58 59 54 52 45 43 46 44 45 46 39 36
75 76 75 74 71 68 65 62 59 55 53 53 54 57 63 66 60 63 66 70 73 75 79 84 85 84 82 80 77 76 74 72 69 67 67 63 64 59 58 55 57 58 53 47 41 41 44
72 70 68 67 64 61 58 55 52 48 47 47 46 45 43 42 40 47 54 62 68 75 80 83 87 88 88 86 84 84 82 78 75 74 73 70 69 65 62 57 57 60 57 51 49 54 44
65 60 58 59 58 52 49 47 46 44 43 42 40 36 32 26 27 30 43 53 60 68 71 79 83 90 91 88 87 88 89 86 82 81 80 77 74 72 67 64 65 62 60 55 57 52 52
59 58 56 53 49 44 41 39 37 35 34 34 31 26 23 21 17 21 31 37 40 54 62 60 64 78 86 88 89 87 91 92 88 84 84 83 80 78 74 70 68 71 66 59 58 54 53
58 53 49 46 44 41 39 37 36 33 30 27 26 24 21 15 17 17 18 27 32 32 33 44 55 60 65 80 85 87 91 94 93 88 85 85 85 83 81 77 75 74 69 64 61 58 55
53 47 46 42 42 41 37 35 35 34 29 26 26 25 24 19 17 17 17 18 20 28 37 33 32 40 50 63 71 78 88 94 97 94 88 89 88 86 86 79 81 70 64 65 65 64 60
46 44 43 42 39 39 37 35 35 33 30 26 26 24 22 19 16 16 17 18 18 21 25 27 40 42 37 36 47 58 75 86 96 101 94 89 90 89 87 82 82 77 72 65 65 64 63
46 44 42 40 39 40 36 34 33 33 31 28 27 22 20 15 12 14 15 16 14 15 18 21 23 27 32 35 41 48 59 69 82 96 100 94 87 88 86 84 82 80 73 72 64 66 59
50 49 48 46 43 41 39 38 36 34 31 29 26 21 16 11 11 15 12 11 12 10 9 15 18 21 24 25 28 35 42 49 67 77 92 97 97 91 87 81 85 79 73 69 65 69 58
49 47 44 43 42 40 39 37 37 35 32 25 23 20 16 10 12 14 11 8 9 10 7 12 16 20 22 14 14 14 22 32 41 54 64 83 75 93 92 79 75 69 61 51 53 63 65
51 52 50 46 44 41 42 41 39 35 29 27 22 19 16 12 11 12 9 6 5 5 6 9 6 9 11 13 9 12 20 20 24 25 34 56 68 87 88 88 68 57 55 56 45 51 60

GFSGBSN_500_spd_024.txt.gz
Wind_Speed
19 19 20 20 21 21 22 22 23 23 23 22 22 22 21 21 21 21 20 19 17 16 14 12 14 12 15 13 8 11 11 19 19 17 15 8 9 17 18 20 18 22 19 17 20 16 14
21 22 23 24 24 25 26 25 25 25 24 24 24 25 24 24 23 22 22 21 19 19 17 14 13 12 17 16 10 6 10 14 19 18 18 11 11 19 25 21 20 23 22 18 16 8 8
19 20 21 22 24 26 26 27 27 27 25 23 22 23 23 24 25 25 25 21 20 19 18 17 14 13 18 11 9 11 9 11 14 18 19 16 17 20 23 23 24 27 24 21 14 5 3
25 25 25 25 24 25 25 27 27 28 27 27 27 26 26 25 24 25 26 23 23 21 18 18 17 17 19 12 13 14 9 9 13 15 21 22 20 22 26 25 27 31 28 23 17 13 2
28 29 30 30 31 31 31 30 30 30 30 31 31 30 28 28 26 27 27 25 24 23 20 20 19 19 22 16 16 17 14 15 13 14 18 24 23 19 24 25 28 31 27 24 19 14 6
30 31 32 34 35 35 35 36 36 36 35 35 34 34 33 30 29 30 29 28 28 26 24 21 20 23 24 22 19 18 19 16 16 16 16 17 20 23 21 20 14 19 24 21 18 15 12
36 36 36 37 38 39 39 39 40 40 40 40 40 38 39 40 36 34 34 32 31 30 28 28 25 24 24 26 24 23 24 19 17 16 13 15 16 13 19 19 17 19 21 25 23 21 15
40 42 42 43 43 42 42 42 43 44 45 45 44 44 45 47 44 42 38 38 36 35 28 31 32 26 30 30 27 24 24 22 18 15 20 16 6 9 20 23 22 22 23 24 25 24 19
41 42 43 44 46 47 47 47 47 46 46 47 49 49 48 49 49 48 46 44 43 41 38 29 32 33 35 35 28 27 27 26 22 22 19 17 13 16 19 21 24 23 20 24 26 28 28
44 46 46 47 47 48 50 50 51 51 50 50 50 51 51 50 52 51 50 49 48 47 45 37 37 38 36 37 33 31 28 28 27 21 24 21 19 20 18 18 20 24 19 27 31 34 35
42 43 43 44 46 49 50 52 51 50 51 51 53 54 54 52 52 56 56 54 52 50 49 45 42 42 41 39 35 34 30 32 26 24 28 20 19 21 19 12 19 16 24 27 32 38 38
47 45 45 49 51 52 51 52 54 51 51 53 55 55 57 55 54 55 56 59 58 56 56 51 47 44 41 41 39 38 40 38 35 37 33 27 28 28 23 23 21 21 31 35 37 43 47
46 48 51 54 56 55 56 56 55 58 59 60 59 58 56 56 56 55 56 58 60 62 58 57 56 51 46 42 42 39 41 40 40 41 38 31 30 28 28 26 26 27 33 41 45 48 35
54 59 61 63 61 60 60 61 62 62 62 64 67 62 62 60 60 60 60 59 61 62 63 62 62 57 49 48 47 44 44 42 42 41 39 37 38 32 29 26 25 26 34 39 39 39 35
61 65 67 66 66 67 67 69 71 72 72 72 71 72 68 62 64 66 65 66 65 62 65 63 63 62 60 53 51 48 51 48 42 41 42 43 42 37 38 34 34 33 33 30 40 41 41
68 69 71 74 76 77 77 78 77 76 76 77 77 76 75 72 70 69 69 70 70 72 69 67 66 65 65 61 56 56 55 55 53 52 49 47 44 41 36 41 42 39 32 37 42 43 39
69 72 76 79 79 77 75 74 73 70 69 71 72 74 74 73 74 72 70 70 71 76 76 74 71 70 68 66 61 62 62 60 57 56 56 54 52 48 48 50 42 39 41 43 43 41 38
72 75 74 72 71 69 68 66 62 58 55 53 51 53 57 60 64 67 65 69 71 70 76 80 80 77 75 71 69 66 66 66 63 63 61 59 58 55 53 51 49 48 44 46 46 37 35
71 72 71 66 61 58 58 54 50 48 45 42 39 39 42 41 47 49 52 56 62 67 71 78 82 85 81 78 75 73 71 70 69 67 66 63 64 59 55 53 55 58 52 50 45 45 43
69 64 57 55 54 51 49 49 47 44 41 38 36 34 34 35 36 34 32 39 50 60 67 74 81 84 85 85 82 79 75 75 74 73 70 69 67 64 62 57 59 59 57 56 51 55 43
56 58 58 54 50 48 48 47 46 42 39 36 35 32 28 26 26 25 23 25 38 49 57 62 72 80 84 85 87 85 81 80 78 77 76 74 71 69 66 62 61 62 60 58 58 54 55
53 54 56 56 57 52 49 48 43 38 36 36 36 32 26 22 23 21 22 21 20 31 42 51 54 63 78 80 86 86 86 86 83 82 81 80 77 75 70 68 65 63 63 60 58 59 58
55 59 54 54 53 52 46 45 44 41 38 36 33 31 28 21 20 20 21 20 19 19 20 31 45 49 54 70 82 84 87 87 89 87 87 87 84 81 77 74 72 69 63 62 62 61 57
54 55 57 56 51 52 50 45 44 44 41 35 33 28 26 20 17 18 18 17 18 18 12 16 27 35 52 55 57 73 86 87 90 92 90 91 89 88 84 80 79 74 65 66 66 64 60
50 58 59 58 52 51 48 49 45 43 43 38 31 28 26 19 14 13 13 13 14 15 14 13 19 31 27 31 50 57 63 83 87 91 95 91 94 92 91 87 82 80 74 69 69 65 63
45 54 55 63 57 50 48 47 46 44 42 39 31 28 25 17 10 12 11 12 11 12 12 13 14 13 21 29 32 37 48 61 75 87 90 95 92 95 95 93 88 84 78 73 70 71 64
43 50 52 61 64 51 50 44 45 42 43 39 34 30 25 18 16 14 10 10 10 9 9 8 7 9 12 17 21 25 33 41 55 67 80 89 97 97 95 97 96 90 86 80 76 71 64
39 45 50 56 60 57 48 47 43 38 37 39 37 35 28 22 14 10 8 6 5 6 6 6 5 9 9 10 12 16 15 22 35 41 56 75 87 99 98 100 101 93 86 83 80 74 71
33 40 46 50 60 57 49 48 47 40 33 33 32 30 29 26 21 13 8 7 8 6 3 7 8 8 6 6 7 10 12 9 11 18 36 52 75 89 100 106 95 95 88 83 78 78 75

GFSGBSN_500_spd_030.txt.gz
Wind_Speed
17 18 18 19 19 20 21 22 23 25 26 27 27 26 25 24 24 24 23 23 23 22 21 20 19 20 20 16 8 13 13 13 20 22 19 17 18 23 20 22 22 21 22 18 15 13 12
20 21 23 24 24 25 25 25 25 24 23 24 26 28 27 26 25 22 22 22 23 24 22 21 22 22 22 19 14 16 13 14 15 22 24 20 19 24 28 26 26 24 22 20 18 16 13
22 23 24 25 26 27 28 29 29 30 29 29 28 26 27 27 26 25 24 25 24 24 24 23 23 23 25 22 17 16 18 16 14 15 24 26 26 25 28 31 30 29 26 23 21 18 13
27 28 29 29 30 31 31 32 32 32 32 32 33 33 31 29 29 30 30 28 27 26 25 24 25 24 24 25 22 18 22 17 15 16 20 27 28 27 26 30 30 31 29 27 26 21 16
30 31 32 33 34 34 35 37 38 38 37 37 36 38 37 35 34 34 32 31 30 30 27 25 25 26 26 28 24 20 24 22 21 18 16 19 27 27 24 24 30 32 26 27 31 28 22
30 31 31 33 34 36 37 39 41 41 40 40 41 41 43 41 40 39 38 36 33 32 31 28 27 28 27 26 28 25 24 26 22 21 18 16 17 23 26 24 25 29 29 30 33 32 20
30 29 30 31 32 34 35 37 38 40 41 41 42 42 44 47 46 44 44 41 39 37 35 33 30 31 27 28 30 29 27 30 26 22 17 17 19 14 18 25 24 28 30 28 32 35 27
32 29 30 34 36 38 39 39 38 38 38 38 38 39 42 46 49 49 48 47 46 43 40 40 37 33 32 31 32 32 32 30 29 22 21 19 10 15 23 29 28 26 23 27 35 37 33
34 34 36 38 40 44 44 43 44 45 45 46 46 48 48 48 48 48 50 51 52 49 48 42 43 38 39 37 35 34 33 32 32 34 24 21 21 23 24 28 32 31 30 30 35 38 36
37 40 41 44 47 49 49 50 52 54 56 56 55 56 56 53 53 53 51 50 52 54 54 50 47 46 44 43 41 38 36 37 35 30 29 30 28 28 26 25 28 31 29 33 36 44 41
45 46 46 48 49 51 53 54 57 60 62 63 64 65 65 62 59 58 56 54 52 51 54 58 51 50 48 49 45 43 38 43 39 33 35 28 29 25 25 19 23 24 35 36 35 41 41
47 45 46 49 52 56 60 64 67 69 70 72 71 71 70 67 65 61 59 61 58 55 58 58 55 51 49 50 50 48 45 45 41 40 40 35 33 35 27 31 27 31 36 36 38 38 45
51 52 54 58 63 67 70 73 74 74 74 75 79 80 78 74 71 69 65 63 63 63 58 59 60 56 50 50 52 49 50 49 48 44 42 39 39 36 37 36 34 35 37 41 43 43 39
53 56 61 65 69 69 67 63 61 58 51 50 53 56 60 63 63 68 69 68 67 68 69 59 59 56 51 53 50 50 48 51 52 47 45 42 44 40 38 37 34 35 35 33 38 37 36
58 62 64 66 65 62 57 52 47 44 51 55 55 58 60 51 47 46 56 64 62 73 69 68 63 59 57 54 53 52 48 49 51 50 49 46 43 43 39 36 37 35 36 26 36 34 30
60 61 62 62 55 46 43 50 52 55 54 54 54 58 59 43 39 34 34 45 58 65 68 66 65 67 65 61 55 54 56 54 53 51 56 54 50 49 44 41 41 41 29 40 37 36 29
56 58 57 51 44 45 45 51 50 48 51 54 51 57 54 39 32 29 27 31 38 50 62 66 69 70 68 64 59 58 63 61 60 59 56 55 53 54 52 51 50 47 44 41 36 32 28
55 54 49 44 49 50 49 51 51 51 50 49 49 55 48 35 29 29 26 25 30 35 50 59 68 69 71 69 65 65 65 65 65 63 54 55 54 55 54 52 52 49 43 40 40 33 29
51 49 47 41 47 50 57 48 52 52 50 50 46 52 46 36 31 27 27 22 22 28 39 51 59 70 71 70 68 69 68 67 65 65 64 63 58 56 55 55 57 56 50 49 47 38 35
48 46 45 38 44 51 56 54 49 48 49 48 45 48 50 39 32 27 25 20 17 20 28 42 48 61 69 66 71 73 73 72 70 69 66 62 62 60 55 47 53 56 55 55 51 45 42
45 45 42 36 43 49 56 53 52 50 51 48 44 44 48 41 33 29 24 13 14 16 17 27 33 42 57 65 72 72 77 75 75 73 70 68 65 65 63 64 62 59 59 56 54 49 45
43 45 37 34 42 48 52 55 56 57 48 44 44 40 44 38 32 25 18 13 12 11 10 12 17 27 28 51 70 73 78 79 79 77 75 73 72 71 67 63 64 63 61 59 55 49 47
43 43 38 34 40 47 54 55 53 51 45 43 40 37 37 40 31 24 17 13 12 9 11 9 9 30 33 31 54 74 76 76 81 80 79 76 75 74 71 67 67 69 65 62 58 54 51
41 43 40 33 39 48 55 57 58 53 49 43 38 35 32 35 33 25 17 12 9 9 9 11 6 9 34 33 34 56 73 76 79 81 82 80 77 74 75 76 74 69 66 67 64 57 53
39 42 40 31 38 46 51 57 56 55 50 47 39 33 33 31 30 27 21 15 12 10 8 11 10 8 11 31 37 38 49 75 77 81 82 83 81 79 75 78 73 74 75 71 68 64 60
38 41 34 30 39 43 51 51 55 54 49 45 37 31 31 38 29 25 22 15 12 10 10 8 7 8 8 8 13 26 28 32 69 79 83 82 85 83 80 79 79 74 75 75 73 68 61
38 39 28 29 37 44 49 50 53 55 52 41 34 32 34 38 32 26 22 17 14 12 11 9 6 1 5 7 12 15 20 41 49 64 83 85 86 87 84 84 82 82 82 78 73 66 65
39 37 24 28 35 43 48 49 52 52 49 46 41 32 30 31 31 26 18 18 15 12 11 8 6 3 3 5 8 10 15 20 37 49 62 82 91 89 89 88 88 85 81 80 74 74 70
39 35 24 24 34 42 46 47 46 44 46 39 33 27 28 30 28 24 23 18 16 16 15 9 7 5 3 4 6 8 9 11 15 28 46 63 81 91 94 94 87 88 86 83 78 77 70

GFSGBSN_500_spd_033.txt.gz
Wind_Speed
17 18 19 20 21 22 22 22 22 23 23 23 23 24 24 26 26 25 25 25 23 22 22 22 23 21 20 16 13 15 15 16 20 23 22 21 19 21 23 24 23 21 23 18 15 12 11
21 22 23 24 25 25 25 25 26 26 27 27 27 26 26 24 25 26 26 26 24 22 22 23 24 23 23 21 16 17 17 16 19 24 27 23 21 25 27 30 28 23 24 22 18 15 13
25 26 27 28 30 31 31 31 31 31 31 32 31 30 29 29 28 26 27 28 28 26 24 24 25 24 24 26 22 18 18 20 16 20 26 28 26 26 29 30 29 31 24 22 19 17 15
26 27 28 30 32 33 34 35 35 36 37 37 38 38 36 34 32 31 31 29 31 32 30 28 27 26 23 25 24 23 19 21 19 18 22 30 31 29 31 34 33 31 28 25 21 19 15
26 27 29 30 32 33 34 35 36 37 38 39 40 42 42 41 40 38 36 35 35 33 33 32 31 29 27 26 26 26 24 24 22 22 21 23 33 31 32 32 34 34 30 28 23 21 18
28 29 30 31 31 31 32 33 33 34 36 37 39 40 43 44 43 42 43 42 40 39 38 35 34 33 30 28 27 27 27 27 24 26 23 23 26 34 34 31 27 34 32 25 25 26 27
29 30 31 32 34 36 37 37 37 38 39 40 40 39 40 41 42 43 44 45 46 45 41 42 38 37 34 31 29 32 30 30 28 27 25 22 24 22 26 28 27 32 26 27 23 25 27
29 32 34 36 38 40 41 42 43 43 43 44 45 45 46 45 43 42 40 42 47 50 46 46 45 39 40 34 33 33 34 32 30 25 27 26 18 20 25 29 33 32 31 28 29 31 26
33 36 37 39 39 40 42 44 46 48 49 50 51 52 53 53 53 53 49 47 46 46 53 45 49 47 45 43 39 36 36 33 32 33 28 25 22 23 28 31 36 36 33 29 30 29 32
39 40 42 43 43 44 47 51 53 53 54 57 59 61 60 60 58 59 60 56 53 50 49 51 49 52 50 48 47 43 36 37 38 34 31 33 30 27 28 31 34 36 33 34 31 31 33
41 42 45 48 51 53 57 61 63 67 69 71 72 73 72 71 69 66 62 65 63 56 53 55 54 52 54 53 48 48 41 44 41 36 39 33 34 31 34 25 29 28 37 38 38 36 33
44 46 48 53 56 59 64 66 67 66 64 60 57 56 57 63 68 71 70 63 65 62 62 53 56 54 54 53 54 54 50 49 43 42 42 38 36 38 29 30 30 31 37 41 41 42 45
47 49 56 59 60 62 63 59 53 49 51 51 49 46 46 48 53 53 58 63 56 61 45 50 65 60 56 54 56 59 57 54 52 50 47 42 41 35 38 38 37 39 37 41 45 47 46
50 54 56 58 59 59 57 44 41 46 49 50 45 48 54 51 58 60 46 45 47 43 43 69 69 65 58 55 53 56 56 58 56 52 48 46 48 43 40 42 40 40 38 39 43 42 35
51 52 53 53 54 51 41 43 42 48 46 51 51 50 49 53 55 58 39 25 19 37 64 70 69 64 55 49 56 55 56 53 58 57 54 52 47 42 44 41 42 41 42 30 22 21 24
47 49 50 50 49 42 40 44 47 42 47 51 46 50 46 50 49 52 32 16 31 37 57 62 63 56 44 40 55 57 54 52 55 60 59 51 33 49 44 46 46 46 33 41 41 24 25
47 48 48 45 46 36 43 45 49 46 48 49 50 57 48 46 45 44 20 25 31 33 36 54 56 64 59 59 71 62 49 55 61 64 63 60 52 39 50 54 49 47 48 43 36 37 24
48 48 45 42 43 34 40 47 49 52 55 54 51 42 39 39 40 41 31 28 28 25 28 36 52 60 61 62 69 71 45 61 66 61 61 64 67 55 51 50 49 44 46 42 41 36 33
47 47 43 42 39 34 41 45 52 55 56 52 45 38 37 34 33 33 31 26 19 19 19 31 37 58 71 62 64 74 73 75 69 68 67 66 67 64 41 40 53 55 51 45 39 34 33
46 45 41 41 35 35 40 45 52 56 55 50 43 38 37 35 32 31 28 21 12 13 21 21 28 41 59 68 49 52 69 79 72 70 68 66 63 63 52 48 45 53 55 51 47 45 34
45 43 40 41 36 34 40 46 53 55 57 54 41 42 36 34 30 26 24 15 11 15 19 17 15 23 37 61 59 55 65 81 73 71 69 68 63 61 57 34 39 41 53 55 54 48 43
43 42 42 42 35 36 42 46 54 55 59 58 41 43 41 35 33 24 20 16 13 16 16 15 13 21 26 38 61 57 62 78 77 76 71 71 67 62 65 49 58 55 54 54 52 52 47
41 42 43 42 32 35 43 49 55 57 54 50 43 44 38 34 35 27 18 16 13 10 13 13 12 15 26 28 43 66 67 72 76 79 76 74 69 68 70 69 69 67 62 54 46 47 49
38 42 42 39 30 35 42 48 55 55 56 46 44 40 33 31 32 29 24 17 14 13 13 11 10 13 20 34 35 55 72 75 74 75 74 73 72 74 72 68 70 63 58 59 54 54 53
38 40 39 35 29 34 41 47 52 50 47 50 47 38 33 31 29 28 27 22 15 14 13 12 10 10 14 28 29 36 55 74 73 72 73 72 73 73 70 67 60 67 64 61 62 58 51
37 39 38 34 26 33 39 46 49 46 44 42 44 33 30 33 30 27 22 20 17 16 14 10 10 9 8 10 32 27 24 28 67 67 69 71 73 76 75 70 63 44 43 68 68 63 62
39 37 36 33 25 31 38 43 48 42 40 39 36 27 27 27 27 26 23 20 19 16 14 9 7 6 7 11 14 24 24 26 31 39 64 63 70 74 76 76 71 43 42 63 66 54 58
39 36 34 31 24 28 36 41 46 38 34 35 34 32 28 29 30 29 26 18 19 19 15 10 7 6 4 10 13 13 14 22 36 35 36 53 68 73 75 78 77 53 68 63 51 69 70
38 34 32 27 21 25 33 38 42 32 30 32 33 34 36 30 35 29 27 23 18 15 12 12 6 4 4 6 10 11 12 19 24 32 47 62 57 58 78 79 79 72 78 73 79 75 66

GFSGBSN_500_spd_036.txt.gz
Wind_Speed
19 20 21 21 22 23 24 24 25 26 26 26 26 26 26 25 24 24 24 25 24 24 24 23 22 20 19 17 17 16 18 16 19 22 22 22 19 19 16 20 21 19 8 11 3 11 15
22 23 25 26 27 28 29 30 30 31 32 32 31 30 30 30 29 29 28 26 25 24 24 24 23 21 21 19 19 19 18 18 18 20 25 24 23 22 24 23 23 16 18 8 5 11 13
21 22 23 24 26 27 29 30 32 33 34 35 36 35 35 35 34 32 32 32 30 27 27 26 26 23 21 26 21 20 23 20 20 19 22 27 27 27 25 27 26 22 26 28 20 20 13
21 22 24 25 26 28 29 30 31 32 33 34 36 37 37 37 38 38 37 36 35 34 32 31 31 29 21 29 21 22 25 22 22 22 21 25 31 29 29 31 33 31 32 26 23 20 18
21 22 24 25 26 27 28 30 31 32 33 34 35 36 36 37 38 39 40 41 42 39 38 37 34 32 28 28 24 26 24 24 26 25 24 26 30 33 33 33 34 36 33 28 20 21 17
20 22 24 27 28 29 30 32 33 34 35 36 38 39 38 38 37 36 38 40 43 44 44 43 40 37 33 31 30 26 27 26 28 27 27 26 27 34 37 36 29 30 30 25 23 22 17
21 22 26 29 31 33 34 35 36 38 40 41 42 43 43 43 43 41 38 40 40 45 45 46 46 41 39 35 34 31 31 32 30 32 27 28 31 26 27 33 30 29 28 28 20 18 24
23 28 32 32 33 34 36 37 38 40 42 46 48 49 50 49 51 50 49 47 47 45 43 45 47 45 45 42 39 37 35 35 33 30 31 34 26 23 26 32 34 31 28 25 21 23 25
28 32 34 36 36 39 42 43 45 48 52 54 55 54 55 54 55 57 57 56 55 54 50 39 44 47 42 50 43 43 39 35 34 34 33 30 24 28 27 30 34 36 34 28 24 23 30
34 36 38 39 42 45 48 51 53 57 61 64 65 65 65 65 66 65 65 61 59 61 57 49 47 47 47 50 51 45 45 40 39 37 33 33 32 33 31 31 31 36 35 32 30 27 32
37 37 39 45 49 52 54 57 60 61 61 58 53 47 38 37 37 37 46 56 65 58 56 50 60 49 50 51 47 47 47 48 45 37 41 37 35 37 35 27 32 31 32 38 37 33 35
42 43 47 50 54 56 57 56 53 50 46 43 33 21 31 36 38 36 44 43 49 50 49 19 47 57 56 50 49 51 49 50 46 44 45 39 38 40 32 31 32 25 29 32 37 36 44
46 48 50 52 53 55 56 55 43 38 40 36 27 34 43 44 47 50 54 48 48 41 22 29 52 66 63 61 49 51 57 58 56 56 53 46 44 41 38 37 34 35 34 35 40 47 51
46 48 50 50 53 55 53 48 36 36 40 37 38 42 49 51 51 53 50 43 45 43 23 45 61 59 63 62 59 42 53 60 56 55 51 48 49 45 43 44 37 40 38 39 43 45 38
48 47 48 49 51 49 49 40 37 41 44 45 48 52 54 51 49 45 40 37 30 40 30 55 65 46 40 46 56 42 50 54 57 56 56 53 50 41 45 43 44 44 45 35 30 23 26
47 48 49 49 47 47 48 36 36 44 47 50 54 53 56 47 43 38 36 35 29 36 36 42 60 47 42 52 56 48 37 45 45 56 59 56 37 46 41 44 44 47 36 38 39 30 25
46 47 47 47 44 46 46 36 40 44 49 54 55 59 57 41 37 34 34 30 31 36 35 33 54 58 47 53 61 60 52 46 47 41 50 61 51 37 37 48 50 49 44 41 36 35 23
45 45 45 43 46 44 43 37 41 47 51 59 59 53 44 28 30 22 17 32 33 37 23 28 45 54 60 52 59 62 60 61 58 59 59 59 59 51 39 41 43 48 48 44 42 39 34
43 43 43 40 45 42 36 35 43 47 55 46 47 45 39 37 34 28 30 30 30 26 20 23 18 39 59 58 52 61 61 61 65 63 63 63 73 61 44 40 41 50 51 50 39 35 38
42 42 41 41 42 40 32 36 41 49 51 50 49 43 36 36 34 31 31 24 22 23 19 12 18 21 44 70 48 47 59 49 65 71 72 69 70 70 60 55 39 48 47 45 44 41 37
41 40 39 41 39 35 32 34 43 48 46 44 45 41 39 38 31 32 29 22 20 16 15 12 27 18 20 48 69 46 47 53 56 74 71 69 64 71 53 40 29 42 45 45 49 40 41
40 41 38 39 37 34 31 36 42 49 46 44 47 44 35 38 31 29 25 24 21 18 18 22 16 20 21 22 44 67 37 49 46 65 75 73 67 73 70 53 47 46 43 41 43 43 32
40 41 38 38 36 34 30 36 43 48 47 43 45 43 38 37 32 27 21 23 25 20 17 17 13 18 24 24 33 71 41 29 46 60 71 69 70 71 67 60 55 45 51 39 39 41 37
41 39 39 37 34 33 28 36 43 47 46 41 44 43 38 39 34 30 25 23 23 21 17 16 14 13 13 27 36 58 61 33 37 53 69 72 74 71 64 63 53 49 52 51 42 40 39
38 39 40 40 33 30 26 34 41 46 44 37 41 43 43 36 39 32 28 22 20 19 15 12 9 14 9 15 25 46 67 49 37 48 61 69 71 70 68 58 60 55 59 57 51 42 37
37 40 41 36 30 27 25 31 39 44 39 34 39 42 42 41 37 38 29 25 22 19 15 12 9 11 8 4 15 20 41 42 49 42 60 65 67 67 66 67 56 41 36 51 55 53 50
38 40 38 32 27 26 22 29 36 42 32 33 36 39 41 44 39 35 31 26 23 20 18 12 8 7 11 6 7 15 28 24 31 29 46 57 62 67 60 68 41 47 40 46 52 56 63
36 39 35 29 27 23 22 30 35 38 26 30 33 36 38 38 36 35 32 29 24 23 18 14 7 7 12 12 11 10 24 18 41 28 25 45 53 55 63 63 52 31 44 49 53 55 65
35 38 33 30 25 19 25 31 35 35 25 27 32 32 34 35 32 30 29 28 26 23 19 17 15 5 10 11 14 13 22 17 39 47 31 29 41 46 52 68 60 42 46 54 56 61 54

GFSGBSN_500_spd_039.txt.gz
Wind_Speed
17 18 19 20 21 23 24 25 26 27 28 28 29 29 28 28 27 27 27 26 24 23 24 23 20 19 18 14 22 16 19 16 15 18 21 22 20 18 16 17 17 14 13 6 15 10 8
18 19 19 20 22 23 24 25 26 28 28 29 30 31 32 32 33 32 32 31 28 28 26 25 24 20 16 15 20 18 20 20 18 18 21 24 21 22 24 21 18 19 15 12 9 7 1
20 20 21 22 23 23 25 26 26 27 28 29 29 30 31 32 33 34 34 35 35 32 30 29 28 24 16 24 18 18 23 22 20 20 20 23 27 28 28 26 22 24 19 21 11 7 5
19 19 19 20 21 22 23 23 24 26 26 27 28 29 29 31 31 32 33 35 38 37 37 36 33 29 20 31 21 18 24 26 23 23 24 25 28 30 31 29 30 29 28 26 20 9 10
18 18 19 20 23 24 25 26 27 28 28 29 29 30 31 31 32 33 34 34 36 38 40 41 40 36 29 29 28 28 23 26 27 28 28 28 30 31 35 33 34 35 33 30 26 25 17
19 20 22 26 28 29 29 29 31 32 33 35 35 36 37 40 40 39 39 38 37 37 39 43 43 41 39 35 34 30 28 27 28 31 32 30 31 34 36 38 31 29 31 27 30 19 21
20 23 25 26 29 30 31 34 36 38 37 39 39 42 43 44 44 45 46 47 46 43 40 41 43 41 41 39 38 36 33 33 31 33 31 33 37 30 24 29 30 31 34 29 24 24 20
24 27 30 32 33 34 35 37 40 42 43 45 45 47 51 52 52 51 50 49 53 51 44 46 41 40 37 42 43 39 40 38 36 28 35 40 33 25 25 28 32 36 34 27 23 21 21
28 30 32 36 36 39 41 46 49 51 51 53 56 60 59 59 60 62 61 58 56 54 53 51 50 47 38 47 41 41 44 40 40 34 37 36 22 31 32 30 33 35 35 27 25 23 21
33 35 37 40 42 45 48 51 53 55 58 60 60 61 61 49 48 43 44 48 53 62 53 50 58 56 53 52 49 40 43 45 46 43 36 36 34 37 35 34 31 31 33 31 27 29 25
36 39 41 43 45 48 51 52 54 55 56 54 52 42 33 29 27 31 29 29 32 40 33 32 51 60 59 55 48 43 45 47 48 46 43 35 36 40 39 30 31 27 33 35 32 38 34
44 48 48 48 49 51 53 53 53 51 46 41 40 30 28 36 41 42 38 37 36 35 27 29 48 52 59 64 60 51 46 51 45 50 49 42 38 40 37 33 36 28 33 36 38 46 50
47 50 52 51 51 53 52 50 52 51 37 36 38 34 38 42 53 47 50 43 44 37 29 18 42 52 47 59 59 61 55 52 56 56 57 52 46 43 42 38 38 35 35 37 43 55 51
51 54 53 53 53 51 48 48 48 44 32 38 42 39 50 57 55 52 48 43 39 34 32 24 26 41 40 48 59 66 64 58 54 57 55 54 52 49 46 44 42 37 35 38 40 47 46
52 54 54 49 49 46 44 46 48 31 35 40 43 50 47 46 46 43 40 35 27 30 38 31 31 32 48 47 55 64 65 64 61 52 60 58 55 43 45 44 43 39 45 36 34 32 38
52 55 51 47 46 45 44 47 36 30 35 40 47 41 38 34 34 37 36 32 19 29 36 29 31 36 30 49 51 56 64 67 66 57 44 56 54 49 41 41 46 46 34 39 39 36 34
53 53 47 45 45 42 41 43 30 29 38 44 46 45 45 44 50 35 31 32 29 35 30 31 32 37 43 48 50 54 52 55 65 56 57 57 60 57 41 47 50 50 46 40 36 38 31
54 47 44 43 44 41 39 34 30 32 38 47 45 43 47 44 37 35 30 32 34 37 31 32 36 39 45 50 65 59 55 55 62 60 63 63 64 60 58 52 42 44 49 45 44 38 32
50 44 42 43 42 40 39 33 29 35 39 44 46 41 47 45 45 34 30 28 29 29 24 25 26 32 29 39 64 60 57 52 61 65 65 63 67 63 56 53 49 43 48 49 43 34 37
45 42 40 43 40 40 39 35 29 35 41 48 45 42 44 46 45 37 30 26 22 22 22 20 17 14 27 25 46 65 58 58 61 62 69 72 73 73 63 59 52 49 41 41 47 43 35
40 40 40 40 42 41 39 35 27 36 41 48 42 39 47 47 42 38 33 27 19 22 20 19 22 26 29 22 25 65 64 50 51 64 65 73 74 75 65 59 53 40 44 38 45 44 41
40 38 40 41 43 41 37 32 26 34 41 47 38 40 39 46 43 36 37 27 21 20 22 17 20 18 18 18 16 26 67 43 41 57 69 73 70 76 70 58 50 43 49 42 40 43 41
37 38 40 42 41 39 33 30 27 35 42 43 37 38 41 47 40 38 34 31 24 24 21 20 16 16 12 21 29 21 59 51 30 48 67 75 70 75 70 61 60 52 40 44 31 33 45
35 38 39 41 39 35 30 29 28 34 41 37 36 38 41 42 38 37 32 29 27 23 24 19 16 13 16 18 19 31 64 47 31 47 60 75 73 70 76 63 64 49 43 48 34 25 39
34 36 38 40 37 32 29 26 28 35 38 33 36 38 41 38 35 33 31 30 29 28 20 21 14 16 16 14 17 21 58 34 22 38 58 71 71 67 69 66 65 50 46 43 46 43 45
35 36 37 39 37 32 28 25 30 36 36 31 34 37 38 38 34 30 27 28 29 26 25 18 15 12 5 8 8 7 45 38 30 22 54 63 72 66 72 62 66 56 57 53 52 50 49
34 36 35 36 34 29 23 27 33 36 33 28 33 32 35 36 32 30 26 23 24 25 24 19 6 4 9 10 10 14 22 33 15 20 24 56 70 66 59 64 65 62 63 58 57 54 59
35 33 33 31 28 26 28 32 34 31 26 27 30 31 34 33 34 29 24 18 19 19 19 18 8 4 7 11 8 22 19 39 32 11 21 31 55 64 61 60 64 63 59 67 65 64 65
39 35 31 28 25 27 31 31 28 21 23 24 26 30 33 32 37 33 27 22 15 17 21 19 16 5 6 4 6 15 22 30 35 28 22 30 40 64 69 55 51 54 67 82 72 71 73

GFSGBSN_500_spd_042.txt.gz
Wind_Speed
13 15 16 17 19 20 21 22 23 24 25 26 26 27 28 28 29 29 29 28 26 25 25 23 19 16 13 13 25 18 19 19 16 20 23 23 21 20 14 14 13 13 14 20 6 5 5
13 15 16 17 18 19 21 22 22 23 24 24 25 26 27 28 28 30 31 31 31 31 29 28 25 20 14 18 22 17 21 21 20 19 22 23 23 22 24 21 15 20 22 21 6 4 8
13 14 15 16 17 18 19 20 20 21 21 22 23 23 24 25 26 26 28 30 32 32 33 34 31 24 17 29 21 15 22 24 21 22 21 25 31 30 28 27 24 26 29 26 14 11 12
13 14 14 15 17 20 22 23 23 24 25 26 28 28 27 27 26 27 28 28 30 31 32 35 35 33 23 32 24 20 24 25 25 25 26 26 31 33 33 28 30 31 31 25 20 17 16
14 15 16 18 20 22 23 25 25 27 29 31 32 32 33 33 32 33 32 33 31 32 33 34 35 35 33 35 34 29 26 29 28 29 30 31 32 30 37 35 36 35 28 26 25 19 14
17 17 20 22 24 25 28 29 31 33 34 35 35 37 38 39 39 38 39 41 42 38 39 39 36 35 35 37 37 34 29 33 31 34 36 35 35 33 37 37 34 33 29 29 25 23 20
22 24 26 28 30 32 33 35 37 39 40 42 45 43 44 43 44 46 47 47 46 44 47 45 42 36 35 37 41 42 39 38 38 37 33 36 39 35 25 29 31 36 34 27 26 26 22
23 25 27 29 32 34 37 38 40 42 43 43 44 46 50 50 54 57 58 56 51 49 43 50 48 44 45 45 40 43 46 44 42 35 36 42 37 25 31 31 32 38 36 29 29 25 25
29 30 33 35 38 39 40 41 43 44 46 50 52 55 57 59 59 60 58 57 55 54 52 54 49 52 51 50 43 39 43 44 47 41 42 40 27 33 34 33 34 36 38 33 25 30 29
34 36 39 40 40 41 43 46 49 51 53 57 59 57 59 44 46 36 37 37 41 42 46 51 49 49 54 57 54 50 49 47 50 48 46 43 35 40 39 37 34 35 30 35 30 37 37
35 37 38 42 44 47 50 52 53 52 55 56 54 51 42 33 24 31 36 40 40 35 39 43 41 42 47 59 64 59 58 56 51 53 53 44 40 42 44 35 35 26 34 38 31 40 41
35 39 42 45 49 51 53 52 53 53 50 50 46 36 31 27 35 31 41 37 43 43 42 42 38 37 42 51 63 65 65 62 57 53 56 51 47 46 41 36 38 34 37 41 40 47 52
39 43 44 48 51 52 51 52 48 49 46 38 33 32 33 34 33 43 43 39 35 37 41 43 38 35 38 46 56 58 69 68 64 63 62 58 56 50 43 43 44 41 41 46 51 57 58
42 43 46 50 53 52 50 48 45 43 40 28 29 30 39 36 39 41 45 40 34 31 25 34 37 37 34 45 49 52 63 68 73 69 66 61 61 56 49 49 42 42 46 47 50 52 45
45 46 48 52 52 50 47 45 41 38 32 27 33 35 41 39 37 40 43 38 35 37 32 34 32 43 42 41 49 50 54 59 67 74 73 66 64 55 52 47 46 42 49 39 42 46 46
48 48 50 52 50 46 45 44 39 33 28 29 33 39 41 38 36 41 45 35 34 33 32 30 27 36 45 48 37 50 61 55 55 68 77 73 72 61 56 47 48 47 39 41 45 44 47
48 45 50 51 45 43 45 42 38 32 31 31 36 41 40 35 41 42 39 30 30 30 29 26 30 35 35 46 49 42 60 55 56 64 72 74 74 66 48 59 52 52 50 45 40 43 43
45 46 52 47 42 42 42 40 38 35 27 31 37 42 39 37 40 39 35 30 31 30 28 27 31 36 35 39 43 49 53 60 58 57 62 69 75 72 67 53 55 47 52 47 43 45 39
42 49 46 43 41 42 41 41 39 33 24 28 36 41 35 37 37 36 32 29 29 29 26 26 28 33 34 38 43 47 50 55 53 56 61 66 74 71 66 60 57 55 53 49 45 38 40
47 46 41 40 40 41 40 40 36 31 24 30 39 38 36 36 39 38 29 26 27 27 24 24 22 25 26 29 37 49 54 61 55 61 64 64 72 73 72 67 57 60 57 55 51 48 39
46 41 39 37 40 40 38 37 32 30 27 33 39 33 37 40 36 36 32 25 24 24 22 22 22 21 25 24 31 31 33 54 73 39 68 66 69 72 74 71 65 60 59 54 52 51 46
38 37 35 37 40 39 38 34 29 27 29 36 38 32 34 42 43 37 31 26 25 24 22 21 26 22 25 25 28 29 28 41 67 31 44 69 66 71 72 68 65 58 54 49 45 42 43
34 35 35 37 39 39 38 30 27 24 31 37 38 30 36 39 41 39 32 26 24 24 21 22 26 21 19 19 21 17 31 24 63 38 32 68 67 72 70 68 64 54 54 51 43 31 34
33 33 35 36 36 36 33 25 22 27 34 39 36 33 36 37 40 39 33 25 24 24 23 23 22 15 15 17 24 18 22 43 54 28 33 58 70 72 63 68 65 57 45 51 49 39 33
34 34 35 32 34 31 28 24 27 34 37 35 31 35 38 38 37 38 34 26 22 22 20 23 16 16 15 13 15 13 12 49 52 30 44 53 66 72 60 67 67 61 53 52 55 49 43
36 37 35 32 33 28 27 28 33 35 31 26 31 35 37 37 38 37 36 30 23 19 19 20 5 4 6 13 4 10 11 26 41 28 36 50 63 71 65 64 68 66 57 48 53 52 46
40 39 35 30 25 24 26 31 29 23 21 24 29 32 33 34 37 39 37 33 25 22 22 18 6 10 10 10 10 25 18 22 16 29 21 52 60 69 72 70 68 68 59 52 59 60 53
35 32 27 21 19 23 28 22 22 21 21 24 26 30 33 34 36 35 35 33 28 22 21 19 9 7 10 10 15 25 27 19 14 20 27 56 63 67 70 76 65 73 66 52 63 63 60
28 26 25 24 25 26 23 22 21 20 21 21 25 29 32 35 37 39 40 38 33 27 22 18 14 5 6 7 9 20 36 26 20 15 20 36 62 66 69 77 75 66 69 48 68 63 59

GFSGBSN_500_spd_045.txt.gz
Wind_Speed
13 13 14 15 16 16 17 18 19 20 20 21 22 24 24 25 26 26 27 27 28 27 26 25 22 18 16 19 22 19 20 21 19 20 24 24 21 18 14 16 15 15 17 11 8 7 4
11 12 13 13 15 16 16 17 18 19 20 20 21 22 23 23 24 24 25 26 27 28 28 30 28 22 20 26 23 18 22 23 24 21 22 23 25 26 26 20 17 22 19 16 17 12 12
12 12 13 14 14 15 17 18 20 21 22 22 22 23 24 24 25 25 25 25 25 26 28 29 29 28 25 33 26 22 23 26 25 26 23 25 32 31 28 25 29 28 24 22 22 14 22
12 13 13 15 17 18 20 21 22 23 24 26 28 29 29 30 29 30 29 28 27 27 29 29 29 28 28 34 33 31 29 26 28 30 30 32 32 34 35 32 32 30 29 27 28 21 19
15 17 18 19 21 23 25 26 26 27 29 30 31 34 34 33 34 34 35 37 36 36 36 32 31 30 32 33 39 33 32 33 32 32 34 36 35 33 37 38 37 37 29 26 30 27 28
17 19 20 21 23 25 26 28 29 32 32 33 35 37 38 38 38 40 40 36 38 41 44 42 38 36 36 34 37 38 37 39 37 36 38 38 36 35 37 38 35 33 29 28 28 23 29
22 21 23 25 28 31 32 35 36 37 38 39 40 40 38 40 41 42 42 44 46 46 50 47 45 45 43 41 38 40 41 46 45 44 38 37 40 37 27 27 31 33 33 29 26 29 33
28 28 29 32 33 33 33 34 35 35 37 39 41 44 46 46 47 49 50 51 50 51 47 48 49 49 50 48 47 47 44 48 51 46 43 44 40 27 32 35 33 36 36 29 26 34 37
28 29 30 31 32 33 33 35 37 40 43 45 47 48 50 52 54 56 56 53 51 55 53 52 50 48 49 53 53 54 52 51 52 52 50 47 30 33 38 39 37 37 36 31 24 34 34
30 30 32 32 33 35 38 42 45 46 50 52 52 51 51 50 49 42 38 28 29 36 44 47 49 49 47 50 59 53 57 57 53 54 54 54 41 42 41 42 38 38 27 32 32 37 37
32 33 36 37 39 41 43 44 46 48 51 54 52 48 49 44 35 23 23 23 32 32 39 40 39 46 49 49 53 48 56 62 60 57 61 59 49 50 46 39 39 26 33 35 37 40 40
37 38 39 41 44 45 46 47 50 50 49 54 49 43 37 33 25 24 23 27 29 38 38 36 38 37 41 44 48 48 50 63 66 64 62 60 55 55 45 39 42 35 36 39 43 46 54
42 43 43 45 47 44 46 49 50 49 46 48 42 36 32 30 28 30 31 31 35 38 37 41 42 40 35 42 45 42 50 55 69 69 65 65 63 60 54 48 47 45 47 46 51 58 59
44 44 44 46 42 43 48 50 46 45 43 41 38 31 28 31 32 33 31 31 38 41 41 39 39 39 35 38 47 46 45 54 66 73 69 71 68 66 61 56 52 52 52 56 56 57 55
43 44 47 46 42 45 48 45 40 42 41 37 35 32 30 34 34 31 31 33 37 42 37 37 36 38 42 42 48 47 49 53 59 72 75 74 70 69 66 57 52 53 57 48 50 52 50
40 44 46 44 46 48 46 42 41 41 40 37 33 29 31 35 37 29 33 37 39 40 37 35 34 38 40 41 48 50 49 55 58 60 75 77 72 71 67 58 53 51 49 50 54 53 56
43 46 49 47 46 44 43 40 41 39 39 36 33 24 31 38 34 34 36 37 40 39 36 33 33 35 33 36 45 52 50 59 59 58 63 77 76 69 68 67 57 55 56 53 47 51 50
45 51 50 46 41 40 38 40 42 38 37 32 27 27 32 39 33 35 38 39 40 37 33 29 30 28 29 32 38 41 53 52 54 65 57 71 80 70 68 63 60 59 58 54 54 54 53
50 51 51 42 37 35 37 39 41 37 32 27 23 31 36 35 32 35 37 40 38 35 29 25 26 25 26 29 31 33 39 53 54 54 58 55 78 72 62 63 68 64 60 55 51 48 50
51 55 47 36 32 34 37 39 39 33 28 23 26 34 39 36 35 40 37 37 34 34 25 24 23 25 27 26 27 31 33 40 55 47 56 54 57 74 67 66 69 68 61 60 58 52 48
52 49 34 31 31 33 36 37 33 25 23 25 31 35 37 37 39 39 38 37 32 28 25 26 23 22 26 24 26 29 30 32 47 57 54 59 60 68 74 67 65 68 62 59 62 56 51
51 39 30 30 33 31 34 32 26 23 25 31 36 35 32 38 39 37 36 35 34 27 23 25 23 24 27 24 26 30 34 33 37 56 57 55 55 66 72 66 62 66 62 62 61 58 50
36 32 33 33 33 30 32 27 24 26 32 34 30 29 32 35 33 33 34 35 32 28 22 22 22 27 29 25 20 18 20 24 33 53 61 69 49 67 65 69 62 60 67 65 59 58 50
36 37 37 36 33 30 28 25 25 29 32 27 26 28 31 34 36 34 35 33 27 24 23 18 19 16 21 20 17 20 22 20 27 54 62 59 41 69 60 62 67 63 62 63 61 59 54
37 36 33 29 27 22 20 22 28 24 21 22 25 29 33 34 34 33 33 32 23 21 20 17 5 15 17 16 20 20 19 17 25 53 39 55 48 62 58 58 63 60 66 59 61 61 53
30 28 28 27 25 24 23 22 19 21 20 21 24 28 29 33 35 35 34 32 25 19 21 17 4 11 18 14 12 12 13 17 8 41 47 45 41 56 57 61 66 53 62 58 59 60 55
27 29 28 26 25 23 22 22 21 21 18 19 24 25 29 31 40 39 35 31 26 21 20 17 11 9 13 14 5 7 4 7 12 43 42 24 44 59 59 61 66 51 62 60 57 59 57
29 29 26 27 24 22 21 22 21 18 19 21 24 26 28 34 43 43 35 33 31 29 20 17 9 8 14 9 14 24 20 27 24 39 35 27 43 56 63 62 62 55 60 61 62 61 58
27 27 25 25 23 20 23 22 21 20 20 22 27 31 34 37 41 44 42 41 37 31 27 17 14 5 9 8 13 27 29 29 24 21 15 31 49 53 63 64 64 51 59 62 56 61 60

GFSGBSN_500_spd_048.txt.gz
Wind_Speed
12 13 14 15 15 16 16 17 18 18 19 20 21 21 20 21 21 21 22 23 24 25 26 26 25 21 21 23 17 19 20 21 21 19 22 23 19 18 17 17 17 14 14 15 8 16 12
11 12 13 14 14 14 15 16 17 16 16 17 18 18 19 19 21 20 21 21 22 23 24 25 26 25 27 28 24 21 21 22 24 22 21 26 27 27 26 21 21 22 20 18 12 15 8
10 10 11 12 13 15 16 17 18 19 21 21 21 22 23 24 25 24 24 23 23 23 24 24 24 23 26 30 31 26 26 25 25 28 26 28 33 33 29 26 29 25 21 19 19 19 12
14 15 16 18 19 20 21 22 23 24 25 25 26 26 26 27 28 30 31 30 31 30 28 26 25 26 25 28 30 32 30 28 28 29 31 31 32 36 35 31 32 28 26 22 21 22 13
15 18 19 19 20 21 24 26 27 27 29 29 30 31 30 32 33 32 32 32 34 37 36 34 32 31 32 30 31 31 34 34 33 33 33 36 35 33 37 37 37 36 26 25 25 25 12
20 22 24 25 26 27 28 27 26 26 27 29 31 32 34 34 34 34 33 35 36 36 37 42 39 38 38 37 37 35 33 38 39 39 38 35 36 35 35 39 40 33 26 29 29 28 24
27 27 26 25 26 27 28 30 31 30 29 29 30 32 33 33 33 35 38 39 40 40 42 42 45 47 45 44 43 42 40 39 43 45 42 39 36 34 25 30 31 33 34 31 28 30 30
28 28 29 29 30 32 33 33 33 33 33 33 33 36 36 39 41 40 41 42 44 42 45 45 44 48 52 53 51 50 47 46 45 45 48 47 38 25 37 35 32 34 36 35 32 35 35
30 31 32 31 32 33 33 34 35 36 36 36 40 43 44 46 46 48 48 48 47 47 43 40 42 45 46 52 51 55 55 52 50 49 49 51 37 37 39 40 40 38 35 33 31 37 38
31 31 32 33 35 36 37 40 41 39 39 41 44 46 47 47 46 43 45 44 39 37 42 41 38 39 40 42 48 50 56 57 56 54 51 54 47 48 44 42 42 42 33 32 36 39 42
34 36 37 38 38 38 42 42 39 39 40 44 45 46 46 44 43 36 34 35 31 29 39 36 35 31 28 34 40 45 46 54 55 58 59 55 50 56 50 40 42 35 38 38 39 43 42
40 40 39 40 38 41 43 42 39 42 44 45 46 44 42 41 37 31 26 27 30 31 36 36 34 34 32 33 34 35 44 45 52 57 62 60 55 56 56 48 46 36 44 43 45 46 56
41 40 40 40 40 42 44 42 43 46 45 45 45 39 37 34 33 27 25 28 30 31 38 39 40 37 37 38 38 40 36 46 48 55 62 65 59 61 60 56 50 49 48 50 51 57 58
40 39 40 43 43 45 48 45 45 45 42 41 42 38 34 33 31 24 26 25 31 31 34 35 38 40 38 39 40 42 43 42 49 49 56 66 66 65 63 61 56 53 54 57 59 59 56
40 41 43 41 43 45 45 42 42 41 38 38 38 37 34 30 27 23 29 32 33 34 35 37 38 39 40 41 42 43 47 45 48 52 52 60 69 68 64 63 62 60 60 54 55 55 54
43 43 43 44 46 47 45 44 35 33 36 37 35 31 30 26 22 27 33 33 33 35 37 38 39 39 40 41 42 42 45 48 46 53 57 56 67 71 67 66 64 63 57 56 60 59 57
44 44 45 44 46 47 46 40 29 34 36 34 31 30 22 19 26 33 35 32 35 39 40 41 37 37 39 39 40 42 45 47 48 48 58 58 61 69 69 67 64 63 65 61 55 56 58
45 44 45 48 46 44 35 27 29 34 34 30 25 20 21 27 33 35 33 34 40 40 40 38 35 35 38 38 40 42 46 45 47 50 54 64 61 61 71 65 63 67 63 64 65 63 60
47 46 47 47 38 28 25 28 31 31 25 18 17 21 27 32 34 30 32 36 39 38 37 34 33 35 36 35 36 37 39 40 46 47 53 63 63 59 64 64 62 66 67 64 65 62 62
47 46 42 36 30 28 28 29 30 26 19 17 21 29 32 29 30 31 30 31 33 35 33 31 31 33 32 30 31 33 32 32 32 32 42 57 64 57 60 65 70 68 70 66 67 64 61
42 36 37 36 34 31 30 29 27 22 20 22 28 29 29 32 34 34 31 31 29 29 31 31 31 29 29 30 30 31 34 33 28 29 32 43 60 59 54 61 68 64 68 66 69 63 62
36 37 38 36 33 31 29 27 23 20 23 30 27 24 25 29 36 39 37 34 32 31 27 26 25 25 27 28 30 31 33 34 31 24 31 38 47 55 53 53 64 67 67 67 67 64 62
34 32 32 31 30 27 23 19 19 22 26 20 19 19 22 28 36 36 33 30 29 28 23 24 23 23 22 25 29 30 36 32 29 28 28 37 45 47 44 50 63 64 65 69 67 64 61
31 33 33 32 30 29 27 24 21 20 20 19 15 18 22 29 32 29 27 26 28 28 24 21 18 19 13 17 20 26 27 29 26 21 27 35 45 43 45 43 65 64 64 67 69 66 59
34 34 33 33 30 28 26 25 22 20 18 16 20 22 23 29 30 32 30 29 29 27 22 20 16 11 14 21 19 16 20 27 26 26 25 34 43 41 49 45 61 65 65 63 68 67 60
33 36 34 30 27 27 27 24 21 17 18 22 23 24 25 29 34 41 40 32 27 24 17 17 11 11 16 16 17 14 11 15 22 24 24 33 37 40 44 43 46 66 66 62 66 64 60
34 33 30 27 25 28 24 22 19 20 21 24 28 29 29 34 40 46 49 40 31 22 14 19 16 19 17 21 12 9 6 5 10 12 25 35 38 37 44 40 40 53 68 58 61 58 60
36 29 25 22 26 24 21 21 19 20 23 23 26 29 32 35 41 47 52 53 39 34 14 21 19 19 25 18 15 13 13 7 8 25 33 33 32 37 38 48 47 46 65 61 60 57 53
34 27 23 20 25 22 23 20 19 19 18 24 25 25 31 36 40 44 48 51 50 48 27 18 15 21 25 32 29 26 26 24 29 31 27 20 27 40 45 48 52 51 56 65 55 54 50

GFSGBSN_500_spd_051.txt.gz
Wind_Speed
12 13 13 13 14 14 15 15 15 16 16 16 16 15 16 16 15 15 16 17 18 20 21 21 21 22 24 22 19 18 17 17 18 18 20 23 20 21 20 17 17 16 18 17 13 14 9
12 12 12 12 13 13 14 15 15 15 16 17 17 17 17 18 18 17 17 17 17 17 18 18 18 20 22 25 24 23 21 20 18 20 22 25 28 27 26 23 21 21 19 16 14 13 12
11 11 11 13 14 14 15 17 19 20 21 21 21 20 21 22 22 22 22 22 22 20 20 20 18 18 20 22 24 26 26 25 23 21 23 25 31 29 27 26 27 23 21 19 16 18 13
16 17 18 20 20 20 21 22 23 23 23 22 23 22 22 23 24 25 26 27 27 26 25 25 25 24 22 23 22 23 27 29 27 26 24 28 29 34 32 28 29 24 23 22 21 20 15
21 24 25 26 26 26 26 25 25 24 24 24 25 25 23 22 25 27 29 29 30 31 30 28 28 29 29 27 27 27 25 27 33 31 30 29 31 31 35 33 34 30 21 22 23 23 20
25 26 27 27 28 27 27 27 27 28 30 28 28 27 26 25 25 27 28 28 29 31 33 35 33 32 33 34 33 33 32 30 31 36 37 34 29 31 31 35 35 29 24 24 24 24 25
27 28 29 30 30 31 30 30 30 30 31 31 31 32 31 29 28 29 29 31 30 30 31 35 36 38 38 38 38 39 36 37 36 36 38 39 35 24 27 29 30 32 31 31 28 28 28
31 31 31 31 30 31 30 30 31 31 31 32 34 35 37 35 35 36 36 35 35 34 33 33 35 38 41 44 43 44 45 44 42 40 40 40 39 30 32 35 34 34 34 35 34 33 32
34 35 36 35 35 36 35 35 33 34 35 35 32 33 34 34 35 36 36 36 37 38 38 40 37 36 37 40 42 45 46 47 48 47 45 43 35 41 38 37 38 37 35 36 37 39 36
36 37 36 35 35 36 37 36 36 35 36 35 33 35 35 35 36 37 37 38 39 42 39 39 36 32 36 38 41 42 44 47 48 50 51 51 43 45 47 43 40 42 33 36 39 42 40
39 37 37 37 35 35 36 35 35 36 38 39 37 38 37 39 37 38 37 37 36 37 38 37 32 28 27 35 39 39 44 44 48 51 56 55 48 49 50 45 45 37 42 40 42 46 46
41 39 38 38 39 39 39 37 38 39 38 38 38 37 36 36 36 34 34 33 32 33 32 31 29 27 29 29 30 35 37 42 44 49 55 58 55 55 55 51 50 42 47 46 48 51 60
40 41 43 42 41 41 41 39 39 42 37 37 38 37 34 35 34 32 32 27 30 29 28 27 28 30 31 31 33 33 36 36 40 44 48 57 58 60 61 55 56 52 53 52 53 59 60
43 42 42 42 42 42 42 41 41 41 38 37 37 34 34 32 30 25 26 27 26 25 29 29 30 32 32 34 37 38 40 42 42 40 39 48 55 65 64 61 60 57 57 59 58 57 55
46 45 44 43 41 40 40 40 37 35 33 29 30 32 30 28 25 24 23 21 24 28 33 36 35 36 36 38 40 42 43 44 46 46 46 40 52 59 64 65 62 60 64 56 57 55 56
50 48 47 46 43 41 40 36 33 28 25 27 28 29 25 22 15 14 18 23 31 34 33 34 35 39 43 44 46 48 47 47 48 48 50 49 44 56 59 66 65 61 61 65 61 61 63
46 43 41 41 40 37 31 26 22 23 25 27 27 18 11 13 17 21 26 32 35 36 36 37 40 43 46 46 47 47 46 47 48 48 48 50 49 49 56 60 63 65 67 68 64 62 64
46 45 41 38 35 33 28 24 21 24 23 20 11 11 13 18 24 26 28 31 33 35 38 42 43 44 42 41 43 43 42 44 45 46 46 49 52 51 55 53 59 66 67 66 69 68 66
43 39 38 37 35 35 33 30 24 26 21 15 14 17 21 23 23 25 29 30 31 32 35 38 40 40 40 39 40 39 40 38 40 41 44 45 51 54 45 48 51 64 69 69 70 72 72
39 34 32 33 33 32 31 29 25 21 18 15 17 23 18 18 20 26 29 29 28 27 28 32 35 38 37 33 33 35 34 35 36 38 39 42 45 52 53 48 55 59 67 67 70 72 71
33 34 36 36 34 33 31 28 25 18 16 18 21 16 14 20 26 28 28 28 27 26 29 35 34 28 23 25 27 30 32 34 34 35 35 38 43 49 54 52 55 60 67 71 72 71 73
36 35 37 37 33 31 29 26 22 20 18 15 14 14 17 23 25 26 27 22 21 26 34 34 28 23 24 24 24 27 30 31 35 35 37 35 39 47 54 54 56 59 65 71 72 73 74
34 37 37 35 31 29 27 25 22 18 18 17 16 16 20 23 27 31 31 36 29 30 32 29 22 22 20 20 19 20 25 31 35 37 33 35 39 45 47 49 56 58 60 66 72 72 72
33 33 34 31 28 32 28 23 21 20 18 18 17 18 21 24 29 34 39 43 36 33 28 23 18 14 11 9 17 25 31 33 33 32 32 33 29 36 34 46 55 49 57 63 68 68 69
36 31 31 28 32 30 25 22 21 19 21 23 20 20 25 28 31 39 44 47 35 28 18 12 11 12 14 19 19 20 19 22 23 24 26 22 27 31 35 41 51 45 59 63 70 66 66
36 31 28 28 33 25 20 18 18 19 21 21 22 27 28 31 38 43 47 47 28 19 19 21 20 21 17 14 14 18 13 14 13 23 26 26 22 35 33 39 39 47 56 58 67 63 59
31 29 29 26 28 26 22 19 18 19 25 26 26 29 31 33 40 44 50 47 25 27 26 24 26 22 18 15 12 9 6 7 12 12 23 22 30 36 35 43 35 36 54 57 58 60 57
27 28 25 27 22 23 24 20 21 24 25 27 28 30 31 32 39 44 48 42 31 27 25 23 27 20 20 20 19 13 9 9 11 1 16 23 34 33 32 41 36 40 56 59 56 59 57
24 28 21 23 23 21 20 20 20 24 26 28 30 32 32 31 37 41 43 37 26 28 19 22 26 27 25 23 17 16 15 19 25 22 21 21 25 29 23 33 38 32 54 59 57 56 52

GFSGBSN_500_spd_054.txt.gz
Wind_Speed
12 13 14 14 15 15 15 15 15 16 16 15 14 15 15 15 14 15 16 16 17 16 15 16 19 19 21 21 20 16 15 14 14 16 18 23 21 21 21 20 18 17 17 16 6 13 10
12 12 12 11 12 13 13 13 13 14 15 16 16 17 17 17 17 16 17 16 16 16 15 14 15 16 18 20 21 22 20 19 16 15 19 22 26 24 24 24 21 19 16 16 13 13 12
14 15 15 17 18 20 21 20 20 20 20 20 19 18 18 18 18 19 19 19 18 18 18 18 18 17 17 17 18 19 23 24 21 19 18 23 24 26 24 26 24 20 17 17 15 17 13
19 20 21 22 24 24 25 26 26 24 23 22 22 21 21 20 21 20 21 21 21 21 21 21 21 21 22 20 20 19 19 23 24 24 23 21 24 26 28 24 24 20 19 16 20 21 17
22 23 24 26 27 28 28 27 26 26 26 25 26 27 26 25 24 25 24 23 22 22 24 25 24 23 23 24 24 24 22 22 23 25 26 25 23 25 26 28 29 21 18 20 18 18 19
25 26 27 28 29 30 31 31 31 29 29 29 30 30 28 27 28 27 26 26 25 24 25 26 26 27 29 28 27 28 29 27 25 26 26 29 27 23 26 25 27 25 24 23 24 23 22
30 32 32 33 34 33 32 30 31 30 30 31 32 33 31 30 30 32 32 34 32 30 30 30 29 28 29 30 31 32 32 32 33 30 30 28 29 24 24 26 29 31 31 28 28 30 29
33 32 33 34 34 35 34 35 35 34 33 32 33 35 35 34 33 33 34 36 38 37 34 34 34 32 31 31 34 37 38 38 37 37 35 34 28 29 33 31 33 30 32 32 36 33 32
40 38 36 35 35 35 35 35 35 35 33 31 28 29 30 31 32 33 31 31 32 31 31 32 32 33 33 35 36 37 40 43 44 44 41 39 35 35 34 35 35 35 33 38 38 40 35
38 37 36 35 34 34 34 35 35 35 34 35 33 32 32 32 33 32 33 32 31 30 31 32 32 32 32 34 37 38 40 41 44 46 47 48 43 42 38 40 40 38 34 39 43 42 38
39 40 41 39 39 39 38 37 37 36 35 32 31 31 29 31 32 32 32 30 30 32 31 34 33 29 33 35 38 40 41 41 42 45 49 51 48 48 45 42 45 39 41 44 45 44 44
41 41 43 43 42 40 40 40 39 38 36 36 35 31 32 33 32 32 30 29 28 29 34 30 31 29 30 33 37 40 41 43 43 45 46 50 53 55 53 50 49 45 48 44 46 50 55
46 43 41 40 41 40 40 40 39 38 35 35 33 32 32 33 30 30 29 26 27 29 28 29 28 26 28 29 32 33 35 38 40 42 44 47 51 56 59 58 55 52 53 50 52 56 59
44 42 43 44 41 38 36 34 34 33 33 33 31 30 25 25 26 27 23 21 23 28 27 28 27 28 30 29 29 29 30 33 34 35 39 44 45 51 59 61 60 58 57 57 56 56 57
44 43 45 45 40 37 35 32 30 29 28 27 24 23 24 24 22 19 19 21 22 22 23 26 30 31 34 36 37 36 36 38 37 37 39 43 40 47 55 62 63 61 64 56 48 48 51
45 45 44 39 34 33 32 30 27 24 22 21 20 21 22 16 11 9 10 15 18 22 26 31 34 37 38 41 38 41 43 42 43 44 43 45 42 46 50 52 60 62 58 61 62 57 63
43 40 35 30 32 33 33 31 27 25 23 19 17 12 7 5 8 13 17 20 25 28 30 32 33 37 38 43 46 47 49 52 50 50 50 50 50 49 49 49 53 63 65 53 57 67 65
37 34 32 34 34 32 32 31 29 22 18 12 11 9 9 13 15 15 18 21 24 27 29 32 34 38 42 46 48 50 53 54 53 51 51 51 52 52 51 51 51 60 51 65 48 63 69
34 33 34 35 33 30 30 29 25 21 11 11 11 12 15 10 10 13 15 17 17 19 22 25 30 33 38 41 45 47 49 51 49 50 51 51 52 53 53 52 51 50 54 64 58 49 57
34 32 35 36 32 30 28 27 22 19 17 14 12 9 10 12 13 16 19 22 23 25 28 30 33 35 36 39 41 44 40 42 41 44 47 48 48 53 53 41 50 55 58 66 70 66 66
34 34 34 33 30 33 28 25 21 20 17 15 12 11 12 14 17 19 22 25 28 29 31 35 38 35 30 24 25 26 29 30 33 36 38 42 43 48 54 50 50 57 57 64 69 76 74
34 34 31 32 33 31 29 23 19 19 18 16 13 13 15 19 21 24 27 32 34 33 32 32 32 27 21 18 19 20 21 23 27 29 32 37 38 41 47 48 51 54 56 58 67 74 78
34 33 29 31 35 29 24 21 21 23 21 17 18 20 21 24 27 29 33 32 28 20 19 20 18 14 16 16 16 16 17 21 23 25 28 30 35 39 42 42 52 58 59 55 62 67 74
30 34 28 29 33 27 22 20 21 22 22 22 24 26 27 28 29 32 31 23 15 19 22 23 23 18 18 13 12 16 21 24 28 29 31 34 36 37 39 38 48 56 52 55 58 63 66
26 31 29 27 27 28 22 20 22 23 26 24 25 28 26 28 30 30 25 19 19 24 27 26 24 25 22 20 19 21 22 24 24 23 29 31 33 35 37 32 40 45 52 59 57 60 70
24 27 24 26 24 25 21 20 21 24 23 24 26 27 25 26 31 31 20 16 20 21 24 28 29 25 27 22 19 17 16 16 15 20 20 27 31 35 30 33 35 44 46 58 55 59 64
23 23 23 22 23 22 21 20 22 24 26 26 28 27 23 26 28 25 16 22 21 20 23 26 30 25 26 25 20 18 12 12 11 13 13 23 27 25 27 32 32 34 43 50 54 57 58
23 20 24 19 22 23 19 19 21 24 25 27 28 26 23 21 23 25 14 21 28 22 23 27 28 27 26 25 23 18 16 13 8 5 8 19 20 22 27 36 40 35 32 52 50 54 52
21 23 21 23 22 22 22 21 21 23 25 27 26 23 22 16 23 20 26 23 28 24 24 27 28 32 30 25 21 17 12 9 10 9 7 11 15 22 29 33 27 24 29 40 46 42 44

GFSGBSN_500_spd_057.txt.gz
Wind_Speed
13 14 15 16 16 16 16 16 17 16 16 16 16 17 17 17 18 18 18 18 17 17 18 18 18 20 19 20 18 17 15 14 12 17 18 20 19 19 18 19 15 14 16 12 7 13 7
14 14 15 16 17 18 18 18 18 18 19 18 17 18 19 19 18 19 19 19 18 18 17 17 16 17 18 17 18 20 20 18 16 15 18 19 22 21 20 21 19 16 16 16 13 12 12
18 19 20 20 21 22 23 23 24 25 25 25 24 22 21 20 20 19 20 20 20 19 19 19 19 18 17 15 15 18 20 21 21 18 17 19 21 22 22 21 19 16 15 16 17 13 14
20 21 22 23 25 25 26 26 26 26 27 26 25 23 23 22 23 22 22 21 21 21 21 21 21 21 20 19 18 17 18 19 20 23 22 19 19 22 21 24 19 17 17 16 16 16 16
26 28 29 30 30 31 32 33 32 31 29 29 30 29 28 27 27 27 27 26 25 24 23 23 23 24 24 23 22 22 20 19 19 20 23 23 20 20 23 21 24 20 17 18 18 20 16
29 30 31 31 31 33 33 33 33 33 34 33 32 31 30 30 29 29 29 28 27 26 25 24 23 23 25 26 26 25 25 24 23 23 21 22 24 21 21 23 19 22 22 18 20 18 18
36 36 35 34 34 34 34 34 35 36 35 37 37 35 33 32 31 31 31 31 32 31 30 29 29 28 28 28 28 30 30 28 27 27 26 24 23 21 22 21 23 25 21 24 18 27 23
35 36 36 36 36 34 33 33 33 34 34 34 35 37 38 36 35 35 34 34 34 35 36 37 37 35 34 33 32 31 31 33 32 29 30 30 25 23 28 29 29 31 32 28 25 29 24
37 38 37 38 38 39 37 36 34 33 33 33 33 33 33 33 33 34 33 33 33 34 36 35 37 38 37 37 37 34 33 35 34 36 35 33 32 32 30 31 33 32 31 32 29 29 34
44 42 39 39 40 39 39 40 38 37 35 36 34 33 34 33 33 33 32 32 33 35 35 37 35 35 34 35 37 36 37 37 38 39 40 40 39 38 37 35 34 35 31 35 41 35 30
44 42 43 39 38 38 39 36 37 38 37 35 33 33 33 32 31 30 30 32 33 35 31 40 37 35 33 36 36 36 38 38 39 40 43 41 44 44 43 41 39 38 37 38 42 47 42
43 44 44 44 41 43 42 38 34 32 33 33 31 29 30 31 31 30 30 30 30 30 29 38 36 33 33 35 37 36 38 40 40 41 43 44 47 47 49 49 44 43 43 45 45 46 53
44 46 47 47 46 42 36 32 30 28 29 28 29 29 27 28 29 29 29 28 27 27 34 40 37 32 34 37 36 38 39 40 40 42 44 44 47 49 50 53 53 49 48 48 49 50 52
47 50 48 43 34 31 32 31 30 26 23 23 25 26 26 26 24 23 22 23 24 28 35 32 30 30 29 34 35 35 37 37 42 46 42 44 32 49 50 52 54 58 53 52 48 44 48
48 44 39 35 32 34 31 33 31 28 25 20 18 17 17 18 19 20 19 18 19 29 25 24 27 29 30 31 32 31 35 38 47 41 43 40 42 33 52 55 52 54 58 54 38 34 38
44 39 37 35 37 31 30 31 30 29 27 17 14 11 11 9 8 9 10 12 12 15 14 18 21 26 29 35 34 37 38 44 44 38 40 41 43 38 45 52 53 53 47 51 51 45 44
38 37 34 36 36 29 29 28 27 28 21 8 6 3 5 5 2 2 6 10 15 17 20 24 29 33 37 38 43 40 42 46 46 44 45 44 44 41 43 47 47 48 54 52 40 51 45
36 35 34 36 32 32 30 27 23 21 21 14 9 5 6 5 2 2 5 8 10 11 14 20 25 31 37 40 42 46 43 48 52 51 49 49 49 46 45 43 47 46 36 46 47 43 51
35 35 34 33 32 30 29 24 22 16 14 13 12 11 11 9 8 7 8 9 11 15 18 20 25 29 33 39 43 46 48 50 57 56 53 55 55 53 51 51 53 53 51 50 44 47 46
33 35 32 31 32 28 26 21 19 19 18 16 16 15 14 12 11 11 14 17 19 21 24 27 30 33 35 37 38 40 44 44 54 50 56 52 52 53 51 32 41 47 52 48 44 48 54
31 35 30 29 32 26 22 21 20 18 17 16 15 14 13 14 15 17 21 22 21 23 21 15 17 21 23 24 22 27 33 35 41 40 43 44 47 48 54 52 54 57 56 54 53 54 62
29 32 30 27 30 24 21 20 21 21 19 18 17 17 16 17 19 20 19 17 15 11 11 14 18 21 27 28 25 20 25 28 32 34 35 37 40 43 51 51 59 58 63 62 62 60 65
28 27 28 25 26 24 19 20 21 23 20 18 20 21 20 21 22 20 14 11 6 6 8 15 17 22 23 23 25 24 21 24 26 27 27 31 35 36 39 36 47 57 56 57 59 61 62
30 23 24 23 23 22 20 18 17 18 19 20 20 22 21 21 21 13 9 4 5 7 12 16 19 24 26 20 20 22 24 23 24 23 26 26 29 33 35 31 35 44 49 59 58 63 64
29 19 22 20 22 22 19 18 20 20 23 21 23 23 22 20 15 10 6 7 12 18 20 22 26 29 22 17 15 18 14 14 17 22 29 30 33 33 36 39 33 33 36 55 66 67 60
26 18 22 18 22 21 20 20 20 21 22 23 23 22 19 18 12 10 11 16 25 19 21 23 29 22 17 15 14 13 11 14 19 19 17 20 26 32 39 41 36 23 43 46 59 64 56
25 21 20 21 20 20 21 22 22 23 23 23 22 20 14 13 14 15 17 20 28 24 21 24 21 20 19 22 19 10 11 12 15 16 17 18 22 27 31 41 35 42 42 46 55 61 64
24 22 22 22 22 23 21 21 23 21 19 21 23 23 19 13 13 12 18 21 23 23 21 21 22 20 22 23 22 11 10 9 10 7 9 17 17 17 22 31 38 39 30 40 48 56 56
24 24 23 22 23 22 21 22 19 17 18 22 24 26 25 19 14 11 15 20 26 25 24 24 26 27 25 21 23 16 8 11 11 6 4 4 13 20 21 24 29 32 33 24 38 35 55

GFSGBSN_500_spd_060.txt.gz
Wind_Speed
16 17 18 18 18 19 19 20 20 19 19 18 18 19 20 20 19 19 18 19 19 20 20 19 18 18 19 19 15 18 16 14 13 16 17 19 18 16 13 14 14 13 13 11 10 10 8
19 20 21 23 24 25 25 25 25 25 25 24 23 22 22 22 22 21 20 19 20 20 19 19 18 17 17 18 20 19 20 18 16 14 16 18 20 19 18 14 15 15 15 13 10 6 10
20 22 24 25 26 27 28 29 29 29 29 29 29 29 28 26 24 23 23 22 22 22 21 21 20 19 18 11 18 19 21 21 20 18 16 17 19 20 19 15 12 14 14 15 15 13 8
23 25 28 29 30 31 32 32 33 35 35 34 33 31 29 29 27 25 24 24 23 24 24 24 24 22 20 19 17 17 18 20 22 23 20 18 17 19 21 21 16 13 14 13 16 14 13
27 29 31 32 33 33 33 35 37 36 36 36 37 35 32 33 32 31 29 28 28 26 25 26 26 26 24 23 22 20 19 19 19 21 23 22 19 17 21 21 20 16 15 14 15 15 16
28 30 31 33 32 32 32 31 32 34 37 39 39 38 37 33 33 34 33 32 32 31 30 29 28 27 26 26 25 24 23 22 21 21 21 20 22 21 20 20 19 21 17 15 13 17 14
38 41 43 41 37 35 37 39 37 35 35 37 37 38 37 38 36 34 33 34 33 33 32 31 29 29 26 25 25 27 26 26 26 25 22 20 22 21 20 17 23 27 19 15 15 22 19
42 44 42 40 40 39 36 34 37 38 37 36 37 37 35 35 35 35 35 33 34 34 34 34 33 32 30 29 28 27 28 31 30 28 28 27 22 20 24 25 24 27 31 24 16 19 26
45 43 42 41 41 41 40 37 35 34 35 37 36 37 36 35 33 32 31 32 32 33 35 35 35 37 35 36 36 31 31 32 32 33 32 30 26 27 26 26 29 28 30 28 23 17 24
45 43 40 42 46 46 45 43 41 39 36 33 34 34 33 34 33 33 32 31 30 31 31 37 33 36 34 36 37 36 38 37 35 34 34 35 34 34 32 31 31 32 29 30 34 34 27
44 43 43 45 49 44 36 31 30 29 29 30 29 31 30 30 29 31 29 28 31 31 23 36 36 35 34 34 39 37 38 39 38 37 37 35 37 39 37 36 36 34 34 33 36 40 40
45 46 46 46 44 39 34 33 31 30 27 25 27 26 24 26 25 27 28 26 26 26 20 33 38 33 31 35 36 38 36 38 39 39 40 40 40 42 43 41 41 40 38 39 40 41 48
48 48 46 43 39 36 35 30 33 31 28 25 21 21 21 21 23 24 25 26 23 21 25 32 34 34 31 33 35 34 36 37 38 37 39 39 39 41 44 46 46 46 43 41 44 46 46
46 44 42 39 38 38 34 32 33 30 28 26 20 16 13 16 19 22 22 21 19 8 14 32 35 33 28 35 34 34 33 32 36 40 37 40 31 38 42 44 47 47 48 46 44 45 41
43 39 38 37 37 37 34 31 29 25 32 23 12 8 8 8 9 12 13 11 9 20 31 36 29 24 23 32 29 36 29 31 30 45 46 43 40 16 23 37 46 46 43 47 45 33 40
40 38 37 35 35 36 33 30 26 23 25 19 8 5 4 1 4 8 10 17 19 22 17 17 19 20 18 12 27 29 30 31 34 46 44 38 46 43 31 26 42 44 46 35 45 47 47
38 37 37 33 34 35 29 26 23 17 20 19 13 9 8 7 9 11 11 13 7 10 12 17 19 21 24 26 29 29 26 33 41 41 41 38 43 43 43 41 41 37 49 51 35 36 54
36 36 36 33 34 30 26 22 23 19 16 15 13 12 12 9 6 3 1 1 5 4 11 14 17 23 29 33 36 41 39 32 45 45 46 45 47 48 45 47 35 31 42 36 46 43 43
32 34 34 30 33 26 24 22 19 17 17 16 15 15 14 12 10 7 5 4 6 8 10 14 19 22 26 30 34 38 42 45 49 48 50 45 44 49 46 45 46 38 45 43 39 46 46
30 31 32 27 30 25 22 21 19 17 16 15 14 13 13 10 9 9 10 9 9 13 15 16 12 9 11 14 19 26 36 38 48 53 51 50 49 52 53 40 41 41 38 41 44 36 41
30 29 27 24 26 23 21 20 19 18 16 16 15 15 12 11 9 9 9 10 12 13 8 1 2 7 14 17 20 24 25 27 34 36 49 54 51 52 58 56 49 53 55 54 45 51 44
29 27 23 22 21 20 20 18 16 20 18 16 16 15 14 12 10 10 10 10 9 5 2 6 10 14 16 22 25 27 28 30 30 30 36 34 41 42 53 59 55 61 61 61 60 57 55
28 23 20 18 20 21 19 17 19 18 20 19 18 19 17 15 12 10 10 9 7 6 9 12 16 17 23 27 31 26 26 28 29 27 28 35 30 31 39 46 52 63 66 64 65 61 61
26 20 19 18 21 22 21 20 21 23 23 22 21 18 15 12 11 11 11 10 12 15 18 20 21 24 28 30 25 25 27 28 26 23 26 26 28 32 30 32 40 45 58 57 61 64 63
23 21 18 19 21 22 22 21 22 23 23 22 19 18 14 9 10 11 11 13 17 16 14 15 14 20 22 25 22 22 23 18 16 17 17 22 26 32 31 35 33 36 35 42 45 61 64
22 21 20 20 22 22 22 20 23 24 20 19 20 20 18 14 13 12 13 12 19 21 19 19 19 22 22 21 21 17 14 11 19 19 22 15 20 32 32 33 33 33 37 44 50 61 66
19 21 21 20 21 22 21 21 21 19 19 21 21 23 20 16 13 13 13 17 20 22 20 19 19 18 17 16 16 13 10 12 15 17 13 16 18 21 27 35 35 36 40 37 46 54 60
17 21 20 19 20 20 19 18 17 18 20 21 23 23 22 17 14 11 14 20 19 20 20 18 20 20 21 15 13 14 10 9 10 7 7 9 14 19 18 30 37 42 41 39 46 54 60
15 18 17 17 18 18 18 18 17 17 19 19 21 23 21 23 17 12 18 21 18 20 20 19 20 21 22 20 15 17 17 14 10 5 8 8 13 19 22 17 24 28 36 49 42 53 47

GFSGBSN_500_spd_063.txt.gz
Wind_Speed
17 18 20 21 23 25 26 28 27 26 25 25 25 24 23 21 21 20 20 20 21 21 21 20 20 20 21 20 18 19 17 15 17 19 19 20 18 15 13 13 16 14 14 11 4 5 5
19 21 22 24 25 27 29 30 32 32 32 31 29 29 29 27 25 23 22 22 22 21 21 21 20 20 20 19 18 23 22 19 17 17 19 18 21 19 17 14 14 16 11 6 8 10 5
20 22 24 26 28 29 31 33 35 35 36 37 36 33 32 33 33 31 28 25 25 24 24 22 22 21 20 14 23 23 23 23 21 18 18 20 20 22 20 16 12 13 13 15 13 10 9
22 25 28 30 31 30 29 29 29 32 36 39 38 39 38 36 34 34 33 30 28 27 26 26 24 23 22 21 21 20 21 22 23 22 20 19 21 22 22 20 18 15 14 9 13 11 10
30 34 38 40 40 38 34 32 32 37 38 39 40 39 39 38 37 35 35 34 32 30 28 27 27 27 25 23 23 21 21 22 23 23 24 22 20 19 22 21 19 12 11 12 11 9 12
36 38 42 42 41 39 34 32 33 34 39 42 41 41 39 38 37 36 35 37 37 35 32 31 28 28 27 25 26 25 24 23 22 23 23 24 23 22 19 19 17 20 16 13 11 12 10
39 42 43 43 42 39 37 38 39 36 34 34 38 40 40 36 35 35 36 36 36 37 35 34 32 32 28 27 28 27 27 27 26 25 22 22 24 21 20 18 21 26 27 24 14 4 11
43 45 44 45 44 44 43 44 42 34 34 34 33 34 36 37 33 32 33 34 37 35 35 35 34 33 30 30 28 28 29 28 28 27 26 25 20 21 24 25 23 25 27 24 17 9 17
46 46 47 47 46 47 45 41 37 31 28 29 34 33 34 34 34 32 30 31 30 34 32 33 34 33 32 31 31 29 27 28 29 30 30 29 23 26 25 27 28 27 26 25 23 11 18
46 47 48 47 48 47 44 39 34 28 27 26 25 28 31 31 32 30 29 29 28 28 30 33 32 36 31 34 34 31 31 29 28 29 32 32 30 31 30 28 29 29 26 27 28 29 31
49 48 47 47 46 47 42 36 30 29 31 27 25 24 22 26 26 28 26 26 26 25 25 30 30 31 31 34 36 34 35 35 34 33 33 33 35 35 34 33 32 30 32 32 32 37 35
48 46 45 44 46 45 39 34 34 33 31 28 26 22 21 19 19 22 22 21 22 18 18 24 24 24 24 30 33 34 32 33 35 35 37 36 37 40 38 37 37 35 36 37 37 39 40
46 46 43 43 45 41 35 35 34 31 29 31 32 21 16 12 14 16 15 18 16 8 12 19 24 24 25 25 29 29 31 31 33 34 35 35 33 38 40 42 41 40 39 38 40 38 38
45 44 41 42 44 36 32 33 30 23 30 31 21 7 4 4 9 10 12 13 19 9 12 20 25 21 15 24 26 25 28 28 29 34 37 38 36 33 31 35 41 44 42 43 41 36 37
43 41 39 42 39 32 29 27 28 21 25 26 20 9 4 2 5 9 13 22 25 21 22 26 26 22 15 16 21 27 24 24 27 36 40 40 39 41 40 40 43 38 42 41 43 43 43
41 37 37 40 35 31 27 25 25 22 20 20 18 15 10 3 7 14 20 18 26 27 22 24 18 14 14 10 14 23 26 26 31 38 41 42 36 37 39 43 45 44 37 39 44 47 48
38 35 36 36 32 29 26 25 23 21 20 20 17 13 10 11 13 17 18 15 10 11 24 26 24 22 21 25 24 24 19 31 35 40 43 44 43 38 34 36 33 35 39 45 44 47 44
35 33 33 31 29 27 25 26 21 17 18 18 18 14 16 11 3 4 7 6 7 11 15 17 19 21 22 24 26 29 29 31 30 32 36 38 40 42 42 45 47 47 46 41 48 49 50
33 31 30 26 25 25 25 25 21 17 16 16 17 13 13 12 7 7 5 2 4 5 10 13 15 16 19 23 27 33 35 36 34 35 37 38 38 40 39 39 45 51 50 46 45 54 53
30 29 27 23 21 22 22 20 18 20 18 17 16 13 11 10 8 8 7 8 6 10 9 13 16 17 16 16 16 16 16 16 28 37 41 42 42 44 44 43 49 53 53 49 48 49 55
27 26 23 21 19 21 20 19 18 19 19 20 17 15 13 12 10 9 9 8 9 9 5 3 3 5 6 8 10 14 17 20 21 23 26 29 34 45 48 50 48 54 62 56 56 58 57
25 25 22 21 19 21 21 20 19 20 21 21 20 19 15 13 12 10 8 9 8 6 6 9 10 11 12 12 14 19 20 24 29 29 29 32 36 39 39 49 53 57 58 61 62 63 61
23 24 22 22 22 23 22 22 21 21 21 22 20 18 16 14 13 11 10 11 11 11 12 14 17 18 19 20 23 24 27 26 25 28 30 33 39 42 43 35 48 59 60 59 62 63 59
19 23 22 21 22 22 21 21 21 23 21 19 19 19 18 15 13 12 13 12 12 13 13 15 20 26 27 26 25 24 25 23 21 25 30 35 36 34 31 35 38 52 57 64 65 67 63
16 21 20 20 20 21 20 20 21 18 20 21 21 22 20 17 13 10 9 8 8 14 14 13 12 13 15 16 19 22 23 21 22 23 27 29 29 29 32 34 32 31 46 60 69 69 68
14 18 18 17 18 19 20 20 18 18 19 22 22 22 21 19 16 10 8 10 15 21 17 16 12 15 15 16 18 19 19 17 15 17 25 23 25 25 25 30 31 31 36 44 59 71 71
12 15 16 16 17 18 19 20 19 18 19 21 22 23 21 21 17 12 7 14 18 16 17 15 12 15 16 16 16 17 16 12 10 16 18 18 18 24 23 26 24 32 33 38 44 61 62
11 12 14 15 16 16 19 20 20 19 21 21 20 22 22 19 17 11 14 16 15 15 16 15 13 14 18 16 12 12 8 6 7 12 14 15 15 16 25 33 23 25 32 38 41 45 54
11 11 12 13 14 16 18 20 21 21 20 19 18 19 18 17 15 16 18 16 14 15 16 18 17 16 17 18 13 7 4 4 6 12 9 13 13 13 18 20 23 23 25 30 38 45 48

GFSGBSN_500_spd_066.txt.gz
Wind_Speed
16 18 20 21 23 25 26 27 29 29 30 31 31 30 30 28 25 25 25 25 25 26 26 25 24 23 23 22 22 20 19 18 21 23 24 21 18 15 13 17 18 20 22 20 12 11 8
20 21 23 24 26 28 30 30 30 30 31 33 35 35 36 33 32 30 28 26 26 26 27 26 26 25 24 23 24 26 24 20 20 21 22 22 24 24 22 17 17 23 24 21 13 11 10
23 25 27 30 33 35 36 34 34 33 33 33 33 37 39 39 36 35 35 32 29 28 27 27 26 25 24 24 25 29 27 25 22 20 20 25 24 24 24 17 18 19 21 22 12 11 7
28 30 33 36 37 37 38 37 34 31 31 33 37 42 43 42 40 39 38 37 36 33 30 29 27 26 25 27 25 27 27 27 27 24 24 24 25 25 24 22 16 12 13 11 12 9 7
33 36 38 40 41 42 41 39 36 34 33 33 33 36 42 46 42 42 39 39 39 36 35 31 29 29 28 26 26 25 24 28 29 29 28 26 23 24 23 21 20 13 9 11 8 6 11
35 37 40 42 44 43 42 41 40 37 37 38 41 40 38 40 42 39 40 38 39 38 36 34 32 30 30 27 29 28 26 25 27 30 30 27 24 22 20 20 20 18 18 20 15 9 12
36 39 42 42 44 44 44 44 44 43 38 37 33 34 40 36 38 37 35 35 36 37 37 37 34 33 29 29 29 30 30 28 28 28 27 29 27 22 20 19 22 26 23 19 19 13 15
36 40 43 44 45 45 46 47 48 43 34 30 28 28 34 39 35 31 32 30 34 36 37 37 38 35 31 32 30 31 31 31 30 27 26 26 23 25 27 25 26 27 26 22 20 17 22
38 41 45 45 45 45 47 49 45 31 28 26 27 24 25 25 35 32 32 32 31 32 34 35 35 37 37 34 32 30 30 32 32 32 30 27 24 29 33 31 29 27 26 25 25 23 23
39 43 45 44 44 44 47 48 36 31 29 27 27 26 25 23 23 29 28 29 27 28 29 32 33 35 34 35 34 31 31 30 32 33 33 31 31 30 28 30 32 30 24 28 31 30 26
40 44 45 44 42 43 46 40 32 30 28 27 31 28 27 23 19 19 23 26 26 25 27 27 30 32 33 33 35 33 34 32 32 33 34 33 34 32 31 28 30 29 26 29 35 35 31
38 42 43 43 43 44 42 32 29 31 28 32 35 34 19 19 13 14 17 19 22 22 25 23 23 24 28 30 33 31 33 33 33 31 31 31 33 35 34 34 35 32 35 34 37 38 36
39 44 44 42 43 44 36 29 27 29 26 29 34 24 6 4 5 12 15 17 20 21 20 16 20 23 23 24 30 28 32 32 33 35 37 36 35 34 37 38 37 36 35 35 37 38 35
41 44 45 41 42 39 32 29 25 27 24 26 26 20 7 2 4 10 19 23 27 26 22 22 18 20 22 26 25 23 23 25 33 35 37 37 37 38 38 38 41 40 38 36 35 37 42
39 40 39 38 39 34 29 28 26 25 23 22 22 20 10 1 5 17 24 30 27 27 22 22 18 16 23 20 20 19 26 27 31 33 36 36 35 38 39 40 41 40 39 39 40 40 40
38 39 39 37 35 31 27 26 26 22 21 21 23 22 19 3 6 19 24 31 29 28 24 21 18 17 17 20 24 24 27 29 32 33 37 36 34 37 37 39 43 44 38 38 40 42 41
36 39 35 34 30 27 26 26 25 23 21 20 21 19 18 15 2 2 17 23 24 24 24 21 18 14 13 13 23 26 27 31 33 33 33 34 31 33 34 37 40 43 43 46 45 44 45
31 38 32 31 26 24 24 23 20 21 21 22 18 18 16 17 12 6 2 12 10 23 24 24 24 22 21 19 23 21 18 16 17 21 24 28 31 29 33 36 39 40 41 47 51 47 47
28 33 29 28 25 23 23 22 20 19 18 18 17 18 17 13 10 6 2 4 3 8 16 16 16 18 21 23 27 25 19 18 19 20 25 29 32 33 39 41 42 43 42 44 46 50 50
28 27 26 26 24 23 23 22 21 20 20 20 16 15 17 14 14 13 8 3 8 6 11 13 12 13 17 20 25 28 24 22 22 22 25 27 30 33 37 46 52 48 44 46 49 47 48
28 24 24 24 24 25 26 25 21 21 20 19 17 15 13 14 14 13 11 9 5 4 5 7 10 13 12 12 12 12 14 13 16 16 16 19 21 28 34 38 47 54 57 54 57 55 56
25 22 23 22 22 24 24 22 21 21 21 19 18 16 15 14 11 10 8 7 6 5 5 7 9 10 11 12 16 16 15 15 17 18 20 22 28 31 31 33 36 48 55 57 59 60 60
22 21 21 20 20 22 22 20 21 19 19 21 20 20 17 14 12 10 8 8 8 10 10 10 12 17 18 19 19 21 21 22 20 23 27 28 30 34 40 39 40 41 44 57 62 67 65
19 19 18 18 19 20 21 20 19 17 19 22 22 20 19 16 13 9 8 6 5 5 6 7 9 11 15 21 24 26 28 24 25 27 28 30 32 32 36 39 43 44 44 48 63 70 69
17 19 16 16 18 19 20 19 19 19 20 23 21 21 20 17 13 7 2 2 6 9 13 13 13 11 12 14 18 19 17 19 21 26 27 26 28 30 37 43 47 44 42 45 56 71 74
12 17 14 15 16 18 18 20 21 19 20 21 20 21 19 18 16 11 5 8 13 16 10 9 11 11 11 12 11 12 12 14 19 21 18 20 26 35 40 42 42 38 38 41 47 67 76
10 15 13 12 14 17 18 20 21 21 20 19 18 20 20 17 14 10 11 12 11 9 9 7 5 7 11 9 9 9 10 12 15 17 17 18 23 30 29 29 29 28 31 32 39 47 67
9 14 11 10 12 12 15 18 21 22 20 18 16 18 20 16 15 16 16 14 11 9 11 10 10 9 15 12 9 9 11 12 14 16 20 20 23 24 25 25 26 28 26 28 34 35 42
8 13 10 7 9 8 12 16 20 22 20 16 15 15 15 13 14 15 16 14 14 13 14 14 13 12 12 16 16 13 11 12 14 13 17 20 24 22 24 21 21 26 29 32 28 34 40

GFSGBSN_500_spd_069.txt.gz
Wind_Speed
19 20 22 23 25 26 28 29 29 30 30 30 30 30 32 33 33 33 31 29 30 31 32 30 29 29 28 27 26 23 21 22 25 27 25 23 20 18 19 20 21 22 21 14 14 16 10
22 23 24 26 27 28 29 29 31 32 33 32 30 30 31 34 35 36 37 34 31 32 31 31 31 31 31 30 29 29 26 23 23 26 25 25 26 25 25 23 23 24 21 15 15 12 14
23 25 28 30 31 32 33 34 36 36 35 33 30 30 32 34 39 41 41 39 36 34 32 30 30 30 31 31 31 32 29 26 25 23 27 31 29 27 24 21 22 15 17 15 15 16 15
28 29 31 33 35 36 37 37 37 37 37 35 33 33 33 33 36 42 45 43 41 38 36 32 30 29 32 30 28 33 31 30 28 27 28 27 29 29 28 25 17 11 9 14 17 20 15
30 32 34 36 38 39 39 40 41 41 41 40 38 35 35 38 40 39 40 46 42 43 39 37 34 32 32 31 30 31 30 33 33 33 30 27 24 26 26 25 20 16 11 13 19 21 20
34 36 37 39 42 42 43 44 44 45 47 48 43 32 33 39 45 47 44 42 42 41 43 39 38 35 33 34 33 31 30 30 34 36 34 28 25 23 23 19 20 19 19 17 21 23 25
35 35 38 40 42 45 45 46 45 49 51 46 34 29 31 37 40 43 44 39 38 37 40 42 37 38 32 31 33 32 32 30 32 34 33 31 28 22 21 22 23 22 24 20 21 26 22
34 35 39 41 43 43 44 44 46 50 43 30 27 29 29 31 28 29 35 36 36 36 37 40 40 38 35 33 32 34 33 33 30 28 29 32 29 28 27 26 29 27 27 24 22 23 22
36 36 39 43 42 43 43 44 48 45 30 28 29 30 29 31 30 25 24 32 31 33 34 37 38 36 38 36 34 32 33 33 33 31 29 25 27 34 34 31 29 26 25 28 29 29 21
37 37 39 42 42 41 42 45 47 36 28 31 31 32 37 35 30 24 19 23 25 28 31 33 35 35 38 38 35 34 33 33 33 33 32 28 29 30 33 32 31 26 24 31 32 31 27
38 37 39 39 40 41 44 46 41 32 29 30 31 36 42 28 22 19 16 22 26 27 26 29 31 33 35 37 35 36 34 34 33 34 33 31 32 30 26 28 30 27 29 35 37 36 32
37 38 38 38 40 41 43 42 36 31 29 28 29 32 31 14 4 11 15 19 23 23 24 23 28 29 31 34 35 37 37 35 34 34 35 30 32 33 28 29 29 32 33 35 40 38 34
39 39 37 38 40 40 41 37 34 30 27 25 27 27 27 12 3 7 17 20 24 25 23 20 19 23 28 28 28 32 34 37 36 34 33 33 34 34 32 33 32 30 29 33 37 38 34
38 37 35 39 38 38 36 34 31 28 26 26 26 25 23 11 0 7 19 23 25 26 29 28 28 27 26 27 30 33 34 36 38 36 36 32 33 34 34 34 34 34 33 31 35 38 39
38 35 35 36 36 36 33 30 28 27 25 25 23 22 22 11 6 6 21 25 25 29 27 25 27 28 28 27 25 27 31 33 34 36 36 35 34 34 34 33 34 34 36 36 37 39 40
35 34 34 33 32 32 30 29 26 25 25 24 24 24 22 17 11 8 21 18 25 28 24 22 23 25 26 26 27 29 30 31 33 34 36 34 34 36 37 37 37 37 37 38 38 39 39
32 30 34 31 31 30 30 28 26 23 24 24 24 23 21 20 14 5 18 18 20 22 23 23 22 18 20 18 22 24 26 28 29 30 32 33 33 35 36 38 39 40 40 41 40 42 41
28 28 31 29 29 28 29 29 28 26 23 24 23 22 20 18 13 8 7 12 13 17 22 22 21 19 15 13 14 19 24 26 23 26 28 28 26 28 33 36 38 41 43 41 42 42 41
24 25 28 28 26 26 28 29 28 25 21 21 20 20 17 16 14 8 0 11 17 24 19 23 20 22 19 19 19 18 19 22 22 19 24 26 29 32 36 37 39 41 43 42 41 41 43
23 23 25 25 24 24 25 27 27 24 23 21 19 17 16 15 13 9 2 5 6 11 17 17 19 18 20 23 21 19 18 17 15 16 20 22 26 31 41 44 44 44 44 45 45 44 44
29 20 22 23 22 23 24 25 25 23 20 22 20 17 14 12 11 9 6 2 1 4 7 13 16 17 17 19 20 20 18 18 17 18 19 20 26 26 29 38 46 47 47 49 49 49 47
25 16 19 21 21 21 22 24 26 23 21 24 22 18 14 12 10 10 6 4 3 2 1 2 5 8 10 14 17 20 19 17 16 17 18 19 21 21 21 23 32 43 52 52 53 53 53
24 13 18 19 19 19 21 22 24 24 22 22 21 19 16 13 10 7 5 2 3 2 3 2 4 9 12 12 14 17 19 20 20 20 21 21 23 23 22 22 24 30 37 53 60 58 58
22 10 15 17 17 18 20 22 23 23 21 20 19 20 17 15 11 6 4 2 2 2 4 3 4 6 11 15 20 23 26 28 29 29 28 28 29 28 30 30 33 36 41 44 46 55 66
25 7 13 14 15 16 18 20 22 22 20 18 18 18 17 15 13 8 3 1 3 7 8 11 12 11 10 12 14 19 25 30 31 35 36 34 34 34 35 36 36 36 41 45 49 50 52
25 8 11 12 11 12 14 17 20 21 19 16 17 19 16 15 12 9 7 8 10 9 7 8 7 10 12 14 16 17 18 21 25 25 28 30 32 32 24 23 29 36 44 51 54 55 52
20 7 7 10 7 7 11 15 19 22 19 16 16 16 16 14 13 11 10 9 8 7 7 4 2 3 6 9 10 13 14 17 18 18 18 17 18 18 20 23 22 36 36 39 47 50 55
17 6 7 9 6 3 7 13 19 22 21 18 14 14 14 14 15 14 14 15 14 11 10 9 8 7 8 11 12 7 7 9 11 12 12 14 16 19 26 32 36 35 32 35 30 28 37
13 3 8 8 6 3 3 9 17 21 20 20 15 12 11 10 11 10 9 13 14 12 11 10 8 7 6 7 10 12 12 10 7 7 9 12 18 21 25 28 32 28 27 29 34 37 40

GFSGBSN_500_spd_072.txt.gz
Wind_Speed
21 23 24 26 27 27 27 27 27 27 26 25 25 26 26 26 26 28 28 32 32 31 29 31 31 31 30 29 28 25 23 23 26 28 24 22 22 22 22 21 22 23 13 11 11 11 10
23 24 25 26 27 27 27 29 29 28 27 26 27 28 27 26 27 28 31 31 35 35 32 31 32 33 34 33 31 30 27 25 25 27 27 27 25 26 28 25 25 23 15 14 14 11 9
27 28 29 30 29 30 30 30 29 29 29 30 30 30 31 31 28 30 32 34 37 37 37 33 32 33 35 34 33 31 31 28 27 27 30 32 30 25 22 25 26 18 16 17 15 13 9
29 28 29 31 31 32 32 32 32 33 33 33 34 35 37 37 35 32 33 33 39 41 41 38 35 32 34 34 35 33 32 32 30 28 28 30 29 30 28 21 15 15 14 17 18 15 13
31 31 30 32 34 35 36 34 34 36 37 38 40 43 45 40 34 32 34 39 40 40 43 41 39 36 33 34 35 34 33 33 35 33 30 28 29 30 28 26 20 17 14 15 16 18 17
33 32 31 32 35 39 37 36 37 38 38 40 43 46 47 35 29 35 44 48 48 44 40 41 42 40 36 35 36 36 34 33 35 37 32 28 26 26 25 22 23 22 19 17 18 24 23
35 33 33 33 37 40 40 38 37 37 40 41 43 41 34 28 30 31 32 41 45 46 41 40 41 43 40 36 35 35 35 32 33 35 35 31 27 20 22 23 24 26 25 21 21 23 24
36 33 33 34 37 40 38 38 38 39 40 41 38 32 28 30 34 35 35 35 28 35 38 40 40 41 39 37 34 35 35 34 31 30 31 33 28 28 27 27 28 29 29 26 24 25 25
36 34 34 35 37 39 36 38 38 39 41 39 32 29 30 35 38 41 36 31 25 29 34 37 40 39 37 38 36 35 34 34 32 30 26 26 30 33 31 30 29 28 30 30 29 26 23
36 35 36 36 37 38 38 39 39 40 40 34 29 27 30 35 40 37 29 25 23 26 30 35 36 38 37 39 38 35 35 34 34 32 29 26 31 35 35 32 27 25 25 32 34 29 24
37 34 36 37 37 38 38 37 38 38 36 30 25 27 32 36 28 15 16 20 21 23 24 29 32 35 37 38 38 37 34 34 33 32 31 29 29 28 32 30 28 25 30 32 35 31 26
36 33 36 37 36 37 36 36 37 36 31 27 25 28 28 29 17 8 9 14 18 23 25 23 29 32 35 36 36 35 34 35 34 34 32 33 33 31 27 31 29 33 32 32 33 32 28
36 34 35 36 36 34 34 35 35 32 28 26 25 25 23 23 16 9 6 12 18 22 23 24 27 28 29 29 34 37 36 35 34 33 33 33 33 32 31 30 30 33 32 33 34 33 30
35 34 33 33 32 31 32 33 34 32 26 24 25 23 20 20 19 14 9 13 21 21 23 23 26 29 28 27 28 31 33 34 34 33 32 33 34 33 33 33 30 30 31 34 36 36 32
34 34 32 31 29 28 30 32 33 34 28 22 24 25 21 20 16 16 6 15 21 23 27 26 28 30 31 29 29 32 33 33 34 35 34 34 34 34 34 34 32 32 32 33 35 37 34
38 33 30 30 28 27 27 29 32 32 29 22 23 23 22 17 16 6 10 10 18 25 26 27 25 27 28 30 31 32 33 33 34 35 34 33 34 34 35 36 35 36 35 35 35 36 34
38 32 28 27 27 25 26 28 30 30 28 26 20 21 19 17 12 1 6 13 15 19 20 22 24 22 22 23 26 27 29 30 31 32 33 31 34 35 36 37 37 37 38 38 38 37 37
35 32 26 25 26 24 24 27 29 29 25 25 22 21 16 12 10 3 3 10 14 12 15 20 20 18 17 21 23 21 24 24 23 24 27 27 30 32 34 36 37 39 39 39 39 38 39
35 33 25 23 24 22 23 26 28 28 26 25 25 20 16 11 5 1 5 6 6 13 11 12 20 23 20 20 19 22 26 22 22 21 21 23 25 29 33 34 35 36 37 38 39 39 41
34 31 24 21 22 21 21 24 27 27 25 26 25 19 14 10 6 2 5 9 10 14 16 14 18 17 19 19 19 20 20 20 22 23 20 23 29 33 35 38 39 38 38 38 38 39 41
32 30 23 18 20 19 20 23 26 27 25 26 23 19 15 10 5 3 2 2 3 7 13 13 15 17 20 19 20 23 22 20 20 25 27 31 34 36 40 42 42 43 42 41 41 41 42
33 30 20 17 18 19 19 23 25 27 24 24 21 19 15 13 9 3 1 3 5 5 7 8 12 15 18 19 20 18 18 18 20 21 24 28 28 29 33 38 40 42 41 42 43 44 44
31 31 18 13 17 17 17 20 23 25 23 22 20 18 15 13 11 7 1 2 3 5 4 6 8 9 10 12 14 16 17 18 18 20 21 22 21 21 24 27 31 34 39 42 44 46 46
31 32 17 11 13 13 14 18 21 23 22 20 21 19 15 13 13 8 5 3 1 1 1 3 5 7 9 12 14 15 16 17 18 20 22 22 21 20 21 23 27 29 29 32 35 40 47
31 32 19 10 11 10 10 16 19 22 22 19 19 19 17 17 12 11 8 4 4 6 6 6 7 10 10 10 12 14 18 23 25 27 28 28 28 28 27 28 30 30 31 33 34 37 41
27 27 23 9 9 7 7 13 18 20 22 18 17 17 18 18 15 13 11 8 7 7 5 4 5 8 12 13 15 16 17 20 23 26 30 32 33 34 34 33 33 33 30 31 34 36 40
26 24 16 9 7 6 3 9 16 20 20 17 15 14 15 17 16 17 16 17 17 14 12 8 4 2 1 4 9 14 17 18 20 21 22 25 28 29 28 29 26 24 25 27 31 35 37
26 20 12 8 7 6 5 5 13 19 20 16 13 12 11 12 10 11 12 13 14 14 14 14 11 7 6 6 6 3 5 11 17 19 20 22 25 25 26 24 24 21 25 29 33 32 32
23 15 11 8 8 8 9 7 10 16 18 17 14 11 9 9 7 4 6 9 9 9 9 8 9 9 9 11 12 11 8 7 4 7 11 14 15 18 18 19 22 25 30 35 35 35 35

GFSGBSN_500_spd_075.txt.gz
Wind_Speed
23 23 23 24 25 25 24 23 23 22 22 22 22 22 21 20 19 19 20 24 26 27 29 28 26 27 29 29 28 26 24 23 26 27 22 25 25 23 22 20 19 16 10 9 9 5 2
26 27 27 26 26 26 25 25 25 24 22 22 21 20 20 19 19 20 20 21 27 30 31 32 31 28 29 31 30 30 27 25 25 28 29 26 27 28 29 25 25 18 15 12 12 10 10
28 29 30 29 28 26 26 26 27 26 25 24 23 22 23 22 20 22 22 23 25 29 34 35 34 32 31 31 31 31 31 29 27 27 31 31 28 27 27 28 27 19 19 18 15 12 10
31 31 31 29 28 27 27 28 27 26 26 24 24 24 23 23 23 25 26 26 27 27 28 37 38 36 34 33 33 33 33 32 31 28 28 32 31 28 26 21 21 20 21 19 20 14 11
34 34 32 29 30 29 31 33 32 29 29 27 24 25 26 29 30 30 28 27 26 29 33 37 40 42 38 35 34 34 35 34 34 33 30 29 31 32 28 24 17 18 18 19 21 18 14
34 35 32 28 28 31 31 33 33 31 29 28 27 28 28 28 30 29 27 27 30 37 42 44 41 42 43 41 38 36 35 35 35 35 32 29 29 30 30 27 23 19 18 17 19 20 17
35 36 32 29 29 32 33 34 31 31 31 30 28 27 28 30 30 28 26 25 27 30 41 45 44 43 42 43 40 36 34 33 34 33 34 30 27 25 26 28 31 28 24 21 22 21 21
37 36 33 30 32 32 33 34 33 32 33 33 30 29 29 27 27 27 29 31 32 32 34 36 40 46 44 43 41 39 35 34 34 31 31 34 28 29 31 31 31 31 30 28 25 23 22
36 36 35 32 32 33 33 34 32 31 32 33 32 26 24 25 28 32 34 36 38 40 38 33 40 45 44 42 39 38 36 33 33 31 28 29 31 34 31 30 31 31 32 33 30 25 22
36 34 33 32 31 32 33 32 32 32 34 32 28 27 26 27 29 34 34 35 35 35 33 32 37 38 40 40 40 40 40 37 35 33 31 32 37 36 34 31 29 29 30 36 35 29 24
36 33 33 32 31 32 31 30 30 32 33 31 29 26 25 26 31 34 26 21 15 22 24 28 33 33 37 38 37 39 39 38 37 33 33 32 33 36 35 32 29 27 31 35 36 31 26
34 33 34 30 29 31 30 29 28 29 31 31 26 23 23 27 30 24 16 13 9 16 22 25 31 29 33 37 36 37 37 38 37 37 35 35 33 33 33 35 32 33 31 32 32 31 29
34 33 35 31 28 29 28 27 28 28 29 29 23 22 24 26 24 15 12 7 11 17 21 24 28 29 29 33 36 36 35 36 37 37 38 37 37 33 33 36 36 36 34 33 33 31 31
37 35 35 30 28 27 27 25 26 27 28 28 24 21 23 24 24 15 8 5 14 15 24 23 26 27 28 32 32 33 34 33 35 36 37 37 37 37 35 33 34 36 36 35 34 29 26
38 35 33 32 27 27 26 24 26 28 29 27 25 20 20 22 22 16 9 2 12 14 19 22 27 26 26 30 29 31 31 32 34 35 37 37 38 38 38 35 34 35 37 36 35 31 27
41 34 32 31 26 25 24 23 25 29 28 27 24 19 17 17 16 9 6 2 12 19 22 21 24 27 27 28 31 29 31 31 31 33 35 38 39 39 39 38 37 36 34 36 35 33 35
42 32 29 30 25 25 23 22 25 28 29 28 25 19 14 11 11 8 2 2 5 19 20 18 16 25 26 27 29 28 29 29 32 30 32 36 37 38 39 40 39 39 38 37 35 33 34
41 30 31 31 25 23 22 21 25 28 29 28 25 19 13 10 7 6 2 7 6 6 20 20 17 17 18 28 26 24 22 23 24 28 28 32 34 36 36 39 40 40 39 39 38 37 36
38 31 32 31 22 20 20 21 24 28 28 26 23 19 15 9 5 6 4 7 8 10 5 5 20 22 26 22 22 18 18 17 14 16 21 27 30 32 33 34 37 40 41 40 40 39 39
37 33 29 28 18 18 18 20 24 27 27 25 22 19 16 10 6 3 4 2 5 9 9 8 6 16 18 16 21 25 23 21 21 22 21 26 28 31 32 32 32 35 37 38 39 40 38
37 33 29 28 16 16 16 19 23 25 25 22 22 20 15 12 6 3 1 3 4 9 11 10 11 14 17 21 20 19 16 17 25 23 27 32 32 34 36 38 39 40 39 40 40 41 41
36 33 27 27 15 14 13 16 21 23 22 20 23 19 16 13 10 3 1 2 3 2 3 9 12 13 16 19 21 21 20 20 21 20 27 30 36 39 39 39 39 39 39 39 39 40 42
34 33 24 25 13 12 10 13 19 22 20 19 21 19 18 13 12 8 1 3 3 3 3 4 6 9 14 17 17 17 17 18 20 25 28 30 30 32 34 35 35 35 35 36 38 38 39
35 32 22 26 10 9 7 11 16 19 17 19 18 20 19 15 11 11 9 5 4 3 3 5 7 7 8 9 10 10 11 12 14 18 23 27 28 29 30 32 35 34 35 37 39 41 41
32 28 20 27 7 6 3 8 14 16 15 16 16 19 20 19 17 14 10 7 4 3 4 6 6 8 9 10 11 12 14 15 16 17 20 22 24 25 27 29 31 31 30 31 32 34 37
30 23 23 24 6 4 2 5 11 15 14 12 11 12 16 17 19 20 18 17 13 9 3 3 7 8 10 13 13 14 15 16 17 19 22 26 29 30 30 30 30 30 31 32 32 33 34
31 25 23 16 8 6 6 3 10 13 13 12 9 8 9 9 12 13 15 16 17 17 16 12 7 4 2 5 10 14 17 19 21 22 23 25 28 31 34 36 37 36 35 34 35 34 37
28 24 22 12 7 7 8 6 4 10 12 11 10 8 7 7 6 7 8 11 12 12 10 10 10 7 6 5 5 4 4 7 13 18 20 21 23 26 29 32 35 35 34 35 33 34 35
25 22 20 11 9 9 9 8 5 8 10 10 10 10 9 9 9 8 8 8 8 7 8 7 7 6 5 6 7 7 8 6 5 5 10 15 20 22 24 25 27 30 32 31 32 33 33

GFSGBSN_500_spd_078.txt.gz
Wind_Speed
21 22 24 25 26 27 28 28 24 24 24 24 24 23 24 23 23 24 24 25 25 24 25 24 24 23 22 25 25 23 22 22 25 24 23 26 27 25 23 19 16 12 11 9 10 9 8
25 26 27 29 30 28 27 27 26 24 23 23 23 23 24 24 22 22 22 22 22 27 27 27 27 27 26 25 26 26 25 24 25 27 27 25 29 30 27 24 21 16 13 12 11 12 8
29 28 28 28 26 26 26 25 25 24 21 21 21 22 21 22 22 22 22 21 22 22 26 27 31 31 30 27 27 28 28 27 27 27 30 29 28 32 30 27 23 20 17 14 13 12 7
35 30 30 29 27 25 24 25 24 23 23 20 21 21 21 21 20 19 21 21 21 21 25 25 28 32 32 31 30 30 31 30 29 29 28 31 30 28 31 25 23 22 21 19 17 15 11
38 34 32 31 27 25 26 27 25 23 22 21 19 18 19 19 17 15 18 18 19 22 27 30 32 32 36 34 35 32 33 33 32 32 29 28 32 30 26 26 21 23 22 24 19 18 14
37 33 32 32 28 26 27 27 26 24 22 20 20 18 19 20 18 16 17 18 21 24 31 36 39 37 36 38 37 37 35 34 33 33 34 30 30 32 32 26 22 22 23 21 22 21 18
36 33 32 31 29 29 28 28 27 26 24 24 24 23 22 19 19 19 19 20 23 26 27 35 37 43 41 40 40 40 37 35 34 35 35 32 29 30 30 32 33 25 25 25 22 21 20
37 34 33 30 30 31 29 26 27 26 26 28 25 23 23 21 20 20 21 24 26 28 31 33 38 42 44 46 45 44 42 39 36 34 35 37 31 31 35 37 33 29 26 27 22 21 22
39 37 33 32 31 29 27 26 27 27 27 27 27 26 24 21 19 17 20 24 28 29 33 36 37 40 37 46 47 44 41 39 36 35 34 34 36 35 34 35 34 34 31 31 29 22 21
41 38 35 32 32 29 28 26 27 27 27 29 29 29 24 22 22 23 26 28 28 26 29 37 39 39 34 43 47 46 45 41 40 37 36 38 40 38 36 34 33 35 37 36 29 25 16
44 39 36 33 30 28 27 25 24 25 24 29 31 29 26 25 25 26 29 31 21 22 11 30 36 39 38 38 45 47 46 45 44 40 38 38 41 42 39 34 33 34 39 37 37 30 23
44 41 37 32 29 29 25 23 22 23 26 29 31 29 26 24 24 26 28 20 11 6 13 17 27 31 35 38 42 42 43 45 46 44 41 42 40 42 39 39 36 38 33 34 32 33 29
44 42 37 30 29 28 26 23 19 20 25 29 30 28 25 23 23 26 19 9 4 10 17 21 26 29 29 35 39 38 39 41 44 46 44 41 41 43 45 43 41 37 35 32 31 32 23
45 44 36 30 29 28 25 22 20 21 24 28 28 26 24 21 20 23 6 4 7 15 20 24 27 30 24 29 31 34 38 39 42 45 42 43 43 43 43 43 42 40 36 29 27 27 25
46 44 36 29 32 28 25 22 19 20 26 26 25 23 20 18 17 18 10 2 7 15 18 24 30 26 26 27 28 29 36 38 40 42 31 33 42 42 40 41 41 41 42 30 23 24 21
43 42 37 30 32 28 23 21 19 22 26 26 24 20 17 15 14 13 6 4 5 9 19 22 26 29 21 25 26 28 32 35 38 39 42 40 42 44 41 39 39 42 39 40 36 27 24
44 40 36 32 31 28 21 19 19 23 24 26 23 20 15 12 11 9 5 3 4 13 12 15 27 29 28 28 26 29 30 31 34 35 38 38 40 41 41 43 43 40 41 40 30 27 24
44 39 35 30 29 24 19 17 18 23 25 24 22 20 13 10 9 7 4 2 1 14 12 14 13 26 23 23 25 22 23 27 28 32 35 37 38 38 45 42 41 40 41 41 38 37 32
42 37 33 29 28 22 16 15 18 22 23 21 20 18 13 9 8 8 4 4 4 2 16 17 14 14 27 22 20 19 18 23 22 26 31 34 34 35 38 40 42 44 43 41 39 35 29
40 36 31 26 26 20 15 12 16 20 20 20 18 16 12 11 6 7 6 4 6 5 4 3 20 20 19 19 18 21 27 20 25 22 29 31 32 32 24 32 39 42 43 43 42 37 27
38 35 30 25 23 17 13 10 16 19 18 18 17 15 12 11 6 3 3 3 6 9 9 8 8 12 28 23 24 23 25 26 28 29 27 33 34 34 35 37 37 38 41 44 45 45 42
33 31 28 23 21 13 9 7 12 16 15 15 18 18 13 10 8 3 0 1 1 1 3 10 12 13 16 19 18 13 13 17 18 27 32 32 32 36 38 40 40 41 41 42 45 46 47
33 30 25 18 23 11 4 6 11 12 12 13 18 19 19 12 10 7 2 1 2 1 2 4 9 12 15 18 17 18 19 17 16 17 21 31 37 34 37 39 40 41 43 43 42 43 45
30 26 23 17 25 11 2 3 9 10 10 10 16 19 22 20 14 9 8 6 1 2 1 3 5 7 8 13 17 19 20 21 22 24 26 25 27 34 41 34 35 39 37 39 41 43 43
30 25 23 19 21 10 6 2 6 8 9 7 9 13 16 18 21 20 15 10 6 3 1 4 5 5 6 8 10 11 12 14 16 21 24 26 27 26 29 31 37 38 38 39 39 41 41
29 25 26 22 22 10 8 4 4 8 9 8 5 6 8 12 12 16 17 17 16 11 7 1 3 6 6 8 9 10 12 13 16 17 17 19 24 27 30 31 32 34 31 35 37 42 41
25 25 25 21 20 12 10 7 4 7 9 9 7 5 4 5 6 8 11 12 12 12 13 12 8 3 1 3 6 10 12 14 16 17 19 21 25 27 29 30 33 31 33 33 34 38 35
25 25 25 20 12 10 9 12 4 5 7 8 7 6 5 5 6 5 5 6 6 6 6 6 6 5 3 2 1 1 3 7 12 17 20 21 23 25 28 32 36 35 35 38 38 37 37
24 25 22 22 11 8 8 12 11 6 6 6 7 6 6 6 7 7 6 7 6 7 7 6 5 5 4 5 5 6 5 4 4 5 8 14 20 24 27 29 31 35 38 40 41 41 41

GFSGBSN_500_spd_081.txt.gz
Wind_Speed
26 22 20 22 24 26 25 25 26 26 25 25 26 26 27 28 28 28 28 28 28 29 27 26 26 24 23 24 22 20 20 19 22 23 25 25 24 23 21 18 14 14 11 8 8 8 6
27 24 23 25 25 25 25 25 24 25 25 24 22 24 25 26 28 29 30 29 30 31 30 29 28 28 27 25 23 24 23 22 22 25 25 27 28 28 26 21 17 15 13 12 11 12 5
31 27 26 26 27 25 23 23 25 25 25 24 21 22 23 24 27 28 30 31 30 31 31 31 30 30 29 25 24 25 25 25 25 25 28 27 28 28 27 24 21 15 14 13 13 11 6
34 30 29 29 29 26 24 24 24 24 22 21 19 19 20 21 24 26 28 30 30 32 32 32 33 33 32 27 28 28 27 27 27 26 26 29 27 29 28 27 21 19 15 13 14 13 9
35 32 31 31 30 26 23 24 24 22 20 16 16 18 17 18 20 24 26 29 31 33 33 34 35 37 33 31 30 30 30 30 30 30 27 27 29 27 27 24 23 24 15 16 20 16 12
38 36 35 33 32 28 25 25 24 21 17 18 17 16 16 16 18 20 22 24 26 30 32 32 35 37 35 35 36 33 32 31 31 31 31 29 30 32 30 28 23 22 19 19 26 21 15
43 41 38 35 32 29 27 26 24 21 19 18 18 18 18 16 15 16 18 20 24 25 26 35 35 39 37 39 36 38 35 35 33 33 33 32 32 33 29 24 21 18 20 16 23 20 20
44 43 40 37 33 31 27 27 25 23 21 21 19 20 19 17 16 15 16 20 22 24 28 32 34 40 39 41 41 41 40 39 37 34 35 37 34 31 34 34 31 26 22 19 30 8 23
44 44 42 39 34 28 26 26 25 23 22 20 21 22 22 21 20 17 17 19 21 25 31 35 36 39 41 42 45 43 42 39 36 35 36 35 32 34 38 39 37 32 24 28 23 17 19
44 43 42 39 34 26 27 26 24 22 22 22 24 26 24 21 19 17 19 19 22 23 27 33 37 42 44 40 43 48 44 43 39 37 36 36 40 41 40 39 36 35 28 24 23 20 12
45 44 42 38 32 26 26 26 24 21 21 22 25 29 27 25 22 21 21 23 23 18 10 31 36 40 44 41 37 45 48 48 45 40 42 40 44 45 43 37 36 29 30 38 26 22 15
47 47 45 40 32 26 27 26 23 20 21 23 27 28 28 27 25 21 22 24 21 8 12 13 26 28 37 38 36 41 47 48 47 44 44 40 44 45 41 39 37 31 31 33 31 25 24
49 50 47 42 34 28 28 25 21 19 19 23 28 28 28 26 23 20 23 19 3 7 17 7 9 15 25 34 28 37 45 49 49 49 47 48 47 43 44 43 41 37 34 25 28 28 23
49 50 47 42 34 28 27 25 20 15 19 24 28 28 25 23 17 16 16 4 4 10 12 17 15 17 21 24 25 29 40 43 39 38 40 42 33 42 49 45 45 46 34 26 22 24 22
50 50 45 40 33 29 28 23 17 15 17 23 25 24 23 17 13 14 4 8 3 18 18 20 25 22 20 20 23 28 30 29 32 30 26 31 30 43 47 48 46 45 41 26 15 17 21
52 50 43 38 30 27 27 19 16 15 19 23 21 22 19 14 10 11 1 10 14 15 13 13 22 22 21 26 23 28 34 41 37 46 45 34 38 44 44 51 50 44 37 32 28 23 27
56 47 39 36 29 25 22 16 13 15 20 21 20 20 16 12 9 8 20 8 13 9 10 18 28 19 26 21 22 31 21 41 36 40 47 37 22 45 46 46 45 44 42 34 27 20 30
49 40 36 32 26 23 20 12 11 15 19 18 18 14 13 10 5 5 10 8 5 8 6 26 28 25 27 27 31 28 21 45 33 41 49 35 25 28 42 45 48 44 33 39 32 31 27
43 37 33 30 25 20 16 10 9 14 16 16 15 13 10 9 3 6 6 7 4 3 7 16 18 28 21 25 14 14 26 27 29 42 49 46 35 21 34 46 45 45 47 45 31 25 31
40 34 32 28 25 19 11 6 9 13 13 13 14 13 11 8 3 6 6 5 3 5 4 7 12 22 29 27 18 14 19 20 25 30 35 37 28 24 17 32 39 44 46 46 45 31 20
36 33 31 26 21 17 8 3 7 9 9 12 14 14 9 9 5 3 4 2 5 5 4 4 4 10 23 23 22 19 18 19 26 25 28 34 28 31 35 35 30 37 44 45 43 33 29
34 32 30 22 17 20 4 1 6 6 5 11 16 16 12 8 7 4 2 3 2 1 5 11 13 11 14 19 19 22 28 26 25 30 30 32 27 31 37 38 41 42 43 47 46 49 38
32 31 27 19 18 22 5 3 4 3 4 9 14 18 18 15 9 8 3 1 2 2 2 5 10 13 12 18 15 14 16 19 20 26 34 32 32 32 25 39 40 42 43 42 47 47 45
31 30 25 19 20 19 7 6 2 2 3 4 9 13 15 19 17 12 7 5 1 1 1 2 4 9 11 15 17 17 16 16 17 19 17 29 35 30 26 38 41 37 42 43 46 49 50
30 27 21 20 18 16 15 8 2 3 2 2 3 6 9 12 14 15 15 11 5 1 2 2 2 4 6 8 16 18 19 20 22 21 22 24 25 31 39 38 34 44 41 41 41 46 43
29 24 21 21 17 19 17 10 4 4 3 3 1 1 2 4 7 11 11 13 14 11 5 2 3 4 4 7 9 11 13 17 18 20 22 24 24 26 25 30 26 37 47 39 36 43 42
26 23 21 19 16 10 18 11 5 3 4 4 2 1 2 4 2 4 6 7 8 9 11 9 7 3 5 6 9 13 12 13 16 17 19 19 19 22 26 29 34 34 28 30 38 44 46
24 22 21 17 16 19 19 15 7 1 3 4 3 2 2 3 3 4 4 4 3 2 2 3 3 3 3 2 2 5 10 14 17 20 19 20 22 23 25 27 31 33 27 31 34 36 42
21 19 18 17 15 16 16 15 14 9 5 4 3 3 4 4 4 4 5 7 7 8 8 8 7 6 6 6 7 8 7 7 7 11 16 21 25 26 28 32 29 33 31 33 35 37 38

GFSGBSN_500_spd_084.txt.gz
Wind_Speed
26 25 22 22 25 27 27 26 24 23 22 22 22 23 24 25 27 29 29 29 30 29 27 27 27 26 26 26 24 24 22 22 24 27 25 23 21 20 17 16 16 12 10 9 6 5 3
29 27 26 26 28 29 28 23 22 22 23 23 22 22 22 24 26 27 29 29 30 31 29 29 29 29 28 27 21 27 24 23 25 26 28 26 25 24 20 18 16 16 12 11 8 8 3
32 32 34 33 32 30 29 25 21 21 23 24 22 21 21 22 24 25 28 31 30 31 33 32 32 31 30 31 24 26 26 26 26 27 27 27 30 28 23 18 16 16 12 15 12 13 6
35 37 37 36 33 32 29 25 22 21 21 21 20 18 19 20 23 25 26 30 31 31 32 34 34 34 33 30 28 27 29 29 28 28 28 29 29 30 30 25 19 21 16 13 12 15 9
38 39 38 38 36 33 30 25 22 21 18 17 18 17 17 18 19 21 24 27 29 32 32 33 35 35 37 30 32 32 30 30 31 29 30 30 28 27 28 27 25 23 17 15 14 15 15
37 38 39 39 37 34 32 25 21 21 20 19 17 17 16 15 16 20 22 24 27 31 32 34 35 35 38 33 34 34 33 31 32 33 31 31 29 29 27 30 26 21 13 23 19 19 22
38 39 40 40 38 35 31 26 22 20 21 18 17 17 18 18 16 17 20 24 26 28 32 34 34 37 38 34 36 36 36 34 34 34 33 30 34 34 28 20 22 10 7 28 24 18 20
39 41 42 41 40 36 31 26 24 23 21 19 16 15 16 17 16 14 15 19 24 27 29 34 37 38 43 41 38 37 37 37 37 35 34 37 36 33 31 29 26 30 23 30 31 25 21
42 44 44 43 42 38 31 26 25 24 23 20 16 17 18 18 17 16 14 15 17 21 25 30 35 37 38 41 39 39 39 37 35 34 36 37 32 31 34 35 33 35 25 19 25 26 20
44 46 47 47 44 40 33 27 26 26 23 19 19 19 22 21 19 20 20 16 17 20 21 25 33 35 41 40 41 41 40 38 39 37 37 36 35 35 35 38 38 31 28 28 10 18 27
49 50 49 48 45 39 32 29 27 25 22 18 19 21 24 24 21 20 18 13 12 12 8 21 25 36 41 42 36 39 38 43 44 40 40 36 39 40 40 37 39 37 25 17 17 18 18
54 55 52 48 45 41 34 29 27 24 21 19 19 21 24 24 23 21 15 12 12 10 13 8 24 23 28 40 39 36 38 44 45 43 43 39 40 43 44 39 38 40 31 29 23 27 20
56 56 52 48 40 36 30 27 27 23 19 17 20 24 24 23 22 17 10 13 9 8 19 21 8 14 22 30 34 35 42 45 48 46 46 42 44 44 38 42 40 41 41 29 30 30 23
59 57 50 44 39 35 29 26 25 19 17 17 22 24 24 22 16 11 9 9 9 9 15 11 14 9 14 19 25 27 32 42 46 44 36 43 42 39 48 47 40 46 39 30 30 26 22
60 55 43 39 37 32 26 24 20 14 13 19 22 22 21 16 11 8 10 7 9 10 10 14 15 14 16 20 24 25 29 35 37 40 27 26 38 30 34 37 31 33 44 31 21 17 18
60 50 39 37 34 27 23 24 17 11 13 18 20 18 14 11 10 11 10 14 3 6 11 14 15 22 20 27 28 28 20 30 38 34 39 23 34 29 31 34 42 36 39 39 33 28 23
58 45 39 38 33 25 20 20 13 9 14 16 17 17 13 9 8 10 16 5 13 12 9 14 17 31 24 28 31 38 39 39 36 43 39 36 41 41 35 48 50 45 42 41 31 21 21
51 40 40 37 32 22 19 16 9 10 13 13 14 13 11 9 4 8 7 16 17 12 8 15 18 33 27 19 29 38 29 38 43 44 41 29 31 45 39 39 45 49 37 42 36 36 29
41 38 39 35 29 19 16 12 5 9 9 9 12 8 8 9 6 7 4 14 9 7 9 14 27 37 29 32 25 26 43 22 47 41 51 32 28 28 23 34 41 55 49 29 33 27 32
37 38 38 32 24 16 16 9 3 8 5 9 13 6 9 5 6 6 12 11 4 4 4 16 16 27 30 25 27 6 30 21 34 38 47 30 25 21 20 27 38 50 50 44 42 31 27
37 38 36 30 20 16 18 8 4 4 3 8 13 8 4 4 4 6 6 4 6 2 2 3 3 19 21 7 12 8 15 21 26 35 50 43 27 9 24 16 23 41 46 37 50 41 32
38 36 34 28 17 16 22 7 5 2 5 7 12 11 7 5 5 4 2 1 1 2 2 2 5 6 13 25 12 18 16 24 36 43 55 53 38 23 16 18 28 23 32 36 45 45 26
40 36 32 24 16 17 18 13 5 4 7 5 8 11 13 12 7 3 4 2 1 2 3 3 7 9 13 24 25 24 19 21 31 47 51 54 49 42 35 31 35 38 39 46 46 47 33
40 36 32 23 20 17 17 14 5 6 9 4 3 8 12 12 12 10 6 4 2 2 1 2 5 9 7 12 15 13 16 21 25 23 41 37 44 45 29 18 37 32 40 42 41 44 40
37 33 28 21 19 16 19 15 5 5 8 7 4 1 5 9 8 10 11 9 4 2 1 1 3 5 7 9 10 12 11 9 13 16 17 26 45 37 38 21 18 40 39 30 30 29 44
32 29 22 20 16 14 5 14 7 5 4 5 6 4 2 3 3 6 6 8 10 8 3 1 2 2 4 6 10 10 8 13 16 19 21 20 22 32 41 40 26 24 42 43 38 27 44
30 25 18 17 16 10 19 15 9 6 4 3 3 3 3 4 3 3 3 4 5 6 7 5 3 3 5 6 7 13 11 16 14 11 15 21 20 24 25 35 38 32 30 34 37 31 43
24 18 16 14 14 3 22 15 11 6 3 2 1 0 2 4 4 4 6 6 5 5 4 3 1 1 2 3 6 7 13 15 15 17 18 18 19 19 21 22 25 41 36 35 37 41 48
16 15 15 14 13 5 24 19 15 8 3 2 2 2 2 3 5 5 6 8 8 8 9 9 8 8 7 7 7 8 8 9 11 16 19 23 25 24 29 32 32 35 32 31 29 30 33

GFSGBSN_500_spd_087.txt.gz
Wind_Speed
26 27 29 30 32 32 29 27 25 22 20 20 20 20 19 20 21 22 24 26 27 28 28 28 27 27 27 27 26 27 27 28 31 27 24 21 18 20 19 19 15 5 10 4 2 5 4
28 30 32 34 35 34 31 28 27 23 20 21 21 19 18 18 21 22 24 25 27 28 29 29 29 29 28 28 24 28 28 29 30 32 29 26 23 25 23 19 17 12 11 12 9 6 1
31 33 35 36 34 33 32 30 27 23 20 19 18 19 17 15 18 22 24 26 26 27 29 30 30 30 29 31 24 30 29 30 31 31 32 28 30 28 26 25 20 15 11 13 10 8 8
34 36 37 38 36 36 35 31 27 23 19 18 17 17 19 17 18 18 21 26 28 27 28 30 31 31 31 30 26 30 31 30 31 33 32 33 34 31 26 26 23 18 15 16 13 13 8
34 37 38 39 38 38 37 34 29 23 19 17 18 18 18 17 18 19 20 22 25 27 28 30 32 31 33 31 30 34 31 33 33 33 35 34 33 32 32 26 24 25 21 17 18 14 9
36 39 39 44 42 40 38 34 29 24 21 20 19 19 19 17 16 17 20 22 24 24 26 28 31 32 34 34 34 35 33 32 35 35 34 37 33 30 29 30 26 20 14 14 16 18 12
39 43 47 49 47 44 40 36 30 25 21 20 19 17 17 17 18 17 18 20 22 24 26 26 27 33 33 33 34 36 37 35 35 37 36 35 35 32 26 22 22 22 9 13 22 23 10
41 46 50 52 50 45 42 38 33 27 23 23 21 19 17 16 16 18 16 18 20 22 24 27 26 31 33 33 33 35 38 39 38 37 36 38 36 32 30 26 23 28 23 23 29 19 26
43 50 53 52 52 48 41 36 32 29 25 23 21 17 15 17 18 16 15 16 17 19 21 25 28 30 32 34 33 36 38 37 37 36 36 36 29 33 34 33 30 31 36 25 26 30 35
46 52 53 55 55 47 41 38 33 28 25 22 20 17 15 17 20 17 15 19 17 19 20 25 27 27 32 34 33 34 37 38 39 38 37 37 34 37 35 35 34 33 32 14 25 18 23
48 53 56 56 55 45 40 35 30 27 25 22 19 18 18 18 20 18 17 18 14 16 13 17 29 31 28 31 30 34 33 40 41 40 41 38 39 40 40 35 38 32 32 14 24 24 21
52 54 57 57 51 43 38 34 28 25 24 19 16 16 20 22 20 19 16 9 8 11 16 14 18 19 21 26 28 31 34 37 39 42 45 38 38 42 43 37 39 37 27 25 27 27 16
53 55 59 55 47 41 39 32 26 24 22 15 13 17 21 21 20 16 10 9 10 18 19 16 12 9 13 19 21 28 36 37 43 46 45 43 43 45 40 42 39 45 40 33 27 24 19
56 57 58 51 42 40 35 29 21 21 18 13 13 18 20 20 17 12 7 6 6 9 14 22 17 16 11 15 19 24 27 35 39 42 43 42 44 45 45 44 41 47 45 35 20 16 18
56 58 54 43 41 37 32 26 18 17 12 11 16 16 17 19 12 7 7 7 6 8 2 12 20 15 15 9 13 23 24 26 30 38 41 36 42 42 43 38 44 46 54 41 17 18 17
59 55 45 40 40 36 29 24 16 13 10 13 14 12 12 11 12 3 3 9 8 4 9 13 16 22 23 29 31 32 26 25 16 28 38 29 39 44 39 33 40 43 46 41 32 28 18
57 49 40 40 39 34 28 20 16 7 10 13 11 13 8 12 12 9 6 5 1 2 9 7 18 24 23 33 35 37 39 39 31 34 39 34 41 36 30 32 26 40 48 48 39 34 31
50 40 39 40 37 32 23 19 12 4 11 10 10 13 8 9 15 19 12 5 5 6 6 13 15 20 17 27 36 39 32 33 36 42 47 44 38 42 40 36 32 41 46 51 47 38 28
43 38 38 39 36 29 21 18 6 6 8 6 11 11 9 12 10 8 7 6 10 10 14 12 13 20 21 25 22 27 35 34 36 47 45 44 28 43 41 40 45 49 48 41 51 41 39
40 39 41 38 34 27 19 18 8 4 3 4 9 7 2 6 13 7 6 4 7 7 7 5 2 18 15 26 21 9 30 24 18 45 45 42 44 44 42 38 40 48 46 49 45 49 42
40 41 37 35 32 23 18 19 7 3 4 4 8 6 1 6 12 10 8 6 8 4 3 2 3 13 19 17 16 15 14 36 34 33 34 43 31 43 47 45 43 39 44 42 43 48 42
42 39 34 33 29 22 19 14 10 4 7 5 7 7 5 2 2 3 3 4 2 1 3 7 3 1 28 26 20 23 13 21 18 26 47 35 29 38 42 35 38 34 38 44 46 46 46
40 37 32 31 27 22 17 7 10 6 9 3 5 8 8 7 10 9 5 3 2 1 0 1 6 9 7 18 12 12 19 15 14 20 37 37 33 24 39 30 28 25 22 37 35 42 54
36 34 31 30 25 21 18 5 12 8 11 6 2 3 7 9 12 12 11 7 3 1 1 2 3 3 3 8 20 25 17 19 18 26 31 44 45 24 23 37 32 41 34 44 34 37 57
37 35 31 27 21 18 14 7 12 8 11 10 7 2 4 5 8 8 11 13 10 3 1 2 1 5 8 7 7 14 18 13 18 20 34 41 41 43 27 29 33 31 35 40 37 30 47
35 33 29 22 18 18 12 19 11 8 9 10 10 7 5 4 5 6 8 9 10 12 6 1 4 4 3 6 8 11 15 14 15 16 24 45 45 42 30 32 37 34 37 36 25 34 39
33 32 22 17 17 16 3 18 11 8 6 7 7 5 5 4 4 6 5 6 8 9 9 9 4 3 4 3 4 8 7 10 7 10 16 21 42 55 43 34 38 38 43 37 30 32 37
27 23 18 18 14 13 9 17 12 9 6 3 3 1 2 2 3 5 6 8 8 7 7 6 6 5 3 2 6 5 7 8 11 14 14 13 16 20 29 54 51 59 48 33 31 37 47
22 20 19 18 14 13 11 20 14 11 6 1 1 2 4 4 4 4 7 8 7 7 7 7 8 9 10 7 5 4 5 10 16 18 17 20 17 18 22 24 30 41 50 52 31 38 41

GFSGBSN_500_spd_090.txt.gz
Wind_Speed
26 28 32 33 32 35 32 33 32 28 24 19 16 17 18 17 16 19 21 24 26 27 27 27 25 25 25 26 28 29 33 32 29 26 22 19 20 17 17 19 16 11 4 6 9 7 6
26 30 31 33 33 34 35 33 32 30 27 23 19 16 17 16 17 19 21 23 25 27 27 29 28 27 28 27 28 30 32 35 34 31 27 22 24 25 19 20 20 13 14 14 11 10 7
28 31 34 38 39 38 35 32 30 28 25 23 20 18 17 17 17 17 20 23 25 26 28 29 30 29 29 30 28 31 32 33 37 37 30 31 31 27 25 25 24 15 12 10 10 7 7
30 32 38 41 44 45 44 36 30 29 28 24 20 20 19 19 19 19 19 20 24 26 26 28 30 29 31 30 30 33 34 32 35 36 37 37 36 32 28 26 25 20 18 15 13 7 6
31 34 40 43 44 47 46 42 35 30 27 25 22 21 21 20 19 19 19 20 23 24 28 27 29 30 33 32 30 35 35 35 35 36 38 40 38 35 32 27 24 25 18 17 15 15 7
33 36 42 45 47 47 46 42 37 32 29 25 22 20 21 21 20 19 20 21 23 23 25 27 28 31 34 37 36 38 36 37 36 37 40 40 38 36 34 30 22 20 23 18 14 14 9
34 38 42 46 47 49 48 46 37 32 29 25 23 22 22 22 20 19 18 19 21 22 25 24 27 32 34 34 36 39 40 38 39 40 37 39 37 35 30 25 22 22 23 26 18 20 18
36 41 45 47 49 53 52 47 39 34 28 24 23 21 21 21 20 18 19 20 20 21 23 22 27 29 30 35 35 37 42 40 39 39 39 40 38 31 29 26 25 25 30 30 27 22 20
39 43 47 49 50 53 51 42 37 33 27 22 22 21 19 20 19 17 17 19 19 18 17 20 22 27 30 33 35 37 41 41 41 39 40 39 27 31 33 30 30 29 33 29 25 21 21
43 46 49 51 54 55 50 41 38 33 26 21 19 21 19 19 18 18 16 17 20 19 18 19 19 25 26 28 33 37 41 41 42 40 39 40 36 37 38 36 33 30 31 29 27 28 19
46 48 52 55 57 56 46 40 37 30 24 19 19 17 17 16 17 19 17 18 18 17 19 22 18 20 20 24 29 32 38 42 43 42 43 37 40 39 39 37 38 29 31 30 25 15 12
46 52 56 58 58 48 41 39 33 25 22 19 18 15 15 17 19 18 18 17 15 17 14 15 18 20 19 21 28 33 36 40 41 43 46 41 39 42 40 35 40 33 35 36 24 23 21
51 55 58 56 52 42 39 37 30 23 20 18 14 13 16 19 19 17 15 13 12 13 18 18 15 17 24 22 20 30 37 39 42 44 46 44 44 45 41 39 41 40 39 33 32 30 11
54 58 58 52 45 39 37 33 26 21 18 14 11 15 17 17 15 12 11 9 8 13 21 24 21 12 11 18 12 22 33 37 40 42 44 46 46 44 44 44 41 44 41 41 37 29 17
58 59 55 48 41 40 35 29 22 17 15 10 11 17 16 16 13 9 9 6 8 11 16 25 23 20 19 16 16 22 29 33 35 38 40 42 46 44 40 42 44 48 47 38 34 28 28
57 53 47 43 41 38 33 26 20 16 11 9 13 13 16 12 9 10 8 5 6 9 13 11 19 23 27 24 18 24 29 33 31 26 40 38 43 46 41 40 42 47 49 40 39 36 25
51 46 45 40 39 34 30 23 17 14 9 10 10 13 15 9 2 4 5 8 2 7 11 13 18 23 29 25 23 25 35 31 30 28 41 44 45 46 45 43 43 45 54 50 44 38 21
46 44 42 40 33 33 28 20 17 8 11 10 9 14 12 12 10 14 3 2 0 6 10 7 8 17 21 23 25 32 35 34 31 31 37 42 48 44 48 46 43 41 44 50 47 38 30
45 44 43 40 34 31 25 18 16 13 7 7 11 11 14 13 17 9 3 2 3 5 2 7 9 12 17 19 25 33 35 38 33 33 33 41 45 40 40 41 35 36 43 46 49 49 39
45 45 42 37 33 30 22 19 18 6 6 5 8 8 11 14 8 5 4 2 8 8 5 3 4 4 11 10 17 20 26 39 33 34 41 44 41 38 43 46 44 42 48 50 51 56 47
43 43 38 36 33 27 21 17 15 7 4 4 6 9 10 12 11 10 4 4 3 6 5 2 10 2 11 10 11 14 16 28 37 30 34 39 40 39 43 46 47 49 49 50 51 54 53
43 41 34 35 31 25 19 16 4 7 8 2 4 7 8 13 13 8 4 4 6 7 7 5 6 4 6 11 10 9 13 15 27 33 22 46 38 43 39 46 49 47 48 49 46 46 49
46 41 35 29 24 20 17 15 6 9 10 4 3 5 10 10 10 12 9 2 4 5 6 5 2 5 5 14 12 11 12 7 8 11 17 36 38 46 46 45 49 46 38 44 43 45 49
44 40 34 29 21 16 14 11 11 11 12 9 3 1 6 8 11 13 15 10 3 4 6 5 2 6 7 13 14 12 15 10 7 15 12 31 28 36 32 50 48 42 38 37 43 43 44
43 37 32 25 18 16 16 15 14 13 12 13 8 4 2 5 7 10 10 12 13 4 4 4 3 5 6 6 9 17 22 16 16 16 16 17 32 25 38 42 47 43 42 37 40 43 49
40 32 26 22 19 16 16 11 17 12 11 14 11 7 4 3 4 6 8 7 8 10 10 5 4 2 3 5 5 8 18 17 14 17 18 22 24 26 32 27 46 45 36 36 42 39 48
35 28 24 21 21 18 15 6 15 10 9 10 9 6 5 5 3 4 7 9 6 5 6 7 8 6 5 3 2 1 8 12 13 9 18 20 24 29 28 34 35 40 41 46 45 44 43
30 24 21 21 21 16 11 12 14 10 7 6 5 4 2 2 2 3 6 13 8 6 5 5 5 4 4 4 3 4 5 10 13 9 9 8 17 18 24 33 35 38 33 32 36 40 41
25 22 19 21 16 17 9 14 15 11 7 5 3 3 4 4 4 5 5 12 10 5 3 4 5 6 7 7 6 5 4 7 10 12 13 13 12 13 16 18 35 42 34 26 41 40 38

GFSGBSN_500_spd_093.txt.gz
Wind_Speed
20 25 27 31 34 37 38 39 35 27 25 22 20 20 18 19 19 19 20 22 25 28 29 28 26 25 25 26 26 28 32 29 26 25 21 18 16 17 19 16 13 9 7 2 11 7 7
21 25 28 33 36 37 38 38 39 35 29 26 23 21 19 19 20 19 20 22 23 27 29 29 29 28 27 27 28 29 32 34 31 28 24 22 21 21 21 20 16 13 9 9 10 11 8
25 26 29 35 37 39 39 40 40 38 32 27 25 22 20 21 20 21 22 21 24 26 28 29 30 30 29 30 29 31 32 37 35 32 28 29 29 25 21 20 17 16 13 14 9 13 7
25 28 32 36 39 40 41 43 43 41 33 29 26 24 23 22 22 22 23 23 22 23 28 28 30 31 34 31 30 32 33 34 40 36 34 36 34 28 25 22 21 23 13 13 11 9 9
29 31 34 38 42 42 42 45 46 42 36 29 29 27 25 22 22 22 23 22 22 23 24 28 29 31 35 32 34 36 36 36 37 41 40 39 34 32 28 24 23 20 20 16 14 10 8
30 32 36 41 42 44 46 48 48 45 35 30 28 27 25 25 23 22 23 24 23 24 25 26 30 31 35 35 39 40 39 38 38 39 44 43 38 34 32 26 23 19 23 19 15 15 11
33 36 39 42 45 48 49 52 47 40 35 32 29 28 26 24 24 24 24 23 23 22 23 25 28 34 33 33 36 40 41 40 40 40 40 42 41 37 31 27 26 19 25 27 25 20 17
37 39 41 43 47 51 53 51 45 38 33 30 27 25 25 24 24 24 24 22 21 20 20 21 26 29 32 33 34 40 42 42 41 40 39 40 40 34 33 29 27 21 24 26 29 21 19
37 38 42 45 50 54 52 47 42 36 31 27 24 24 23 22 22 22 23 19 19 19 18 20 25 27 29 33 36 39 42 42 41 40 41 39 32 35 33 31 30 26 26 29 28 28 18
37 40 45 50 54 54 51 46 39 35 29 22 22 22 21 21 21 21 20 20 18 18 17 18 22 26 27 29 30 37 42 44 45 42 42 39 36 38 38 36 35 32 26 30 30 27 30
41 46 51 55 55 53 49 42 38 33 27 22 20 19 19 18 19 18 19 19 19 18 15 21 23 25 27 29 30 34 41 42 45 45 44 38 39 38 40 38 38 29 30 34 33 30 31
45 50 54 53 50 48 44 42 36 30 26 21 18 17 14 14 15 17 19 17 16 17 20 22 24 24 28 31 32 35 38 42 43 46 47 39 42 42 39 37 37 34 37 35 31 33 22
49 52 51 49 48 43 41 37 33 28 21 17 15 13 11 13 17 16 14 12 13 18 20 23 23 24 24 31 35 36 37 40 43 46 49 43 42 43 41 41 42 43 45 36 33 31 26
52 53 51 48 43 40 37 34 29 23 18 15 14 10 12 15 13 11 8 7 11 16 18 19 21 21 21 23 28 35 36 36 42 45 48 46 44 43 42 41 41 42 46 44 39 33 26
54 54 50 45 42 37 34 31 25 20 16 13 11 13 14 15 13 9 4 7 10 14 17 19 21 18 16 18 22 32 35 34 36 45 48 48 47 43 41 43 45 43 49 43 40 37 37
54 51 47 44 39 34 33 28 21 16 13 11 11 13 13 15 13 9 3 6 8 12 14 16 21 21 15 16 16 22 32 33 36 41 46 46 47 44 41 42 44 45 44 46 48 41 38
51 47 46 44 36 34 33 27 19 15 9 9 10 11 15 9 10 5 7 5 9 10 10 16 13 17 23 25 21 17 23 31 31 39 43 46 47 45 42 41 42 44 45 49 47 45 39
49 46 44 42 34 35 32 24 18 15 9 9 8 13 10 7 5 4 10 4 2 5 11 14 15 18 21 23 27 24 21 24 32 35 42 44 47 46 44 42 43 44 46 47 52 45 42
46 43 44 41 35 35 31 22 17 14 9 7 9 11 9 8 7 2 3 4 2 2 9 11 10 15 21 23 24 28 27 27 30 36 35 38 43 44 41 43 45 44 48 48 51 49 44
42 41 42 40 36 31 25 19 15 9 4 4 9 9 9 12 14 7 3 5 6 5 3 4 3 10 12 22 23 27 27 29 29 36 33 31 38 40 37 46 49 47 48 47 50 52 51
40 40 42 39 34 28 21 16 14 5 3 3 7 8 10 16 15 9 3 5 8 5 4 2 4 4 1 6 11 18 20 25 27 37 32 31 30 33 39 41 46 49 47 47 49 51 53
39 41 41 38 32 25 18 15 12 6 5 3 4 5 8 11 14 11 6 3 3 3 5 4 0 2 7 6 5 12 5 11 18 32 32 30 28 28 39 41 46 43 43 46 48 49 52
37 39 39 34 28 21 16 13 10 7 8 6 1 5 8 10 12 12 11 9 7 5 7 8 7 6 5 15 12 9 9 9 7 11 18 23 22 32 38 40 46 47 43 45 46 49 51
35 38 36 29 23 19 18 16 11 11 10 10 4 2 5 6 8 10 12 14 11 7 7 6 6 5 2 15 14 10 11 12 13 15 8 17 24 33 39 45 39 50 48 47 50 47 46
35 37 33 26 21 19 15 16 12 13 11 13 9 4 4 7 6 8 10 11 12 11 8 7 7 4 3 5 16 15 13 14 13 9 16 16 17 24 40 46 43 44 51 47 49 48 49
34 34 29 24 21 21 17 14 7 12 11 11 11 8 6 7 6 7 6 8 9 9 8 10 6 4 5 2 3 7 12 20 20 17 16 17 16 26 23 39 48 35 54 47 39 50 55
34 31 27 23 23 21 19 15 3 10 9 8 8 7 6 6 5 4 5 8 7 7 6 4 6 6 2 0 1 3 6 11 20 16 12 13 13 17 34 33 42 42 47 46 47 42 39
33 28 24 20 21 19 17 10 6 9 9 6 5 6 3 3 5 6 6 10 7 6 6 5 5 5 5 3 2 3 4 7 12 11 7 8 9 14 19 25 33 23 35 49 49 43 41
30 26 21 18 19 17 14 8 11 10 8 6 5 4 3 4 8 7 5 8 12 8 6 6 6 7 6 6 6 5 4 5 9 10 12 8 7 9 14 16 19 23 25 30 28 37 43

GFSGBSN_500_spd_096.txt.gz
Wind_Speed
18 21 24 29 32 34 35 34 35 35 36 33 29 26 23 19 17 19 19 19 20 25 28 27 27 26 25 24 23 24 24 26 23 22 19 16 15 17 16 12 9 7 6 11 12 13 18
21 23 26 30 34 36 37 37 37 39 39 36 29 24 25 24 21 20 20 19 20 23 26 28 29 28 28 27 25 25 27 29 28 25 22 20 21 21 21 17 13 11 8 10 17 16 18
23 26 29 31 34 36 37 39 40 42 44 41 33 26 23 24 26 24 22 22 22 22 26 28 29 29 30 31 28 28 30 31 33 29 26 26 25 22 21 20 19 14 12 10 6 19 19
24 27 30 32 35 37 39 41 42 44 44 42 36 29 24 24 24 26 25 25 24 23 25 28 28 30 34 29 30 31 32 35 37 34 30 30 28 25 23 21 20 15 12 8 11 15 12
26 30 33 35 37 39 40 44 45 47 45 41 36 32 27 27 25 25 26 25 25 24 25 25 29 30 31 31 34 36 35 36 39 40 37 33 30 27 25 23 22 19 14 11 10 8 11
28 31 34 36 39 41 45 48 49 49 45 40 34 32 27 27 26 26 26 24 24 24 24 24 27 31 32 33 37 38 37 38 39 41 42 38 35 29 26 24 23 20 21 19 15 16 13
30 32 33 37 41 44 46 48 47 46 41 36 32 31 27 26 27 27 24 23 22 24 23 25 27 29 29 32 35 38 39 38 39 40 41 43 39 31 25 28 27 21 20 18 19 19 17
32 33 36 42 45 47 49 48 47 42 39 34 31 27 26 26 26 25 20 20 19 20 20 23 25 28 28 32 34 36 38 39 39 40 39 41 39 35 33 30 28 25 22 20 22 16 14
35 37 41 43 46 46 45 45 43 41 37 33 28 26 24 23 22 19 18 17 17 19 17 20 21 24 25 31 33 34 36 39 40 41 39 36 33 39 37 34 32 28 25 24 25 25 20
34 39 43 46 48 47 45 44 41 36 32 30 26 24 21 19 18 16 16 15 15 16 17 18 19 19 26 29 32 35 38 39 40 39 40 37 35 38 39 36 34 30 26 28 23 30 28
36 43 46 49 49 46 44 42 36 33 30 26 22 20 17 16 13 12 13 14 14 15 16 19 19 19 23 29 31 33 38 40 40 39 38 38 39 39 39 36 36 32 32 32 31 34 30
40 46 49 50 49 45 43 38 33 31 27 22 18 15 14 11 8 10 13 15 16 17 20 19 19 19 23 29 33 34 37 39 41 42 40 40 39 40 39 38 37 37 39 33 40 33 28
43 46 48 48 46 43 39 34 31 30 24 20 15 13 10 10 11 12 12 12 14 16 17 17 18 17 20 27 32 34 36 38 42 44 44 41 40 42 41 39 41 42 46 39 37 29 21
44 47 47 45 44 40 36 33 31 29 23 18 14 12 11 11 10 11 10 9 11 14 16 13 13 16 16 21 26 32 35 37 40 44 44 44 42 41 42 40 40 42 45 44 38 36 20
45 47 45 44 42 38 34 33 32 26 18 13 14 13 12 13 12 7 6 8 8 11 12 12 12 13 16 16 19 23 31 35 35 42 45 45 43 43 39 41 42 43 46 40 40 36 32
44 45 42 41 41 38 36 33 29 21 15 11 13 13 16 11 11 12 8 5 5 7 10 10 12 11 13 16 16 17 23 30 35 36 42 43 44 44 41 42 44 43 43 46 44 43 37
44 42 40 40 40 37 34 32 26 18 15 8 11 14 14 12 15 14 4 2 3 9 11 12 14 13 15 16 18 17 18 22 29 34 37 41 45 44 43 43 43 44 44 46 45 46 42
42 41 38 39 39 37 34 30 23 17 11 4 8 13 13 12 11 6 3 3 1 3 4 8 14 15 16 16 19 20 17 15 22 30 35 35 42 45 45 45 44 44 45 43 45 45 45
39 39 37 38 38 35 32 27 21 15 10 1 5 8 9 8 8 6 4 5 0 2 4 6 9 12 14 18 21 25 24 22 18 20 29 32 36 42 45 46 45 46 46 47 46 45 45
38 36 35 37 36 34 30 24 17 15 8 1 6 7 6 8 11 7 3 2 4 4 8 6 8 10 14 18 25 23 21 23 23 21 26 33 33 35 42 45 46 46 47 47 47 47 45
36 34 34 36 34 31 26 22 16 12 4 2 5 5 6 10 14 12 9 6 1 3 6 7 6 3 4 8 15 18 20 22 24 24 24 30 32 29 40 42 44 45 47 47 47 47 47
33 33 33 33 32 26 24 19 15 11 4 4 3 5 5 8 13 17 13 7 3 5 3 4 6 6 3 7 10 15 11 20 26 26 24 25 29 28 29 42 42 46 45 46 45 46 45
31 31 32 30 28 24 21 18 16 10 6 6 1 4 6 9 11 13 14 13 7 5 5 5 6 5 5 6 6 9 19 8 13 18 24 25 28 30 28 40 42 45 48 47 47 44 43
30 31 31 29 26 23 22 17 16 13 8 9 4 1 4 7 8 9 11 13 12 11 6 5 5 6 2 5 10 10 10 11 11 11 13 19 24 26 31 30 46 47 49 50 48 44 43
30 30 31 27 23 20 20 17 13 10 8 8 8 4 5 6 7 6 7 9 10 11 10 7 3 3 2 3 13 16 13 9 12 14 12 12 22 27 26 29 39 48 45 48 45 43 42
31 31 30 26 22 19 20 15 11 4 7 7 9 9 8 9 8 7 8 10 11 9 10 9 7 1 2 2 7 9 11 18 14 15 14 13 13 15 23 30 35 44 44 42 48 45 42
30 31 28 25 21 19 20 16 9 2 7 5 7 10 11 9 6 4 4 7 10 8 8 8 7 4 4 2 4 5 10 11 16 21 17 14 11 13 18 29 32 38 47 43 45 48 44
30 30 26 23 18 17 16 16 7 5 6 5 5 8 7 6 6 6 5 5 10 10 7 5 7 7 6 4 3 5 5 5 6 9 10 11 10 10 14 23 28 35 41 46 45 49 50
29 29 25 21 16 15 14 13 7 7 7 5 5 5 5 6 7 6 7 8 9 11 11 10 9 9 9 9 8 7 6 5 5 7 9 12 6 6 9 14 22 33 31 42 43 42 45

GFSGBSN_500_spd_099.txt.gz
Wind_Speed
16 19 22 25 27 29 30 30 32 34 35 36 34 30 24 16 19 21 18 19 19 18 22 25 27 26 26 25 21 21 20 17 25 20 19 16 17 18 14 10 7 8 7 5 22 25 19
17 20 23 26 29 30 32 33 34 37 38 38 38 36 31 24 19 19 21 21 20 20 21 24 26 28 28 27 25 23 24 22 28 26 21 19 20 20 17 12 10 7 7 4 15 27 25
20 22 25 28 29 32 35 35 38 41 43 42 41 38 35 31 24 21 22 23 22 22 21 23 26 27 30 28 27 27 27 27 27 30 24 23 22 21 21 18 13 10 6 7 8 16 17
22 25 26 28 30 34 37 39 40 41 41 41 41 39 34 27 25 25 25 25 25 24 23 23 26 27 30 27 28 31 30 31 31 34 29 26 25 24 22 21 18 13 9 8 11 19 21
24 27 30 31 33 38 39 41 41 41 41 42 42 38 34 28 27 27 26 25 25 25 25 25 26 28 29 29 32 34 34 34 35 36 35 29 26 23 23 22 20 17 13 13 12 22 21
25 29 31 32 35 38 40 42 40 39 40 41 40 35 30 29 26 26 25 24 24 24 26 25 28 28 31 31 34 34 35 35 37 37 39 35 29 25 23 22 20 20 15 12 10 12 12
27 30 29 33 39 42 44 44 41 42 40 39 36 30 28 27 25 24 23 21 21 22 21 23 25 27 28 31 33 34 35 36 37 38 39 40 33 25 25 25 24 23 21 17 15 14 13
28 30 32 38 42 44 44 43 42 42 39 33 30 27 24 22 20 18 16 17 18 18 17 18 21 23 25 30 32 33 34 36 36 38 40 40 37 32 30 29 28 25 23 23 20 23 13
30 33 35 40 44 45 43 41 40 40 35 31 28 24 20 18 16 14 13 12 12 13 14 14 15 18 22 28 31 33 33 36 38 37 37 37 36 39 34 31 30 27 27 25 21 21 16
33 37 39 42 45 45 41 41 39 36 32 30 25 20 16 13 12 11 8 9 10 12 12 12 13 15 20 25 30 35 36 37 39 37 36 38 38 41 40 36 33 31 30 30 27 26 24
35 38 41 44 45 42 40 40 37 32 32 29 21 15 12 11 10 6 6 8 10 12 11 13 12 15 19 23 28 32 36 38 39 38 35 37 37 39 41 40 36 34 32 33 31 30 27
35 39 42 44 44 42 40 39 36 32 32 27 19 14 12 9 7 8 9 11 12 13 15 13 11 13 17 22 25 30 34 38 40 40 40 37 38 40 38 39 39 36 37 32 33 25 25
36 42 43 43 43 40 39 38 35 33 29 22 16 12 9 7 10 10 10 10 12 12 12 12 11 12 16 20 22 25 31 36 39 41 42 40 39 41 39 38 40 40 41 38 37 33 22
39 41 42 41 41 39 38 36 33 31 25 16 12 12 9 9 10 10 8 8 10 11 10 8 9 12 13 15 19 21 28 33 37 40 41 41 39 40 41 39 37 41 43 42 40 35 27
38 38 40 40 39 38 37 33 30 26 21 15 14 10 9 11 7 6 5 7 8 7 8 11 9 10 10 12 13 17 23 28 32 38 42 42 41 40 38 38 39 41 43 42 39 35 31
37 37 37 37 37 37 35 32 29 23 19 15 11 9 11 7 8 8 4 2 3 4 6 9 12 12 12 11 12 13 18 24 27 32 39 41 42 42 40 40 41 41 39 41 42 39 36
36 36 35 35 36 35 34 31 25 19 16 14 9 11 10 10 14 11 6 0 1 1 2 5 5 8 12 13 15 15 14 19 22 27 32 38 40 43 42 43 41 42 43 42 42 41 36
36 35 34 34 35 33 31 28 21 15 15 11 9 12 10 14 15 11 7 4 2 3 1 3 7 8 7 7 17 16 14 14 15 21 25 29 38 40 43 44 43 43 44 42 41 42 40
36 35 33 33 32 31 29 25 18 14 11 5 8 10 11 15 15 12 9 6 1 2 3 3 8 12 13 13 13 16 21 19 17 13 21 25 31 38 40 44 44 45 45 45 43 41 41
35 34 32 32 31 30 26 21 15 12 8 1 5 6 7 12 15 12 6 2 0 4 6 8 6 7 10 13 15 18 18 19 18 20 16 24 28 31 40 41 43 44 45 45 44 43 41
33 32 31 31 30 29 25 20 14 11 6 3 3 2 4 10 12 12 9 4 2 2 5 6 4 5 7 12 17 18 21 18 20 22 20 18 24 27 31 41 43 43 46 44 44 43 42
32 30 29 30 29 28 23 19 13 11 5 4 1 1 3 6 8 10 13 10 2 3 5 7 5 5 7 7 8 7 12 17 20 23 22 21 21 23 30 32 44 44 44 46 45 44 43
30 29 29 30 28 26 22 19 14 11 4 6 4 2 3 4 6 8 10 11 10 3 5 6 5 5 6 6 7 7 10 11 14 20 22 23 23 21 28 32 37 45 45 47 48 46 44
29 28 29 28 27 25 21 20 14 10 3 8 7 3 0 3 5 6 8 10 10 8 7 4 6 5 5 7 6 8 6 14 12 11 12 18 23 22 25 30 33 47 46 46 48 47 46
29 28 28 27 26 24 20 19 13 9 4 9 9 6 4 5 5 5 6 5 7 7 8 7 7 6 4 6 7 11 9 8 11 12 13 15 20 24 26 29 29 38 48 46 47 46 46
29 28 28 27 25 23 18 16 10 6 4 8 9 10 10 8 7 6 6 6 9 8 9 9 8 7 4 6 6 8 11 15 13 13 15 16 10 21 25 28 26 30 41 47 45 45 39
28 28 27 26 24 21 17 15 10 4 4 7 7 9 10 9 9 7 6 6 8 9 8 8 7 6 5 4 5 7 9 13 15 17 18 17 16 13 19 26 30 30 32 42 46 46 46
28 28 27 25 22 18 16 14 11 4 5 6 6 7 8 7 7 7 8 8 7 9 11 10 9 8 7 6 7 7 6 8 9 10 13 16 14 14 18 22 25 30 32 34 45 48 44
28 28 26 23 21 16 13 13 11 5 8 7 6 5 6 6 7 8 9 11 11 11 12 12 10 12 11 11 9 9 10 8 7 7 9 11 10 11 11 15 18 26 33 32 35 50 44

GFSGBSN_500_spd_102.txt.gz
Wind_Speed
15 17 19 22 23 24 26 29 29 28 29 30 29 30 29 27 25 23 17 16 17 18 18 19 25 28 27 26 23 22 20 17 19 23 22 22 20 20 16 14 11 10 8 9 20 20 20
16 17 20 22 25 27 29 31 32 33 32 32 29 28 28 27 24 22 21 21 20 21 20 21 23 28 29 27 26 24 24 22 21 26 25 23 21 21 18 14 12 11 10 6 25 31 24
17 19 21 24 25 28 31 33 36 38 36 32 33 34 33 30 27 23 22 24 25 25 24 24 24 27 30 27 28 26 25 27 25 30 28 25 23 22 21 17 15 12 8 7 15 28 26
20 22 24 26 26 28 33 37 38 36 34 34 35 36 34 30 26 24 25 27 30 29 29 29 29 30 31 29 30 30 29 29 29 32 30 26 24 23 22 20 16 14 10 8 7 21 28
22 24 25 25 27 32 37 38 38 36 35 35 36 36 36 30 26 25 27 29 31 31 29 31 32 32 31 31 33 32 32 31 32 33 31 27 25 23 24 22 20 13 12 13 12 13 27
24 25 27 30 31 34 38 39 37 35 36 37 36 34 31 28 26 24 25 27 26 26 25 27 31 32 34 34 34 35 33 32 32 33 37 31 27 25 24 23 20 20 15 14 16 20 18
24 25 29 32 34 37 41 39 36 36 37 36 32 30 30 28 24 23 21 20 21 20 21 22 25 28 29 32 35 34 34 34 33 36 39 35 30 25 25 28 22 22 19 17 13 13 9
25 28 31 34 37 39 41 40 38 37 35 32 31 31 29 24 20 17 16 14 14 14 15 17 20 21 25 31 33 34 34 35 34 35 38 38 32 30 31 28 25 23 24 20 6 15 9
27 30 32 36 39 40 40 40 39 38 34 30 33 31 25 20 15 11 10 9 8 9 11 12 16 20 22 27 32 32 34 35 36 36 36 38 36 36 31 29 27 26 27 27 15 14 16
28 31 33 38 38 38 38 38 38 36 33 31 31 25 20 14 10 8 7 7 7 10 11 11 13 15 19 24 28 33 36 37 37 35 37 39 42 37 37 32 30 33 28 27 23 15 17
30 32 35 37 37 36 36 36 36 34 32 31 26 20 13 10 9 5 4 4 6 8 8 11 11 13 16 21 25 30 35 37 37 38 36 39 38 40 39 36 35 33 31 29 24 22 19
33 33 34 35 35 34 34 34 34 33 31 28 21 14 11 10 7 6 7 8 8 7 9 7 9 11 13 16 22 26 31 35 39 39 38 44 38 39 39 38 38 33 33 32 28 22 20
32 34 35 35 34 32 33 33 33 32 29 23 14 12 11 8 8 8 9 8 7 11 9 11 11 10 13 15 17 20 26 31 35 37 40 41 37 39 39 39 39 34 37 30 27 27 20
33 33 35 34 33 31 31 32 32 29 24 18 14 14 7 8 7 5 5 4 5 8 10 9 12 14 13 13 15 16 20 26 33 37 35 39 40 40 41 39 37 36 38 32 29 21 19
33 34 34 34 31 31 30 31 31 26 19 15 13 8 8 8 8 8 5 2 4 5 8 11 11 11 12 11 13 16 18 20 26 33 31 38 37 42 42 39 38 36 42 38 28 26 22
33 32 33 33 30 30 30 30 29 22 15 14 9 8 9 10 10 8 3 2 1 3 6 11 12 11 11 11 11 14 19 24 25 28 37 35 37 41 39 40 39 41 37 36 37 23 20
35 32 32 30 29 29 29 28 25 19 13 13 7 9 9 10 12 8 4 2 1 3 4 5 8 11 13 12 12 14 15 21 25 26 30 32 36 35 40 40 39 40 38 39 28 29 21
33 31 30 28 28 28 28 25 22 16 13 13 7 8 9 10 11 8 5 3 5 5 4 2 4 8 10 11 14 16 17 15 17 22 26 28 29 28 29 42 42 42 41 39 38 33 32
31 29 28 27 27 27 26 23 19 14 12 11 7 6 9 11 12 10 9 9 7 6 4 3 5 4 7 10 11 13 16 17 15 16 22 28 26 24 25 36 40 41 39 41 36 25 26
30 28 27 25 26 26 25 20 18 13 12 10 5 4 6 9 11 11 8 6 5 3 3 3 2 4 5 8 11 13 16 18 19 17 15 22 21 23 20 26 26 37 43 41 42 39 31
30 27 27 25 25 26 25 20 16 12 11 8 5 1 3 6 8 10 9 6 2 2 2 3 3 3 3 4 9 14 17 18 19 20 19 18 16 25 35 36 36 34 33 43 42 40 31
26 26 26 25 25 26 24 20 16 12 11 8 5 3 3 2 4 6 7 6 4 3 3 3 3 6 8 8 7 7 12 18 22 19 21 22 18 20 25 35 39 42 41 42 42 41 40
26 27 26 25 24 26 24 20 16 12 10 10 8 7 5 2 2 3 4 5 5 6 5 7 8 8 9 9 7 7 9 13 16 18 19 19 18 18 18 26 32 36 37 43 45 43 42
26 26 26 25 24 25 24 20 15 12 11 12 12 9 6 2 1 2 3 5 5 4 3 4 7 9 10 9 7 8 9 13 13 10 14 17 21 22 19 28 32 29 35 44 44 44 43
27 26 27 25 24 24 23 19 14 9 8 12 13 12 8 5 2 5 5 5 7 5 5 4 4 4 7 8 8 6 9 9 11 12 9 10 12 17 26 20 22 37 40 41 44 45 43
25 26 26 25 24 24 23 18 12 8 7 11 13 14 13 8 6 6 5 4 3 5 6 5 3 3 4 5 7 6 8 12 14 12 14 16 14 13 20 27 27 29 35 35 40 45 42
24 25 26 26 24 24 21 15 12 8 8 11 11 12 15 12 9 6 6 7 5 6 8 7 7 5 4 5 6 6 9 13 16 16 16 19 18 14 10 25 26 33 31 29 33 40 42
26 26 26 27 24 22 20 14 11 8 8 11 11 11 12 12 8 7 8 10 10 11 11 10 10 9 8 7 8 9 8 9 11 14 17 18 22 18 19 20 25 29 32 31 33 39 45
27 27 27 28 23 21 19 15 11 9 8 12 11 9 10 10 7 7 8 9 11 12 13 13 13 12 11 12 11 10 12 11 10 9 13 15 23 21 22 22 23 24 28 31 34 36 40

GFSGBSN_500_spd_105.txt.gz
Wind_Speed
13 15 17 19 22 22 24 26 28 30 30 29 26 25 25 24 25 24 19 17 16 17 18 19 21 24 28 28 27 22 21 19 18 17 20 23 24 22 17 15 12 12 11 13 15 24 24
15 17 19 21 23 23 24 28 31 32 31 29 27 28 28 27 28 28 27 23 20 21 23 24 25 27 29 33 25 27 24 22 21 21 24 25 24 22 18 16 17 16 12 11 12 16 19
18 20 21 22 23 25 27 30 33 34 32 29 28 30 32 33 31 29 27 25 25 27 30 30 30 30 31 31 30 29 27 26 25 25 26 27 24 23 22 20 17 15 14 15 12 25 21
19 20 22 22 24 27 30 32 34 34 33 32 34 33 34 32 30 30 28 27 30 33 35 34 33 34 37 28 33 32 30 28 28 28 28 27 25 23 23 21 18 13 13 12 12 27 28
20 21 22 23 26 29 31 33 34 35 34 34 34 33 32 30 28 28 29 31 33 34 33 32 33 34 35 34 35 35 33 32 32 30 31 28 24 22 24 23 22 15 16 17 13 23 32
20 21 21 23 26 30 32 33 35 37 37 36 34 33 30 30 31 31 29 28 28 27 26 27 30 32 33 36 34 36 34 33 32 32 35 31 28 24 25 25 20 29 22 20 18 12 23
22 22 23 25 28 32 33 32 33 35 36 35 33 31 30 32 31 28 25 22 21 19 18 21 23 28 30 32 34 36 35 35 34 34 37 32 32 28 25 26 27 35 14 19 20 18 22
24 24 26 28 30 31 34 32 32 33 34 33 31 31 32 30 25 22 17 14 13 12 13 16 18 21 26 29 33 34 36 35 35 35 37 37 30 29 34 34 27 26 27 21 17 19 15
27 27 27 28 30 32 31 32 32 32 32 31 31 31 28 22 18 13 11 9 9 8 10 12 15 18 20 25 29 32 34 37 36 37 39 36 31 30 34 30 23 19 18 19 25 11 6
29 27 27 28 30 31 33 32 32 32 31 30 30 28 20 14 11 11 8 5 5 6 8 9 10 12 16 21 27 30 35 36 37 38 38 38 31 38 36 29 27 17 33 16 14 20 8
30 29 27 29 29 31 30 32 31 31 30 29 27 20 14 10 10 7 4 2 3 2 5 9 9 11 12 18 27 26 32 36 37 35 38 36 41 43 38 30 30 28 25 33 5 9 13
31 29 28 27 28 28 29 30 29 30 29 26 21 16 15 10 6 7 6 5 3 1 9 9 9 10 9 13 17 27 29 33 39 38 35 23 40 40 36 37 39 36 32 27 22 11 10
32 29 29 28 27 27 28 29 28 28 27 23 17 15 10 7 7 7 6 4 3 5 14 10 7 9 5 9 13 16 25 29 33 34 35 39 36 34 36 40 40 35 31 26 22 19 13
32 31 30 27 25 26 27 27 27 26 24 19 15 10 8 7 6 7 7 2 2 15 7 8 11 9 4 7 9 11 17 24 29 27 15 29 29 35 37 30 34 37 29 25 14 14 15
32 32 30 27 23 26 26 26 25 25 21 16 13 8 7 8 9 8 5 9 6 4 7 5 6 4 9 9 9 11 12 13 19 28 13 19 19 26 34 36 28 25 30 27 22 13 22
33 31 29 26 23 25 25 26 23 23 18 16 10 7 6 10 10 8 3 5 2 4 7 9 6 10 9 8 5 10 13 15 16 24 32 20 20 32 31 38 37 28 18 25 27 25 10
34 29 26 25 22 24 25 25 22 21 16 15 8 5 6 10 9 5 2 3 4 4 4 7 11 6 13 6 10 9 16 25 27 21 42 20 26 14 28 37 32 37 36 27 23 23 21
33 28 25 24 22 23 24 24 22 19 14 13 7 2 3 7 7 7 2 3 5 6 5 4 5 10 12 15 9 13 11 18 19 31 24 37 15 19 12 25 34 20 26 28 20 25 24
32 28 23 23 22 22 23 23 22 18 13 12 7 1 1 5 8 3 3 4 5 3 1 0 3 5 6 6 8 11 16 22 20 21 21 21 29 21 15 17 30 34 28 24 22 21 20
33 26 23 23 22 20 23 23 22 17 13 11 7 2 3 3 6 5 4 4 4 2 1 2 5 4 7 9 12 14 9 13 19 21 20 28 21 21 25 32 25 21 36 26 25 22 22
31 27 24 24 22 20 21 21 21 17 14 11 8 5 5 3 1 3 3 3 2 2 1 1 3 4 4 4 7 10 14 14 15 16 16 19 19 25 18 24 36 13 18 28 36 32 24
30 27 24 24 24 21 21 22 20 17 14 12 8 8 8 5 2 1 1 1 2 4 5 5 4 4 6 9 7 9 11 14 15 17 20 16 20 26 35 13 20 33 26 29 27 29 29
29 30 25 24 23 23 21 22 20 16 15 13 10 10 8 6 5 4 3 4 3 3 3 6 7 7 7 8 9 10 10 12 16 22 18 19 16 22 11 20 19 29 31 27 31 26 27
28 29 24 23 23 23 22 22 20 15 13 14 12 12 11 9 7 7 5 5 4 4 4 5 7 8 9 8 7 8 7 11 13 19 14 20 20 20 14 17 26 19 34 37 35 35 37
27 26 24 23 23 23 22 21 20 14 11 13 14 14 13 10 9 8 7 5 4 3 4 5 6 8 8 8 8 5 5 6 9 12 14 14 13 17 18 19 22 25 26 36 37 37 42
28 27 26 24 25 25 24 21 19 13 11 12 14 15 16 13 14 9 9 7 5 3 4 4 5 6 7 7 5 6 10 14 18 15 14 12 14 14 17 24 27 30 31 28 35 34 39
30 27 26 23 23 26 26 22 18 12 10 11 13 13 17 19 14 12 11 9 9 9 7 6 7 8 8 7 8 8 16 21 8 5 18 22 18 15 17 18 20 34 36 21 23 31 44
30 29 27 26 24 25 24 22 18 12 9 11 12 13 14 18 12 12 10 10 12 13 14 13 12 12 12 11 10 11 12 13 13 19 21 16 16 17 22 26 23 28 34 33 26 31 38
34 30 28 27 24 24 24 20 18 13 11 11 13 13 14 14 11 10 10 11 12 13 14 14 14 14 14 15 15 17 15 15 15 15 16 17 17 15 18 26 29 24 27 27 30 33 35

GFSGBSN_500_spd_108.txt.gz
Wind_Speed
14 17 19 20 20 20 21 22 24 27 27 26 25 24 24 26 26 24 22 20 19 17 18 19 19 21 21 23 23 27 23 21 20 18 15 17 20 22 22 16 15 8 5 5 13 20 16
18 19 20 20 20 21 21 24 25 27 28 29 29 30 29 29 29 28 28 27 25 22 21 25 26 26 28 29 18 29 25 23 23 22 19 19 22 23 20 18 16 13 9 10 16 10 16
16 18 19 20 21 21 23 25 26 27 29 31 32 32 32 31 30 31 30 29 27 26 27 30 33 34 33 35 24 31 29 26 25 25 24 23 24 24 21 22 16 14 11 9 9 12 20
17 18 20 21 22 22 23 25 26 28 30 32 33 34 32 31 32 32 30 29 29 31 33 36 38 38 39 34 29 33 32 30 28 27 27 26 24 24 22 22 19 14 13 14 16 14 18
18 19 21 20 21 23 26 27 28 28 29 31 31 31 31 30 31 29 30 31 31 30 30 31 31 34 38 34 34 36 34 33 32 30 30 28 26 24 24 22 20 20 17 17 17 18 22
21 22 23 23 24 27 27 27 29 30 30 31 31 30 30 30 30 31 30 26 23 22 23 23 23 26 33 34 34 33 35 35 34 33 31 28 28 26 24 25 23 28 35 18 23 25 25
25 24 24 23 23 24 25 25 27 28 31 31 31 30 29 30 30 26 21 18 16 15 17 17 17 22 24 30 30 34 33 35 36 34 33 32 32 29 23 21 25 23 34 20 27 17 23
26 26 24 23 22 23 24 25 25 28 29 30 29 29 29 27 22 18 14 14 14 13 12 13 15 17 20 23 28 32 33 35 36 35 35 35 32 28 25 21 24 30 33 25 12 10 19
28 27 25 23 22 23 23 23 24 26 27 28 27 26 25 19 16 13 14 12 10 10 10 8 10 13 13 18 23 28 31 34 35 35 39 35 29 26 31 21 28 23 23 25 10 12 10
30 28 26 25 24 25 23 23 24 25 26 26 25 23 18 15 15 15 11 6 7 8 8 4 6 5 8 13 20 25 31 32 34 35 37 36 32 19 27 28 19 26 15 21 23 11 8
35 31 27 26 26 25 23 23 25 25 25 24 23 18 15 14 13 11 8 4 5 8 1 5 6 8 5 10 20 20 28 32 34 33 36 35 37 21 27 21 19 26 21 21 20 20 20
35 33 30 27 26 23 22 23 24 25 25 22 19 15 13 11 11 11 9 5 3 5 9 7 10 5 7 5 10 23 26 30 33 35 35 29 21 28 30 35 20 28 23 17 12 16 9
34 33 31 28 26 22 23 23 23 24 23 20 16 14 11 10 9 9 9 4 4 4 13 4 8 2 5 2 8 10 23 28 31 31 32 32 31 30 37 28 26 19 20 14 19 22 16
35 34 31 28 27 23 23 23 23 22 21 18 15 12 11 11 11 11 8 4 7 12 5 11 6 3 9 4 6 7 15 22 26 25 8 21 27 34 31 30 26 35 21 15 14 12 16
34 34 31 28 27 24 23 22 22 21 20 17 14 11 10 11 11 10 5 8 7 6 11 4 7 4 5 6 2 10 3 8 13 20 15 24 15 19 25 31 24 16 26 21 19 18 10
33 32 31 28 25 24 23 22 22 20 19 16 13 9 8 12 11 9 4 2 7 7 6 9 11 9 10 10 3 3 10 8 20 18 13 20 12 19 18 30 34 23 11 17 25 20 13
32 31 30 25 24 23 23 22 22 19 17 16 13 10 7 10 11 4 7 5 4 5 2 11 5 4 8 9 7 16 13 22 13 25 37 27 21 23 21 26 29 35 27 24 19 18 20
30 29 28 25 25 24 23 22 21 18 15 14 13 9 5 8 10 9 8 3 4 4 4 4 9 10 15 18 7 12 19 28 29 19 33 27 18 11 7 12 20 24 25 19 22 25 25
28 28 26 25 24 24 23 23 20 18 15 13 12 6 2 5 5 4 7 3 2 3 2 1 3 11 7 10 14 13 5 27 26 33 32 39 29 14 11 10 13 20 19 15 22 17 17
29 28 27 26 25 24 23 22 22 18 14 10 10 3 4 3 1 5 6 6 6 6 6 5 4 4 4 2 7 15 14 14 21 24 26 36 37 20 24 27 23 20 24 22 15 21 14
28 28 27 28 25 25 24 22 22 18 14 10 9 5 12 7 10 5 7 7 8 6 5 5 5 6 4 3 11 10 8 16 13 13 18 22 33 25 26 26 26 25 26 25 25 26 20
28 28 27 26 25 25 22 22 21 19 14 11 10 11 10 11 7 7 7 7 8 10 8 10 8 6 6 7 14 14 18 14 18 14 13 17 31 38 26 13 32 21 14 26 22 25 35
28 28 27 25 23 22 23 22 22 21 16 13 10 11 10 9 9 5 14 8 8 9 9 9 9 11 11 11 8 9 11 12 11 19 17 21 25 30 34 34 12 14 19 18 22 27 28
28 27 26 25 24 24 22 22 22 22 18 13 11 12 11 8 12 14 10 9 9 9 10 8 7 8 8 10 9 7 9 7 13 16 17 15 22 24 29 26 32 20 23 37 22 33 38
32 27 24 25 24 23 23 23 21 18 17 13 11 12 13 13 16 12 13 11 9 8 9 8 7 7 8 7 9 10 8 10 12 14 17 15 13 18 20 22 18 25 32 27 43 29 34
35 32 28 24 24 24 23 24 23 18 15 14 11 12 16 16 16 12 12 12 11 8 8 7 7 7 8 8 8 8 9 16 18 19 20 18 20 14 16 22 28 31 27 36 38 48 55
35 34 31 29 25 24 25 24 23 19 15 12 11 11 17 18 24 14 16 16 11 12 10 15 11 11 11 11 10 13 21 24 22 17 23 25 26 22 20 15 26 26 31 39 38 34 36
32 33 35 33 29 26 25 24 23 19 15 12 11 11 15 19 21 14 16 15 14 15 17 19 16 16 16 14 14 13 22 9 17 14 12 11 20 12 25 27 26 25 24 33 40 38 34
35 35 33 34 33 29 27 25 22 18 15 14 13 12 14 19 16 13 14 14 14 15 15 15 17 16 18 16 18 17 21 22 18 14 13 13 15 16 33 26 16 18 41 9 15 26 37

GFSGBSN_500_spd_111.txt.gz
Wind_Speed
16 17 17 18 17 17 18 19 20 20 21 23 25 26 27 25 22 21 19 19 18 17 16 17 18 19 20 18 19 23 23 21 21 20 17 17 18 22 20 15 10 6 9 6 13 18 19
15 15 16 17 17 18 19 20 21 21 23 25 27 26 26 28 26 23 22 22 23 22 22 23 23 24 26 26 17 26 25 24 24 23 21 19 20 23 20 17 12 10 5 5 5 25 21
15 16 17 18 19 19 21 21 22 23 24 23 23 26 28 31 28 27 26 26 27 27 26 28 30 32 33 32 25 28 29 27 26 26 23 23 22 22 23 19 15 13 9 6 4 14 11
16 18 20 21 21 22 22 22 21 20 22 23 25 28 31 31 28 29 30 31 31 31 32 32 34 36 36 35 33 32 33 30 29 28 26 26 24 23 22 20 21 20 12 12 10 16 24
20 22 22 23 23 23 21 20 19 19 21 23 26 29 29 28 29 30 31 33 31 29 26 26 26 28 28 33 34 34 36 33 34 31 28 28 25 25 24 25 22 15 14 15 14 16 17
22 22 23 23 23 22 22 21 20 20 21 23 25 26 27 27 29 30 30 26 19 17 17 17 17 20 22 25 31 32 33 35 35 34 32 31 26 25 25 24 18 18 23 18 15 21 21
23 23 23 23 23 22 22 21 21 21 22 23 24 24 24 25 27 24 20 16 15 17 16 14 14 15 17 18 23 28 33 34 35 37 32 29 28 25 19 21 21 16 21 30 26 24 20
27 28 28 26 25 22 22 22 22 23 23 23 22 22 23 24 20 18 16 19 19 17 14 13 11 12 13 15 20 27 31 33 35 34 34 33 28 23 21 21 20 21 22 22 31 15 35
31 32 30 27 24 22 22 21 21 22 22 21 20 21 21 17 16 18 18 18 15 14 9 9 7 5 8 10 15 23 27 31 32 33 36 33 26 22 20 26 26 9 26 19 25 23 9
31 32 33 31 26 23 21 21 21 21 21 20 19 19 16 14 16 16 16 15 12 14 8 9 6 5 4 6 11 18 24 29 31 32 33 32 27 28 19 26 25 19 19 13 12 23 10
30 32 33 33 28 23 22 22 21 20 20 18 18 16 14 14 14 14 11 13 12 11 12 11 12 5 6 5 8 12 20 26 31 31 30 29 29 29 16 19 29 33 27 19 7 5 22
31 32 33 31 27 24 23 23 21 20 19 18 16 14 13 13 13 13 11 9 8 8 9 8 17 6 5 4 1 8 16 24 30 34 33 32 28 25 20 12 27 26 13 3 6 3 12
31 32 32 31 27 24 23 23 22 20 19 18 15 12 12 12 12 11 10 6 6 9 9 12 13 9 2 8 3 6 14 22 26 30 30 29 31 28 25 25 29 15 16 4 4 6 8
32 32 31 30 27 23 23 22 22 21 19 18 15 12 11 10 11 10 10 4 4 10 13 15 5 3 8 9 7 7 2 15 21 24 21 10 29 32 37 30 28 23 10 6 6 13 17
31 30 30 28 26 23 24 22 21 22 19 18 14 13 10 10 9 9 5 5 1 0 1 5 5 7 4 6 5 6 12 8 11 18 13 20 12 6 19 24 25 22 24 20 16 18 9
30 29 29 27 25 24 25 23 22 21 19 16 13 13 10 10 8 7 4 8 7 4 7 13 8 3 10 13 7 9 14 16 14 21 19 12 19 17 15 19 26 23 14 19 25 17 8
30 27 27 27 25 24 25 24 22 22 18 14 11 10 8 8 11 10 8 10 9 4 2 5 6 4 6 7 3 9 18 21 22 24 25 15 23 25 20 24 19 28 23 22 29 26 15
28 25 26 27 26 24 25 25 22 22 19 15 11 8 6 5 11 6 6 10 7 2 3 5 8 5 8 6 6 14 20 25 23 24 31 24 28 29 31 18 11 28 28 22 19 21 16
27 26 25 26 25 23 23 24 22 22 19 15 11 9 8 4 8 4 9 11 7 5 3 4 6 8 10 19 12 20 24 14 21 18 31 30 21 29 25 22 19 12 32 33 27 26 26
27 27 25 26 26 23 22 23 21 20 19 16 13 11 4 5 4 8 9 7 8 9 5 4 4 3 8 13 13 12 17 19 11 24 26 21 31 25 20 19 29 22 31 22 17 29 22
28 27 26 26 25 23 22 22 21 19 19 15 15 15 14 9 6 12 9 7 13 16 7 7 6 7 5 6 9 15 13 12 15 19 24 24 33 30 14 19 23 27 34 33 29 25 27
30 28 26 26 25 22 22 21 22 19 19 17 15 15 14 14 9 11 12 13 13 13 10 13 9 8 6 8 15 13 10 14 11 11 14 26 31 37 38 21 21 30 33 39 36 29 32
29 28 29 28 24 22 22 21 19 20 19 18 11 12 14 9 12 14 16 13 10 10 13 15 12 10 11 12 11 13 13 12 15 16 17 18 26 35 46 39 29 21 26 25 37 32 40
33 34 36 31 28 24 23 22 20 20 18 17 15 14 14 14 18 19 20 11 13 10 13 14 11 9 8 9 9 11 10 12 15 18 20 19 22 37 39 42 28 23 24 23 38 38 48
39 39 39 32 29 27 24 23 23 21 18 17 14 13 13 14 20 21 15 17 11 13 12 14 10 8 6 6 8 10 13 14 16 17 13 18 13 29 37 38 28 27 24 25 36 36 44
45 44 35 32 30 29 26 25 22 22 20 16 14 16 16 20 24 21 13 15 14 13 12 15 11 10 8 9 11 12 10 13 14 15 20 18 18 25 24 29 35 34 35 29 30 41 40
34 28 26 25 26 28 29 27 25 23 21 17 15 14 18 22 22 20 17 15 12 11 14 16 13 14 15 14 15 16 18 20 16 15 19 27 29 22 21 29 32 43 31 33 38 38 40
31 29 27 27 27 27 28 28 26 24 23 18 15 16 19 18 20 19 14 15 17 13 17 15 19 20 18 18 17 18 23 20 18 14 16 12 26 32 23 26 30 29 40 36 32 42 44
32 32 31 31 30 30 30 29 28 25 25 19 16 15 15 17 18 11 14 16 18 14 15 16 19 20 20 16 17 16 19 23 20 23 12 15 16 22 21 29 26 25 24 35 31 38 36

GFSGBSN_500_spd_114.txt.gz
Wind_Speed
12 12 12 13 14 15 15 16 16 16 16 18 18 17 15 17 19 20 17 15 16 16 15 15 15 14 17 19 21 21 22 21 21 19 18 19 19 19 17 16 11 8 6 14 26 24 20
11 12 13 15 16 17 18 18 18 18 15 15 15 15 17 19 21 21 21 19 21 21 22 22 22 23 23 24 23 25 26 24 24 23 20 19 22 20 22 19 16 8 12 7 28 31 18
14 15 16 17 18 18 19 19 17 16 15 16 16 18 22 22 21 22 22 22 23 24 26 27 29 31 32 31 27 27 30 28 27 25 21 25 25 23 21 19 17 12 3 6 24 20 14
16 17 17 18 19 19 19 18 17 16 15 17 19 21 21 22 23 22 23 25 26 28 28 29 30 34 35 36 33 31 35 33 30 28 26 28 26 24 20 16 18 17 14 9 15 17 15
16 17 17 17 17 16 17 16 16 16 16 17 18 19 20 20 20 23 23 24 24 25 21 17 16 18 25 29 33 32 36 33 35 32 29 31 27 23 20 17 21 21 21 16 10 15 18
18 19 19 20 22 21 18 17 17 17 18 17 18 18 18 18 20 22 21 22 20 16 18 19 17 14 13 17 21 29 34 32 35 35 34 32 27 21 18 26 22 15 9 13 21 19 17
23 27 27 27 27 24 21 18 18 19 19 18 17 17 16 18 18 18 19 17 17 20 21 20 18 17 14 16 18 25 31 36 36 38 34 30 24 16 19 26 24 17 22 26 22 24 32
26 28 28 28 28 26 21 18 19 20 20 18 16 17 17 16 15 16 17 18 19 18 15 14 11 12 10 15 18 22 31 33 35 32 34 29 22 23 27 23 22 22 14 16 23 24 23
26 28 29 30 30 28 23 19 20 20 19 18 17 16 16 14 14 16 17 17 15 14 12 9 7 7 7 8 10 17 25 29 33 32 32 27 26 26 27 23 21 25 19 16 14 16 20
26 27 28 29 29 27 23 20 21 20 19 18 17 15 13 13 14 15 16 14 12 11 3 5 5 3 1 3 6 13 22 26 31 34 29 28 25 24 28 28 29 40 16 6 15 12 23
25 27 29 27 27 24 20 20 21 20 18 19 18 14 12 13 13 14 14 13 10 8 10 9 9 6 5 6 5 9 18 24 26 34 33 30 25 21 22 30 26 23 18 4 10 6 12
25 28 28 26 26 23 19 19 20 20 19 19 19 14 12 13 13 14 12 13 11 7 6 11 11 8 6 3 7 8 13 17 22 29 30 31 30 25 26 19 25 19 22 10 9 9 10
27 28 25 25 24 24 20 18 21 21 19 18 17 12 12 12 13 13 11 10 7 5 4 6 7 6 3 2 9 13 6 16 18 24 29 34 28 28 28 27 23 27 13 13 3 7 4
27 27 25 24 24 23 21 20 23 22 20 18 15 11 12 11 13 13 10 9 10 8 3 6 3 3 4 1 13 21 20 7 12 15 26 30 34 27 30 26 21 17 13 16 9 5 2
29 28 25 24 24 23 21 20 24 22 22 18 14 11 10 11 13 12 8 10 10 8 7 2 6 6 3 2 11 9 10 19 16 19 28 30 32 32 23 22 23 21 15 20 7 3 3
29 27 26 24 24 23 21 20 21 23 23 19 15 11 10 10 10 9 6 7 8 8 5 5 6 4 3 11 13 7 10 20 23 20 25 24 27 26 26 14 21 23 21 19 20 15 9
29 27 26 24 24 23 22 21 20 22 21 19 15 12 10 9 9 10 8 6 6 6 4 1 8 5 4 12 8 10 12 25 21 19 24 19 26 23 27 26 22 23 21 17 19 17 17
29 28 27 25 24 24 23 22 20 20 19 19 14 11 12 13 8 6 7 4 3 4 5 6 8 7 1 10 9 15 18 15 22 24 24 18 28 28 26 28 31 28 23 23 23 21 20
31 29 27 26 24 24 23 21 20 20 21 19 17 15 14 12 11 7 6 6 5 4 3 2 4 8 9 15 13 15 16 20 19 23 25 26 28 29 31 30 26 33 27 28 25 24 22
32 31 28 27 24 24 23 21 21 20 21 19 19 16 15 15 17 11 6 8 6 6 4 5 6 7 10 10 14 12 14 18 22 17 25 27 29 34 37 34 30 30 34 33 31 30 27
33 31 29 27 23 23 22 22 21 21 20 20 18 14 11 13 17 11 9 11 13 8 4 7 9 7 10 12 8 9 9 14 21 20 17 21 27 40 43 39 33 32 32 38 37 38 33
34 33 31 28 25 27 24 23 22 20 19 21 19 19 15 14 15 18 14 15 15 12 11 10 8 9 12 11 12 10 9 11 14 10 13 19 27 30 32 34 26 38 37 40 40 40 36
37 34 32 32 32 29 27 23 22 21 20 20 18 18 19 15 17 17 22 17 10 11 15 14 12 11 11 10 11 12 8 15 17 16 16 22 26 32 35 40 31 22 36 44 42 39 37
39 34 31 36 36 38 32 25 22 22 22 20 20 19 16 16 19 21 20 21 18 14 16 15 12 11 9 10 11 12 14 15 15 17 16 16 25 27 33 37 35 35 27 41 44 39 39
39 35 36 38 37 34 29 26 23 23 23 22 21 20 19 19 22 23 22 20 15 16 15 14 13 11 9 9 10 11 12 15 15 15 17 16 23 22 28 38 37 34 36 33 39 44 43
40 40 37 35 30 23 21 22 23 24 24 23 22 21 20 20 23 23 22 16 16 12 15 15 14 11 10 12 13 15 15 11 12 13 18 19 22 23 28 34 35 33 32 37 37 33 37
41 42 40 33 26 24 22 21 21 22 24 25 23 22 21 19 23 23 19 16 11 15 17 14 8 10 13 16 19 21 21 16 16 16 18 17 13 23 27 30 34 36 40 30 37 36 44
42 38 33 29 27 26 25 24 23 23 23 24 24 23 21 19 23 19 15 8 15 17 19 15 16 13 16 16 18 22 20 15 12 12 13 12 14 16 27 31 27 28 33 35 36 37 37
30 27 28 28 28 27 27 26 25 25 25 28 25 22 20 20 22 19 9 14 18 17 16 14 15 15 14 15 15 16 21 17 15 14 15 16 17 16 14 25 29 28 25 30 36 37 34

GFSGBSN_500_spd_117.txt.gz
Wind_Speed
8 8 8 10 11 12 13 14 15 15 13 8 8 9 9 10 12 14 14 12 12 14 13 15 17 18 18 20 20 19 21 21 21 19 18 17 18 18 18 10 13 14 7 5 17 17 13
7 9 11 12 13 15 16 17 16 14 12 9 10 12 13 14 14 15 15 15 14 16 18 20 21 22 25 26 24 25 25 24 24 22 18 21 20 17 16 14 17 15 12 16 17 25 16
9 11 12 13 14 14 15 16 15 12 11 10 11 12 14 15 14 15 16 16 19 18 21 23 24 27 30 31 27 28 28 28 26 25 24 24 22 16 18 18 15 15 11 9 22 24 20
11 12 13 13 12 13 13 14 13 13 13 14 14 15 14 15 15 15 16 17 17 18 18 18 20 21 25 30 32 33 32 32 30 28 30 28 25 20 18 20 14 16 9 9 23 29 22
15 17 19 21 23 22 19 15 13 13 15 16 15 16 16 15 16 16 16 17 16 16 15 15 15 14 14 18 24 27 35 34 32 33 34 33 26 21 17 19 22 19 18 8 28 23 25
20 23 24 25 26 27 24 18 15 14 16 17 16 16 16 16 16 15 16 16 18 18 19 19 16 15 16 16 15 25 26 33 35 35 36 32 25 20 20 23 23 23 20 13 11 21 30
22 23 23 25 25 26 26 23 17 16 16 18 17 16 16 17 14 14 15 15 18 19 19 19 18 18 16 18 17 19 24 31 31 34 35 31 24 18 23 25 26 21 21 13 14 13 27
21 22 23 25 26 26 26 24 19 18 18 19 18 17 17 16 14 13 14 16 18 17 15 15 11 10 11 12 16 17 22 28 30 30 32 29 21 24 29 30 25 24 23 15 19 15 14
21 23 24 25 25 25 25 23 20 19 20 19 18 18 19 15 14 14 13 16 15 15 14 12 10 9 8 10 12 15 19 24 30 30 28 27 28 27 24 25 20 23 26 16 11 15 18
22 23 24 25 24 24 23 21 18 18 21 19 19 19 18 16 14 14 14 14 13 14 7 9 10 9 11 10 10 12 16 24 25 27 30 32 30 25 22 25 21 20 25 24 13 13 13
21 23 25 25 24 23 23 21 18 18 21 21 20 20 17 14 13 14 16 13 11 10 6 8 7 6 4 5 6 10 13 18 23 25 29 31 32 30 24 22 27 23 22 13 15 7 8
22 25 26 25 24 23 23 21 18 19 21 21 21 20 17 13 13 15 16 14 11 9 13 8 3 2 7 2 4 8 14 17 21 23 29 30 29 29 27 29 32 30 26 28 7 6 3
23 25 25 25 25 25 24 21 18 20 21 22 22 20 16 13 14 14 14 12 11 15 12 9 9 2 7 7 9 8 13 17 15 18 31 33 30 27 26 26 26 30 28 27 4 9 9
24 25 26 25 25 26 25 22 20 18 21 23 21 19 16 14 13 12 12 11 11 11 11 8 5 5 5 9 9 9 13 15 12 15 31 34 31 30 25 21 19 21 15 25 11 11 7
25 26 26 25 25 26 25 23 21 19 19 22 21 18 17 14 12 12 9 8 10 9 9 9 7 5 1 5 7 10 17 18 17 19 26 33 28 28 27 20 19 14 10 15 17 11 4
26 27 27 25 25 26 26 24 21 20 20 20 21 19 17 14 13 13 9 8 8 7 8 6 4 3 4 9 9 10 14 21 19 21 25 34 28 27 28 26 25 19 17 17 22 11 6
27 27 27 26 25 25 25 23 21 18 19 20 21 20 17 15 12 15 13 7 8 6 7 7 3 5 7 10 11 13 12 21 22 25 26 33 31 24 25 28 26 26 25 23 22 16 13
28 28 28 28 26 25 24 24 21 19 19 22 20 20 19 15 15 15 15 9 9 7 4 4 4 0 6 4 9 9 17 19 18 25 23 32 38 33 30 28 25 26 25 28 25 22 19
29 30 30 28 27 25 23 23 21 20 19 20 21 20 17 15 16 16 16 11 9 8 7 6 5 6 4 10 12 12 14 13 22 21 21 31 30 30 26 27 25 26 30 29 25 23 20
31 32 32 29 28 26 24 22 23 21 21 17 17 19 18 17 16 13 13 14 10 6 5 9 7 8 8 6 4 7 9 18 18 19 21 28 27 36 32 31 34 38 30 31 30 26 23
34 34 34 31 29 28 26 25 24 24 21 19 17 19 20 20 17 15 14 16 15 7 7 9 11 11 12 9 8 6 8 8 12 18 18 23 29 30 35 38 39 36 34 35 33 31 28
37 36 35 35 30 29 27 28 27 26 24 21 19 18 19 20 19 17 20 17 15 12 13 12 11 13 13 13 11 9 10 12 9 15 18 20 25 33 39 42 44 43 39 35 34 34 34
40 39 38 38 34 29 28 32 32 31 25 23 21 21 19 20 21 21 20 17 16 16 17 15 14 15 14 15 16 13 14 15 13 13 18 19 23 28 29 36 33 48 40 38 39 40 40
43 42 41 40 37 33 30 32 33 28 25 24 23 22 21 21 21 23 23 18 18 17 22 19 15 14 14 15 15 12 13 13 14 15 15 17 19 22 27 32 37 37 43 37 42 40 41
43 42 42 39 39 35 30 30 27 24 25 24 24 23 22 23 24 23 25 21 16 12 19 18 16 15 13 14 13 11 11 13 12 14 14 16 19 21 23 30 37 34 41 32 40 35 40
55 50 47 42 38 35 32 27 21 22 23 23 24 24 24 22 26 24 23 22 16 13 16 17 15 15 12 14 15 14 15 16 16 14 14 13 15 19 21 27 32 35 33 35 33 31 45
45 45 41 39 40 41 34 27 24 23 24 23 22 24 23 23 27 24 22 18 17 13 15 16 15 12 14 17 19 19 19 18 18 18 18 17 14 19 22 27 29 31 36 34 35 37 37
35 36 38 38 30 26 26 26 24 24 24 24 24 25 24 24 28 25 19 16 15 15 19 19 18 14 17 18 19 19 19 17 15 18 20 17 13 16 18 23 26 26 29 37 36 30 37
31 29 30 27 24 23 24 25 25 25 26 26 25 25 24 25 28 28 16 16 16 17 17 17 16 14 16 19 19 19 18 15 15 17 19 20 21 20 19 17 22 29 25 32 39 38 38

GFSGBSN_500_spd_120.txt.gz
Wind_Speed
6 7 9 10 11 13 14 15 15 14 13 10 7 8 9 9 11 12 13 13 14 15 16 16 17 20 20 18 20 19 18 18 17 17 16 15 14 10 11 13 14 9 8 3 10 15 13
8 9 10 12 13 14 14 14 15 12 10 9 8 9 10 12 14 15 15 15 16 16 18 19 21 22 24 24 23 22 23 23 21 20 19 20 17 13 11 15 13 11 12 12 12 17 15
9 10 11 13 15 17 17 17 15 12 9 10 11 12 14 15 17 17 17 16 16 16 18 19 21 21 23 26 27 27 28 28 29 25 24 24 20 18 14 13 16 17 18 18 16 20 18
12 14 18 20 22 24 25 22 19 13 11 11 14 14 16 17 17 17 16 14 13 14 13 14 13 15 18 20 25 30 33 33 32 30 28 25 22 19 17 21 19 18 21 17 20 24 26
16 19 20 22 23 24 25 24 21 16 14 14 15 15 16 17 17 17 14 13 12 11 12 13 14 13 13 14 16 20 28 30 32 33 32 26 24 22 19 20 22 21 19 14 19 23 28
19 20 21 21 23 24 25 25 24 20 17 16 17 17 17 17 17 16 16 13 12 14 14 15 13 12 12 13 17 15 17 27 29 31 32 28 24 22 20 21 23 22 21 19 19 22 32
18 19 20 21 22 24 25 26 25 22 18 17 19 18 19 18 17 15 16 13 13 15 15 15 15 14 13 13 17 19 18 21 27 28 26 26 24 22 23 22 23 18 22 17 7 18 27
18 20 21 21 22 22 24 25 26 22 19 18 19 19 20 19 18 15 15 14 14 14 14 14 13 14 12 12 12 14 17 20 23 25 23 22 24 24 24 24 25 18 21 19 18 10 19
19 20 21 22 23 23 24 25 25 23 19 19 18 21 21 20 17 15 14 15 15 16 14 12 17 15 13 11 11 12 14 17 22 22 22 21 25 27 25 25 23 19 25 19 15 11 18
19 21 22 23 24 24 25 26 26 23 19 19 21 22 22 19 16 15 14 15 15 16 12 19 15 15 15 13 10 12 12 16 21 20 22 22 28 29 24 25 24 19 23 19 20 12 8
19 21 23 24 25 24 25 26 25 23 19 19 20 23 21 19 17 14 14 14 14 14 14 13 12 12 15 16 8 9 13 15 20 23 24 28 28 28 23 21 23 21 20 21 17 18 16
20 22 24 25 24 24 25 26 25 23 20 19 20 23 21 19 17 15 14 12 12 11 13 13 10 9 11 14 8 9 12 15 18 20 22 27 30 27 24 28 30 24 18 17 14 11 12
20 23 25 26 26 24 25 26 25 24 21 19 19 22 20 19 17 16 14 12 10 12 14 12 9 5 10 9 9 8 10 11 13 16 19 26 27 27 28 26 24 22 17 16 17 12 11
20 23 24 26 27 25 24 26 25 23 21 19 19 19 19 18 16 16 14 13 12 10 11 9 8 2 5 3 5 7 8 14 16 16 21 26 24 26 27 24 17 16 14 15 20 16 16
20 23 25 26 27 26 25 25 26 23 20 18 19 19 18 16 15 14 14 14 12 10 9 8 3 3 4 2 4 5 10 17 18 18 20 28 25 25 25 21 23 11 13 18 17 20 11
22 23 25 26 28 27 25 24 24 24 21 18 19 20 17 16 15 15 14 15 10 7 6 4 3 3 6 5 5 9 9 19 18 20 19 26 29 27 26 27 23 18 19 17 18 18 7
24 25 26 27 28 28 26 25 22 23 21 20 19 18 18 17 17 15 13 15 12 10 7 4 4 4 4 5 7 12 12 14 20 21 21 24 31 29 32 28 25 25 23 17 15 16 17
27 27 27 28 29 29 28 25 23 21 20 21 20 18 17 17 17 15 14 14 14 14 9 5 2 4 4 5 5 9 10 14 15 20 23 26 26 29 28 29 28 26 25 25 22 18 17
31 30 29 30 30 29 28 27 23 22 22 21 20 19 17 17 17 16 15 14 16 14 11 9 7 3 3 6 8 11 8 8 10 19 24 25 29 26 30 27 31 32 29 29 28 24 25
34 33 32 32 32 31 29 28 27 22 23 22 21 20 21 18 15 16 15 15 15 14 11 12 12 11 8 8 8 9 13 14 17 15 25 19 30 33 30 27 29 31 33 32 30 28 24
38 37 36 34 33 33 32 29 28 25 25 25 23 21 21 20 16 16 17 18 15 15 13 13 14 14 15 13 11 8 10 10 10 17 20 27 25 32 37 38 36 32 36 36 32 27 27
41 41 39 38 36 35 34 33 28 29 28 29 27 24 22 22 18 18 19 16 15 15 15 17 15 15 16 14 14 14 12 12 12 11 19 22 27 29 28 42 42 37 37 34 32 31 30
47 46 44 43 39 37 35 35 33 31 31 31 29 26 24 22 21 20 19 18 18 16 15 15 16 16 15 15 14 15 13 12 13 12 11 20 24 25 29 27 39 45 45 38 37 33 30
49 47 46 43 40 37 34 34 34 31 31 31 27 26 25 24 23 22 21 20 17 18 15 16 18 19 17 15 13 13 13 12 12 11 11 12 21 24 27 29 36 37 32 41 40 40 35
57 55 51 47 45 45 42 39 38 33 28 28 25 25 25 25 24 23 22 22 17 16 14 13 14 14 16 14 13 13 13 13 11 11 13 15 16 22 25 28 32 35 32 38 40 47 41
41 38 38 41 43 43 43 39 38 34 29 27 24 25 24 24 24 25 25 22 15 14 15 16 14 12 16 16 13 14 16 18 18 17 15 16 16 18 21 24 25 25 25 28 35 40 33
41 43 41 34 32 32 33 33 34 35 30 28 24 23 23 24 26 26 29 23 19 17 14 16 15 15 16 17 16 17 19 22 25 23 21 19 19 20 21 23 25 23 23 23 33 28 39
32 30 29 28 28 26 28 28 28 28 29 25 23 21 25 23 29 29 30 24 20 16 15 18 20 19 20 19 20 20 23 24 24 23 21 20 20 19 21 22 23 23 23 24 26 32 31
25 23 25 25 25 23 23 24 24 25 26 25 23 24 23 24 29 30 29 23 21 15 16 19 20 20 19 16 18 20 23 21 19 18 19 19 22 23 23 23 21 20 24 25 22 24 31

GFSGBSN_500_spd_123.txt.gz
Wind_Speed
8 9 10 11 13 13 13 13 14 14 12 11 8 8 7 8 9 11 13 14 15 15 16 16 17 17 19 18 17 16 16 14 15 15 14 13 11 8 9 11 7 6 5 7 14 14 14
9 10 10 13 17 19 20 20 19 15 10 9 9 10 10 10 12 14 16 17 17 17 17 18 19 20 21 21 20 20 20 20 19 18 18 17 13 13 11 14 10 10 10 8 7 12 16
11 12 15 18 20 22 23 23 21 17 12 9 9 12 12 15 15 16 16 16 15 15 14 14 15 17 20 21 23 22 23 23 22 21 21 20 17 15 14 12 16 14 13 14 14 19 20
14 16 18 19 21 22 23 24 24 21 16 12 10 12 13 15 15 15 14 14 13 13 12 11 11 12 16 16 18 21 23 24 25 25 25 24 20 17 18 16 18 19 17 20 20 14 20
15 18 19 20 20 22 22 23 24 23 20 16 13 13 14 15 16 14 16 14 13 9 9 9 10 11 10 11 12 13 17 21 24 26 27 25 24 19 19 19 22 19 21 22 24 17 18
17 18 18 19 20 20 21 23 25 25 23 19 16 15 15 16 16 16 16 14 13 10 9 10 9 9 10 9 9 10 12 15 17 22 25 24 22 20 19 20 21 25 24 21 22 19 20
16 17 19 20 20 20 21 23 24 24 24 21 18 17 17 19 17 17 15 14 11 10 10 10 8 7 7 8 9 10 13 16 18 19 21 22 20 21 21 21 24 24 22 20 19 8 27
17 18 19 20 20 21 22 23 24 25 25 21 17 17 21 20 18 16 13 12 11 10 11 10 11 12 9 8 9 9 10 13 16 16 17 20 21 21 19 22 24 25 19 14 12 12 23
16 18 19 20 22 22 23 24 25 24 23 20 18 20 22 21 18 15 14 13 12 11 10 12 11 10 10 12 10 10 11 12 15 16 16 21 22 21 19 21 23 23 17 18 14 10 8
16 17 19 21 23 24 23 24 25 24 23 20 18 19 22 20 17 16 14 15 13 12 11 14 12 9 8 11 13 10 9 10 13 15 18 22 21 22 19 20 22 20 15 20 16 13 8
17 18 19 21 23 24 24 25 26 24 22 21 19 18 21 19 18 15 15 15 13 13 14 15 15 15 14 11 11 6 7 9 12 15 18 21 24 22 19 20 21 21 25 14 20 17 15
17 18 19 21 23 25 25 25 25 24 21 21 18 16 19 16 16 15 15 13 12 13 12 13 14 16 14 14 12 8 7 9 11 13 16 22 23 20 20 23 24 22 16 17 12 13 13
17 18 19 20 22 24 26 25 25 24 22 19 18 15 17 16 15 14 13 11 12 11 11 11 13 14 12 11 10 8 4 7 13 14 18 23 21 21 22 22 23 21 16 14 11 12 12
19 19 20 22 22 24 25 26 25 23 22 19 18 17 17 17 14 13 12 11 11 10 9 10 10 10 7 7 7 7 7 5 10 16 19 20 18 19 21 22 19 18 12 12 16 16 11
22 21 21 22 23 24 25 26 25 23 22 19 17 17 16 16 16 14 13 12 12 9 9 10 9 8 4 4 7 7 8 6 10 15 17 17 17 17 20 22 21 18 15 14 17 16 16
25 24 24 24 25 25 26 27 27 24 21 20 18 17 16 16 16 13 12 11 10 9 8 9 8 6 5 4 6 8 8 7 13 16 18 19 19 18 21 23 20 22 20 18 14 12 14
28 27 27 26 26 26 26 27 27 26 23 20 19 19 17 15 15 12 12 12 10 7 8 9 6 4 4 5 7 6 7 7 9 16 19 20 23 22 20 22 22 23 20 19 17 15 15
30 30 30 29 28 28 27 27 26 26 24 22 19 19 18 15 15 14 13 10 10 7 8 10 9 6 4 5 6 7 7 10 8 12 18 19 24 26 25 24 24 24 23 20 16 15 19
35 34 33 32 31 30 28 27 26 26 25 24 21 20 18 18 17 15 14 11 11 9 9 10 13 11 9 6 6 8 10 10 10 13 16 19 22 27 30 30 29 28 28 27 23 21 18
39 37 36 35 34 32 31 29 27 26 26 26 24 21 21 20 18 16 15 14 10 10 12 13 12 13 12 10 8 8 9 12 14 16 17 20 24 28 29 32 31 28 31 31 28 27 25
44 42 40 38 36 35 34 32 31 28 27 27 26 23 22 22 21 18 18 17 13 10 12 14 14 13 13 12 13 12 11 11 12 14 20 22 28 28 32 29 33 30 31 30 31 31 29
52 50 47 44 41 39 38 37 33 31 29 28 29 28 26 25 24 21 19 17 16 13 14 17 15 13 14 15 14 14 14 14 13 14 14 21 26 28 27 35 32 37 37 32 32 30 32
55 55 53 50 46 43 40 38 35 31 29 28 29 29 28 28 24 23 21 19 18 15 14 17 18 14 14 12 13 15 16 16 15 12 13 15 20 27 27 29 38 40 41 42 37 31 30
46 45 46 51 53 50 47 44 38 34 31 27 28 29 28 27 25 23 23 21 20 15 15 14 16 17 19 15 13 14 15 16 16 14 13 15 17 20 26 29 35 34 34 36 43 38 35
44 45 45 45 38 31 37 41 42 41 38 35 33 31 28 26 26 24 23 23 22 16 18 16 14 12 13 11 13 14 15 14 15 14 15 16 18 21 23 29 30 26 29 29 31 33 35
38 37 33 34 34 33 31 29 30 32 33 31 31 30 28 26 26 26 23 22 21 23 13 15 16 16 13 12 11 15 17 17 16 16 18 20 22 23 22 23 26 26 26 24 27 31 32
32 27 24 25 28 30 29 27 25 25 27 27 26 27 28 27 26 26 26 23 20 17 17 18 17 18 15 14 15 16 17 17 17 19 21 23 24 25 26 25 24 21 24 21 28 29 30
27 25 23 22 21 19 20 22 23 25 26 28 26 24 22 23 26 27 27 21 19 21 21 19 21 21 18 18 19 20 19 19 19 21 22 23 24 25 26 27 27 23 24 25 23 23 25
25 23 21 21 18 17 19 20 20 22 23 25 25 26 24 21 25 27 22 19 22 21 20 21 22 21 21 19 19 19 18 19 20 20 20 20 22 24 24 27 26 22 20 22 22 22 22